[[{"header":{"parameterUnit":"m.s-1","parameterCategory":1,"la1":30.6,"la2":28.766,"lo1":-90.7593,"lo2":-88.6598,"dy":0.0162,"dx":0.0183,"nx":116,"ny":114,"refTime":"2023-04-10T06:00:00:Z","depth":0,"parameterNumber":2,"parameterNumberName":"U-component_of_WINDS"},"data":[0.0,0.0,0.0,0.0,0.0,0.0,0.0,0.0,0.0,0.0,0.0,0.0,0.0,0.0,0.0,0.0,0.0,0.0,0.0,0.0,0.0,0.0,0.0,0.0,0.0,0.0,0.0,0.0,0.0,0.0,0.0,0.0,0.0,0.0,0.0,0.0,0.0,0.0,0.0,0.0,0.0,0.0,0.0,0.0,0.0,0.0,0.0,0.0,0.0,0.0,0.0,0.0,0.0,0.0,0.0,0.0,0.0,0.0,0.0,0.0,0.0,0.0,0.0,0.0,0.0,0.0,0.0,0.0,0.0,0.0,0.0,0.0,0.0,0.0,0.0,0.0,0.0,0.0,0.0,0.0,0.0,0.0,0.0,0.0,0.0,0.0,0.0,0.0,0.0,0.0,0.0,0.0,0.0,0.0,0.0,0.0,0.0,0.0,0.0,0.0,0.0,0.0,0.0,0.0,0.0,0.0,0.0,0.0,0.0,0.0,0.0,0.0,0.0,0.0,0.0,0.0,0.0,0.0,0.0,0.0,0.0,0.0,0.0,0.0,0.0,0.0,0.0,0.0,0.0,0.0,0.0,0.0,0.0,0.0,0.0,0.0,0.0,0.0,0.0,0.0,0.0,0.0,0.0,0.0,0.0,0.0,0.0,0.0,0.0,0.0,0.0,0.0,0.0,0.0,0.0,0.0,0.0,0.0,0.0,0.0,0.0,0.0,0.0,0.0,0.0,0.0,0.0,0.0,0.0,0.0,0.0,0.0,0.0,0.0,0.0,0.0,0.0,0.0,0.0,0.0,0.0,0.0,0.0,0.0,0.0,0.0,0.0,0.0,0.0,0.0,0.0,0.0,0.0,0.0,0.0,0.0,0.0,0.0,0.0,0.0,0.0,0.0,0.0,0.0,0.0,0.0,0.0,0.0,0.0,0.0,0.0,0.0,0.0,0.0,0.0,0.0,0.0,0.0,0.0,0.0,0.0,0.0,0.0,0.0,0.0,0.0,0.0,0.0,0.0,0.0,0.0,0.0,0.0,0.0,0.0,0.0,0.0,0.0,0.0,0.0,0.0,0.0,0.0,0.0,0.0,0.0,0.0,0.0,0.0,0.0,0.0,0.0,0.0,0.0,0.0,0.0,0.0,0.0,0.0,0.0,0.0,0.0,0.0,0.0,0.0,0.0,0.0,0.0,0.0,0.0,0.0,0.0,0.0,0.0,0.0,0.0,0.0,0.0,0.0,0.0,0.0,0.0,0.0,0.0,0.0,0.0,0.0,0.0,0.0,0.0,0.0,0.0,0.0,0.0,0.0,0.0,0.0,0.0,0.0,0.0,0.0,0.0,0.0,0.0,0.0,0.0,0.0,0.0,0.0,0.0,0.0,0.0,0.0,0.0,0.0,0.0,0.0,0.0,0.0,0.0,0.0,0.0,0.0,0.0,0.0,0.0,0.0,0.0,0.0,0.0,0.0,0.0,0.0,0.0,0.0,0.0,0.0,0.0,0.0,0.0,0.0,0.0,0.0,0.0,0.0,0.0,0.0,0.0,0.0,0.0,0.0,0.0,0.0,0.0,0.0,0.0,0.0,0.0,0.0,0.0,0.0,0.0,0.0,0.0,0.0,0.0,0.0,0.0,0.0,0.0,0.0,0.0,0.0,0.0,0.0,0.0,0.0,0.0,0.0,0.0,0.0,0.0,0.0,0.0,0.0,0.0,0.0,0.0,0.0,0.0,0.0,0.0,0.0,0.0,0.0,0.0,0.0,0.0,0.0,0.0,0.0,0.0,0.0,0.0,0.0,0.0,0.0,0.0,0.0,0.0,0.0,0.0,0.0,0.0,0.0,0.0,0.0,0.0,0.0,0.0,0.0,0.0,0.0,0.0,0.0,0.0,0.0,0.0,0.0,0.0,0.0,0.0,0.0,0.0,0.0,0.0,0.0,0.0,0.0,0.0,0.0,0.0,0.0,0.0,0.0,0.0,0.0,0.0,0.0,0.0,0.0,0.0,0.0,0.0,0.0,0.0,0.0,0.0,0.0,0.0,0.0,0.0,0.0,0.0,0.0,0.0,0.0,0.0,0.0,0.0,0.0,0.0,0.0,0.0,0.0,0.0,0.0,0.0,0.0,0.0,0.0,0.0,0.0,0.0,0.0,0.0,0.0,0.0,0.0,0.0,0.0,0.0,0.0,0.0,0.0,0.0,0.0,0.0,0.0,0.0,0.0,0.0,0.0,0.0,0.0,0.0,0.0,0.0,0.0,0.0,0.0,0.0,0.0,0.0,0.0,0.0,0.0,0.0,0.0,0.0,0.0,0.0,0.0,0.0,0.0,0.0,0.0,0.0,0.0,0.0,0.0,0.0,0.0,0.0,0.0,0.0,0.0,0.0,0.0,0.0,0.0,0.0,0.0,0.0,0.0,0.0,0.0,0.0,0.0,0.0,0.0,0.0,0.0,0.0,0.0,0.0,0.0,0.0,0.0,0.0,0.0,0.0,0.0,0.0,0.0,0.0,0.0,0.0,0.0,0.0,0.0,0.0,0.0,0.0,0.0,0.0,0.0,0.0,0.0,0.0,0.0,0.0,0.0,0.0,0.0,0.0,0.0,0.0,0.0,0.0,0.0,0.0,0.0,0.0,0.0,0.0,0.0,0.0,0.0,0.0,0.0,0.0,0.0,0.0,0.0,0.0,0.0,0.0,0.0,0.0,0.0,0.0,0.0,0.0,0.0,0.0,0.0,0.0,0.0,0.0,0.0,0.0,0.0,0.0,0.0,0.0,0.0,0.0,0.0,0.0,0.0,0.0,0.0,0.0,0.0,0.0,0.0,0.0,0.0,0.0,0.0,0.0,0.0,0.0,0.0,0.0,0.0,0.0,0.0,0.0,0.0,0.0,0.0,0.0,0.0,0.0,0.0,0.0,0.0,0.0,0.0,0.0,0.0,0.0,0.0,0.0,0.0,0.0,0.0,0.0,0.0,0.0,0.0,0.0,0.0,0.0,0.0,0.0,0.0,0.0,0.0,0.0,0.0,0.0,0.0,0.0,0.0,0.0,0.0,0.0,0.0,0.0,0.0,0.0,0.0,0.0,0.0,0.0,0.0,0.0,0.0,0.0,0.0,0.0,0.0,0.0,0.0,0.0,0.0,0.0,0.0,0.0,0.0,0.0,0.0,0.0,0.0,0.0,0.0,0.0,0.0,0.0,0.0,0.0,0.0,0.0,0.0,0.0,0.0,0.0,0.0,0.0,0.0,0.0,0.0,0.0,0.0,0.0,0.0,0.0,0.0,0.0,0.0,0.0,0.0,0.0,0.0,0.0,0.0,0.0,0.0,0.0,0.0,0.0,0.0,0.0,0.0,0.0,0.0,0.0,0.0,0.0,0.0,0.0,0.0,0.0,0.0,0.0,0.0,0.0,0.0,0.0,0.0,0.0,0.0,0.0,0.0,0.0,0.0,0.0,0.0,0.0,0.0,0.0,0.0,0.0,0.0,0.0,0.0,0.0,0.0,0.0,0.0,0.0,0.0,0.0,0.0,0.0,0.0,0.0,0.0,0.0,0.0,0.0,0.0,0.0,0.0,0.0,0.0,0.0,0.0,0.0,0.0,0.0,0.0,0.0,0.0,0.0,0.0,0.0,0.0,0.0,0.0,0.0,0.0,0.0,0.0,0.0,0.0,0.0,0.0,0.0,0.0,0.0,0.0,0.0,0.0,0.0,0.0,0.0,0.0,0.0,0.0,0.0,0.0,0.0,0.0,0.0,0.0,0.0,0.0,0.0,0.0,0.0,0.0,0.0,0.0,0.0,0.0,0.0,0.0,0.0,0.0,0.0,0.0,0.0,0.0,0.0,0.0,0.0,0.0,0.0,0.0,0.0,0.0,0.0,0.0,0.0,0.0,0.0,0.0,0.0,0.0,0.0,0.0,0.0,0.0,0.0,0.0,0.0,0.0,0.0,0.0,0.0,0.0,0.0,0.0,0.0,0.0,0.0,0.0,0.0,0.0,0.0,0.0,0.0,0.0,0.0,0.0,0.0,0.0,0.0,0.0,0.0,0.0,0.0,0.0,0.0,0.0,0.0,0.0,0.0,0.0,0.0,0.0,0.0,0.0,0.0,0.0,0.0,0.0,0.0,0.0,0.0,0.0,0.0,0.0,0.0,0.0,0.0,0.0,0.0,0.0,0.0,0.0,0.0,0.0,0.0,0.0,0.0,0.0,0.0,0.0,0.0,0.0,0.0,0.0,0.0,0.0,0.0,0.0,0.0,0.0,0.0,0.0,0.0,0.0,0.0,0.0,0.0,0.0,0.0,0.0,0.0,0.0,0.0,0.0,0.0,0.0,0.0,0.0,0.0,0.0,0.0,0.0,0.0,0.0,0.0,0.0,0.0,0.0,0.0,0.0,0.0,0.0,0.0,0.0,0.0,0.0,0.0,0.0,0.0,0.0,0.0,0.0,0.0,0.0,0.0,0.0,0.0,0.0,0.0,0.0,0.0,0.0,0.0,0.0,0.0,0.0,0.0,0.0,0.0,0.0,0.0,0.0,0.0,0.0,0.0,0.0,0.0,0.0,0.0,0.0,0.0,0.0,0.0,0.0,0.0,0.0,0.0,0.0,0.0,0.0,0.0,0.0,0.0,0.0,0.0,0.0,0.0,0.0,0.0,0.0,0.0,0.0,0.0,0.0,0.0,0.0,0.0,0.0,0.0,0.0,0.0,0.0,0.0,0.0,0.0,0.0,0.0,0.0,0.0,0.0,0.0,0.0,0.0,0.0,0.0,0.0,0.0,0.0,0.0,0.0,0.0,0.0,0.0,0.0,0.0,0.0,0.0,0.0,0.0,0.0,0.0,0.0,0.0,0.0,0.0,0.0,0.0,0.0,0.0,0.0,0.0,0.0,0.0,0.0,0.0,0.0,0.0,0.0,0.0,0.0,0.0,0.0,0.0,0.0,0.0,0.0,0.0,0.0,0.0,0.0,0.0,0.0,0.0,0.0,0.0,0.0,0.0,0.0,0.0,0.0,0.0,0.0,0.0,0.0,0.0,0.0,0.0,0.0,0.0,0.0,0.0,0.0,0.0,0.0,0.0,0.0,0.0,0.0,0.0,0.0,0.0,0.0,0.0,0.0,0.0,0.0,0.0,0.0,0.0,0.0,0.0,0.0,0.0,0.0,0.0,0.0,0.0,0.0,0.0,0.0,0.0,0.0,0.0,0.0,0.0,0.0,0.0,0.0,0.0,0.0,0.0,0.0,0.0,0.0,0.0,0.0,0.0,0.0,0.0,0.0,0.0,0.0,0.0,0.0,0.0,0.0,0.0,0.0,0.0,0.0,0.0,0.0,0.0,0.0,0.0,0.0,0.0,0.0,0.0,0.0,0.0,0.0,0.0,0.0,0.0,0.0,0.0,0.0,0.0,0.0,0.0,0.0,0.0,0.0,0.0,0.0,0.0,0.0,0.0,0.0,0.0,0.0,0.0,0.0,0.0,0.0,0.0,0.0,0.0,0.0,0.0,0.0,0.0,0.0,0.0,0.0,0.0,0.0,0.0,0.0,0.0,0.0,0.0,0.0,0.0,0.0,0.0,0.0,0.0,0.0,0.0,0.0,0.0,0.0,0.0,0.0,0.0,0.0,0.0,0.0,0.0,0.0,0.0,0.0,0.0,0.0,0.0,0.0,0.0,0.0,0.0,0.0,0.0,0.0,0.0,0.0,0.0,0.0,0.0,0.0,0.0,0.0,0.0,0.0,0.0,0.0,0.0,0.0,0.0,0.0,0.0,0.0,0.0,0.0,0.0,0.0,0.0,0.0,0.0,0.0,0.0,0.0,0.0,0.0,0.0,0.0,0.0,0.0,0.0,0.0,0.0,0.0,0.0,0.0,0.0,0.0,0.0,0.0,0.0,0.0,0.0,0.0,0.0,0.0,0.0,0.0,0.0,0.0,0.0,0.0,0.0,0.0,0.0,0.0,0.0,0.0,0.0,0.0,0.0,0.0,0.0,0.0,0.0,0.0,0.0,0.0,0.0,0.0,0.0,0.0,0.0,0.0,0.0,0.0,0.0,0.0,0.0,0.0,0.0,0.0,0.0,0.0,0.0,0.0,0.0,0.0,0.0,1.9148,1.8142,0.0,0.0,0.0,0.0,0.0,0.0,0.0,0.0,0.0,0.0,0.0,0.0,0.0,0.0,0.0,0.0,0.0,0.0,0.0,0.0,0.0,0.0,0.0,0.0,0.0,0.0,0.0,0.0,0.0,0.0,0.0,0.0,0.0,0.0,0.0,0.0,3.6358,3.6358,3.6358,3.6358,3.6358,3.6358,3.6358,3.6358,0.0,0.0,0.0,0.0,0.0,0.0,0.0,0.0,0.0,0.0,0.0,0.0,0.0,0.0,0.0,0.0,0.0,0.0,0.0,0.0,0.0,0.0,0.0,0.0,0.0,0.0,0.0,0.0,0.0,0.0,0.0,0.0,0.0,0.0,0.0,0.0,0.0,0.0,0.0,0.0,0.0,0.0,0.0,0.0,0.0,0.0,0.0,0.0,0.0,0.0,0.0,0.0,0.0,0.0,0.0,0.0,0.0,0.0,0.0,0.0,0.0,0.0,0.0,0.0,0.0,0.0,0.0,0.0,0.0,0.0,1.8801,1.7456,0.0,0.0,0.0,0.0,0.0,0.0,0.0,0.0,0.0,0.0,0.0,0.0,0.0,0.0,0.0,0.0,0.0,0.0,0.0,0.0,0.0,0.0,0.0,3.6358,3.6358,3.6358,3.6358,3.6358,3.6358,0.0,0.0,0.0,0.0,0.0,3.6508,3.6508,3.6508,3.6508,3.6408,3.6358,3.6358,3.6358,3.6358,3.6358,3.6358,0.0,0.0,0.0,0.0,0.0,0.0,0.0,0.0,0.0,0.0,0.0,0.0,0.0,0.0,0.0,0.0,0.0,0.0,0.0,0.0,0.0,0.0,0.0,0.0,0.0,0.0,0.0,0.0,0.0,0.0,0.0,0.0,0.0,0.0,0.0,0.0,0.0,0.0,0.0,0.0,0.0,0.0,0.0,0.0,0.0,0.0,0.0,0.0,0.0,0.0,0.0,0.0,0.0,0.0,0.0,0.0,0.0,0.0,0.0,0.0,0.0,0.0,0.0,2.398,2.3198,2.2754,2.1124,2.0382,2.0025,1.8428,1.6898,1.5242,1.1535,0.0,0.0,0.0,0.0,0.0,0.0,0.0,0.0,0.0,0.0,0.0,0.0,0.0,0.0,0.0,0.0,0.0,0.0,0.0,3.6282,3.6358,3.6358,3.6358,3.6358,3.6358,3.6358,3.6358,3.6358,3.6358,3.6358,3.6835,3.7086,3.7086,3.7086,3.7086,3.7086,3.6609,3.6358,3.6358,3.6358,3.6358,3.6358,3.6358,3.6358,3.6358,0.0,0.0,0.0,0.0,0.0,0.0,0.0,0.0,0.0,0.0,0.0,0.0,0.0,0.0,0.0,0.0,0.0,0.0,0.0,0.0,0.0,0.0,0.0,0.0,0.0,0.0,0.0,0.0,0.0,0.0,0.0,0.0,0.0,0.0,0.0,0.0,0.0,0.0,0.0,0.0,0.0,2.7537,3.0859,0.0,0.0,0.0,0.0,0.0,0.0,0.0,0.0,0.0,0.0,0.0,0.0,0.0,2.6696,2.5419,2.6711,2.5982,2.327,2.4876,2.3901,2.0745,2.0908,1.9223,1.587,1.5885,0.0,1.5403,1.312,0.0,0.0,0.0,0.0,0.0,0.0,0.0,0.0,0.0,0.0,0.0,0.0,0.0,0.0,0.0,0.0,0.0,0.0,0.0,0.0,0.0,3.6358,3.6358,3.6358,3.6358,3.6358,3.6358,3.6358,3.6358,3.6358,3.6885,3.7186,3.7186,3.7186,3.7036,3.6734,3.6483,3.6358,3.6358,3.6358,3.6358,3.6358,3.6358,3.6358,3.6358,3.6358,0.0,0.0,0.0,0.0,0.0,0.0,0.0,0.0,0.0,0.0,0.0,0.0,0.0,0.0,0.0,0.0,0.0,0.0,0.0,0.0,0.0,0.0,0.0,0.0,0.0,0.0,0.0,0.0,0.0,0.0,0.0,0.0,0.0,0.0,0.0,0.0,0.0,0.0,0.0,2.6919,2.8152,3.0509,2.7896,2.5863,0.0,0.0,0.0,0.0,0.0,0.0,0.0,0.0,0.0,3.1068,2.8828,2.781,2.829,2.713,2.5768,2.4331,2.3238,2.2064,2.053,1.8539,1.6814,1.5278,1.44,1.3219,1.1972,0.9898,0.8059,0.6178,0.0,0.0,0.0,0.0,0.0,0.0,0.0,0.0,0.0,0.0,0.0,0.0,0.0,0.0,0.0,0.0,0.0,0.0,3.6358,3.6358,3.6358,3.6358,3.6358,3.6358,3.6358,3.6358,3.6358,3.6358,3.7036,3.7387,3.7387,3.7387,3.7061,3.6358,3.6358,3.6358,3.6358,3.6358,3.6358,3.6358,3.6358,3.6358,3.6358,3.6358,3.6358,3.6358,0.0,0.0,0.0,0.0,0.0,0.0,0.0,0.0,0.0,0.0,0.0,0.0,0.0,0.0,0.0,0.0,0.0,0.0,0.0,0.0,0.0,0.0,0.0,0.0,0.0,0.0,0.0,0.0,0.0,0.0,0.0,0.0,0.0,0.0,0.0,0.0,0.0,2.8116,2.8865,2.9868,2.7997,2.6106,0.0,0.0,0.0,0.0,0.0,0.0,2.9148,2.8518,2.935,3.1989,2.9775,2.8793,2.9457,2.6823,2.5008,2.413,2.167,1.9957,1.9176,1.6441,1.4982,1.47,1.2664,1.1013,0.9312,0.7774,0.6537,0.5278,0.2174,0.0505,0.0,0.0,0.0,0.0,0.0,0.0,0.0,0.0,0.0,0.0,0.0,0.0,0.0,0.0,0.0,3.6358,3.6358,3.6358,3.6358,3.6358,3.6358,3.6358,3.6358,3.6358,3.6358,3.6358,3.7387,3.7965,3.7965,3.7965,3.7437,3.6358,3.6358,3.6358,3.6358,3.6358,3.6358,3.6358,3.6358,3.6358,3.6358,3.6358,3.6358,3.6358,3.6358,0.0,0.0,0.0,0.0,0.0,0.0,0.0,0.0,0.0,0.0,0.0,0.0,0.0,0.0,0.0,0.0,0.0,0.0,0.0,0.0,0.0,0.0,0.0,0.0,0.0,0.0,0.0,0.0,0.0,0.0,0.0,0.0,0.0,0.0,0.0,0.0,0.0,0.0,2.8527,2.8408,0.0,0.0,0.0,0.0,2.6372,2.7992,2.9166,2.9668,3.1475,3.1846,3.032,3.0555,2.9048,2.5771,2.5651,2.3885,2.0568,2.0685,1.8884,1.5411,1.5438,1.4562,1.2718,1.0493,0.9662,0.9692,0.9697,0.7077,0.3304,0.3176,0.1849,0.0,0.0,0.0,0.0,0.0,0.0,0.0,0.0,0.0,0.0,0.0,0.0,3.6358,3.6358,3.6358,3.6358,3.6358,3.6358,3.6358,3.6358,3.6358,3.6358,3.6358,3.6358,3.6358,3.6358,3.7086,3.7487,3.7487,3.7487,3.7111,3.6358,3.6358,3.6358,3.6358,3.6358,3.6358,3.6358,3.6358,3.6358,3.6358,3.6358,3.6558,3.6885,3.6885,3.7236,0.0,0.0,0.0,0.0,0.0,0.0,0.0,0.0,0.0,0.0,0.0,0.0,0.0,0.0,0.0,0.0,0.0,0.0,0.0,0.0,0.0,0.0,0.0,0.0,0.0,0.0,0.0,0.0,0.0,0.0,0.0,0.0,0.0,0.0,0.0,0.0,0.0,2.8426,2.8426,0.0,2.6953,2.754,2.7992,2.8149,3.0008,3.1218,3.1637,3.129,3.0954,3.0555,2.8474,2.6823,2.5517,2.3255,2.1468,2.0309,1.8091,1.6387,1.5127,1.4099,1.2407,1.0504,0.9781,0.7952,0.544,0.5648,0.4667,0.3171,0.1679,0.0673,0.0,0.0,0.0,0.0,0.0,0.0,0.0,0.0,0.0,0.0,0.0,3.6358,3.6358,3.6358,3.6358,3.6358,3.6358,3.6358,3.6358,3.6358,3.6358,3.6358,3.6358,3.6358,3.6358,3.6358,3.6885,3.7186,3.7186,3.7186,3.691,3.6358,3.6358,3.6358,3.6358,3.6358,3.6358,3.6358,3.6358,3.6458,3.6634,3.6634,3.686,3.7211,3.7387,3.7789,3.8291,0.0,0.0,0.0,0.0,0.0,0.0,0.0,0.0,0.0,0.0,0.0,0.0,0.0,0.0,0.0,0.0,0.0,0.0,0.0,0.0,0.0,0.0,0.0,0.0,0.0,0.0,0.0,0.0,0.0,0.0,0.0,0.0,0.0,0.0,2.7452,2.8426,2.8426,2.903,2.8984,2.8006,2.9228,3.0148,3.0297,3.1577,3.2559,3.2988,3.1299,3.0245,2.9977,2.7089,2.4887,2.3762,2.1468,1.9667,1.8538,1.6184,1.4851,1.4166,1.2333,1.0757,0.9447,0.794,0.5742,0.3157,0.2513,0.2184,0.2016,0.0505,0.0,0.0,0.0,0.0,-0.0168,0.0,0.0,0.0,0.0,0.0,0.0,3.6282,3.6358,3.6358,3.6358,3.6358,3.6358,3.6358,3.6358,3.6358,3.6358,3.6358,3.6358,3.6358,3.6358,3.6358,3.6358,3.6885,3.7161,3.7161,3.7161,3.6885,3.6358,3.6358,3.6358,3.6358,3.6358,3.6358,3.6358,3.6383,3.6684,3.7186,3.7211,3.7236,3.7287,3.7814,3.8391,3.8894,0.0,0.0,0.0,0.0,0.0,0.0,0.0,0.0,0.0,0.0,0.0,0.0,0.0,0.0,0.0,0.0,0.0,0.0,0.0,0.0,0.0,0.0,0.0,0.0,0.0,0.0,0.0,0.0,0.0,0.0,0.0,0.0,0.0,2.6349,2.7452,2.8564,2.8564,3.0282,3.1543,3.1543,3.1934,3.2363,3.2773,3.2812,3.2988,3.3398,3.1707,2.9995,2.8295,2.6455,2.3762,2.0309,2.0179,1.8538,1.5119,1.4968,1.4166,1.236,1.0285,0.9447,0.924,0.4921,0.3157,0.3191,0.0841,0.0,0.0,0.0,0.0,0.0,0.0,-0.0168,-0.0505,0.0,0.0,0.0,0.0,0.0,0.0,3.6332,3.6358,3.6358,3.6358,3.6358,3.6358,3.6358,3.6358,3.6358,3.6358,3.6358,3.6358,3.6358,3.6358,3.6358,3.6358,3.6508,3.6584,3.6584,3.6584,3.6508,3.6358,3.6358,3.6358,3.6358,3.6358,3.6358,3.6383,3.6784,3.7036,3.7236,3.8065,3.8417,3.8417,3.8567,3.8969,3.9471,0.0,0.0,0.0,0.0,0.0,0.0,0.0,0.0,0.0,0.0,0.0,0.0,0.0,0.0,0.0,0.0,0.0,0.0,0.0,0.0,0.0,0.0,0.0,0.0,0.0,0.0,0.0,0.0,0.0,0.0,0.0,2.7314,2.863,2.7847,2.9416,3.0596,3.0596,3.1459,3.1992,3.1992,3.2363,3.2676,3.2793,3.3086,3.3301,3.3418,3.0531,2.8689,2.8163,2.5364,2.2776,2.0309,1.9213,1.7527,1.5119,1.3748,1.2192,1.0285,0.9687,0.7721,0.4759,0.3625,0.2327,0.0841,0.0337,0.0,0.0,0.0,0.0,-0.0168,-0.1849,-0.3524,-0.503,0.0,0.0,0.0,0.0,0.0,0.0,3.6358,3.6358,3.6358,3.6358,3.6358,3.6358,3.6358,3.6358,3.6358,3.6358,3.6358,3.6358,3.6358,3.6358,3.6358,3.6358,3.6358,3.6358,3.6358,3.6358,3.6358,3.6358,3.6358,3.6358,3.6358,3.6609,3.6709,3.6734,3.7287,3.7663,3.7939,3.8592,3.8994,3.922,3.922,3.9396,3.9697,3.9697,3.8921,3.7713,3.6918,3.5288,3.3325,3.2416,0.0,0.0,0.0,0.0,0.0,0.0,0.0,0.0,0.0,0.0,0.0,0.0,0.0,0.0,0.0,0.0,0.0,0.0,0.0,0.0,0.0,0.0,0.0,0.0,2.9004,3.0316,3.0073,3.1003,3.1797,3.1797,3.2168,3.2422,3.2422,3.2812,3.3066,3.3066,3.3281,3.3019,3.2365,2.9761,2.7995,2.7328,2.3969,2.1245,1.9459,1.7665,1.5896,1.4029,1.2037,1.0582,0.9387,0.7553,0.537,0.2972,0.2158,0.117,0.0,0.0,-0.0505,-0.1346,0.0,0.0,0.0,0.0,-0.6202,-0.8044,0.0,0.0,0.0,0.0,0.0,0.0,3.6358,3.6358,3.6358,3.6358,3.6358,3.6358,3.6358,3.6358,3.6358,3.6358,3.6358,3.6358,3.6358,3.6358,3.6358,3.6358,3.6358,3.6358,3.6358,3.6358,3.6358,3.6358,3.6433,3.6458,3.6458,3.701,3.7287,3.7287,3.7864,3.8391,3.8868,3.8944,3.9245,3.9697,3.9697,3.9697,3.9697,3.9697,3.7926,3.5617,3.5727,3.3754,3.1228,3.1325,0.0,0.0,0.0,0.0,0.0,0.0,0.0,0.0,0.0,0.0,0.0,0.0,0.0,0.0,0.0,0.0,0.0,0.0,0.0,0.0,0.0,0.0,0.0,0.0,3.0925,3.2246,3.2246,3.2285,3.2285,3.2246,3.2617,3.2871,3.2871,3.3203,3.3418,3.3418,3.3418,3.2638,3.0972,2.9458,0.0,0.0,0.0,1.9949,1.809,1.6178,1.4189,1.2528,1.0442,0.9238,0.895,0.49,0.2974,0.2647,0.0838,0.0,0.0,-0.0337,-0.1681,-0.3524,-0.1513,-0.2184,-0.4363,-0.6376,-0.8558,-1.0419,0.0,0.0,0.0,0.0,0.0,0.0,3.6358,3.6358,3.6358,3.6358,3.6358,3.6358,3.6358,3.6358,3.6358,3.6358,3.6358,3.6358,3.6358,3.6358,3.6358,3.6358,3.6358,3.6358,3.6358,3.6358,3.6358,3.6358,3.681,3.7036,3.7036,3.7588,3.7839,3.7864,3.8442,3.8768,3.8894,3.9346,3.9597,3.9697,3.9697,3.9697,3.9697,3.9697,3.8582,3.724,3.8477,3.6162,3.2871,3.409,3.2871,3.0898,3.0898,3.0898,0.0,0.0,0.0,0.0,0.0,0.0,0.0,0.0,0.0,0.0,0.0,0.0,0.0,0.0,0.0,0.0,0.0,0.0,0.0,2.9436,3.1361,3.2676,3.2676,3.2969,3.3047,3.2715,3.3047,3.3301,3.3301,3.3379,3.3418,3.3418,3.3418,3.2772,3.1258,2.9461,2.7892,2.6384,2.2857,2.0128,1.809,1.6313,1.4515,1.2684,1.0487,0.0,0.7037,0.4279,0.2158,0.0503,0.0168,0.0,-0.0168,-0.2016,-0.4027,-0.6032,-0.5533,-0.67,-0.8716,-0.9305,-1.1031,-1.292,0.0,0.0,0.0,0.0,0.0,0.0,3.6358,3.6358,3.6358,3.6358,3.6358,3.6358,3.6358,3.6358,3.6358,3.6358,3.6358,3.6358,3.6358,3.6358,3.6358,3.6358,3.6358,3.6358,3.6358,3.6634,3.6784,3.6784,3.7337,3.7588,3.7613,3.8165,3.8442,3.8467,3.9019,3.927,3.9295,3.9572,3.9697,3.9697,3.9697,3.9697,3.9697,3.9697,3.8792,3.7477,3.7477,3.5617,3.3077,3.3098,3.2113,3.0898,3.0898,3.0898,3.0898,0.0,0.0,0.0,0.0,0.0,0.0,0.0,0.0,0.0,0.0,0.0,0.0,0.0,0.0,2.6734,2.7971,0.0,3.0043,3.1151,3.2315,3.3105,3.3105,3.3281,3.334,3.3125,3.3301,3.3418,3.3418,3.3418,3.3516,3.373,3.375,3.2728,3.0304,2.9546,2.7956,2.5356,2.1836,1.9458,1.84,1.559,1.3099,1.0978,0.9012,0.6841,0.4781,0.2492,0.1004,0.0,0.0,-0.0673,-0.1849,-0.5365,-0.7368,-0.854,-0.9545,-1.008,-1.0309,-1.1553,-1.2646,-1.3756,0.0,0.0,0.0,0.0,0.0,0.0,3.6452,3.6358,3.6358,3.6358,3.6358,3.6358,3.6358,3.6358,3.6358,3.6358,3.6358,3.6358,3.6358,3.6358,3.6358,3.6358,3.6358,3.6408,3.6508,3.696,3.7236,3.7337,3.7914,3.8165,3.8191,3.8768,3.9019,3.9044,3.9496,3.9697,3.9697,3.9697,3.9697,3.9697,3.9697,3.9697,3.9697,3.9362,3.8348,3.6918,3.6054,3.4403,3.253,3.1652,3.1112,3.0898,3.0898,3.0898,3.0898,3.0898,3.0392,0.0,0.0,0.0,0.0,0.0,0.0,0.0,0.0,2.4841,2.5214,2.7097,2.7604,2.8253,3.0025,3.0622,3.1258,3.2642,3.3203,3.3418,3.3418,3.3418,3.3418,3.3418,3.3418,3.3457,3.3535,3.3555,3.373,3.416,3.3921,3.2353,2.9456,2.92,2.7423,2.3825,2.0441,1.8441,1.8025,1.4042,1.116,0.9447,0.7018,0.4951,0.3147,0.1005,-0.0168,-0.0673,-0.1178,-0.2352,-0.4193,-0.8373,-1.0211,-1.0882,-1.2759,-1.2353,-1.1272,-1.2985,-1.3763,-1.3905,0.0,0.0,0.0,0.0,0.0,0.0,0.0,0.0,3.6358,3.6358,3.6358,3.6358,3.6358,3.6358,3.6358,3.6358,3.6358,3.6358,3.6358,3.6358,3.6358,3.6358,3.6358,3.6584,3.7086,3.7161,3.7412,3.7914,3.8492,3.8768,3.8793,3.9346,3.9597,3.9597,3.9672,3.9697,3.9697,3.9697,3.9697,3.9697,3.9697,3.9697,3.9594,3.8243,3.6811,3.5727,3.6811,3.4626,3.1325,3.2416,3.1977,3.0898,3.0898,3.0898,3.0898,3.0898,2.8801,2.647,2.6106,2.4039,2.2577,2.513,2.4655,2.4794,0.0,2.9195,2.8967,3.0629,3.1315,3.1719,3.239,3.2506,3.2661,3.3281,3.3398,3.3418,3.3418,3.3418,3.3418,3.3418,3.3418,3.3574,3.3965,3.4004,3.418,3.459,3.3142,3.1414,2.9699,2.8084,2.551,2.2001,1.9768,1.776,1.6104,1.1893,0.9801,0.9672,0.5431,0.3483,0.3352,0.1009,-0.1009,-0.3023,-0.503,-0.6032,-0.6536,-0.904,-1.122,-1.3078,-1.3378,-1.3519,-1.3469,-1.3646,-1.3912,-1.4068,0.0,0.0,0.0,0.0,0.0,0.0,0.0,0.0,3.8225,3.7494,3.7402,3.7402,3.7402,3.7402,3.7402,3.7402,3.7402,3.7402,3.7402,3.7402,3.7057,3.6452,3.6358,3.6609,3.7186,3.7487,3.7939,3.8517,3.9069,3.9346,3.9346,3.9597,3.9697,3.9697,3.9697,3.9697,3.9697,3.9697,3.9697,3.9697,3.9697,3.9697,3.9569,3.8031,3.6595,3.5288,3.5046,3.3733,0.0,3.1883,3.1441,3.0898,3.0898,3.0898,3.0762,2.9766,2.8426,2.7434,2.7434,2.5741,2.4286,2.5619,2.5497,2.5317,2.6633,2.643,2.6661,2.8727,2.9332,2.996,3.1373,3.1593,3.203,3.3253,3.3418,3.3418,3.3418,3.3633,3.3809,3.3809,3.4023,3.4141,3.4082,3.4297,3.4197,3.3535,3.2728,3.1116,2.8538,2.7712,2.5528,2.1813,1.9842,1.7798,1.5979,1.1776,0.8968,0.7901,0.4648,0.2508,0.1345,-0.084,-0.3191,-0.5365,-0.7702,-0.854,-0.8874,-1.1048,-1.2612,-1.3539,-1.3607,-1.377,-1.3973,-1.3973,-1.4075,-1.4211,0.0,0.0,0.0,0.0,0.0,0.0,0.0,0.0,0.0,0.0,3.8559,3.8559,3.8559,3.8559,3.8559,3.8559,3.8559,3.8559,3.8559,3.8559,3.8134,3.6896,3.7049,3.7381,3.7942,3.8503,3.9089,3.965,4.0083,4.0083,3.9697,3.9697,3.9697,3.9697,3.9697,3.9697,3.9697,3.9697,3.9697,3.9697,3.9697,3.9697,3.9465,3.7583,3.6271,3.5068,3.362,3.2851,3.2322,3.1228,3.0898,3.0762,3.0392,3.0274,2.9903,2.817,2.7452,2.697,2.647,2.5497,2.4763,2.5253,2.5333,2.5338,2.4733,2.4822,2.5482,2.7133,2.7572,2.824,2.9812,3.0125,3.0513,3.1707,3.1982,3.2019,3.2132,3.2394,3.2637,3.2749,3.3105,3.3254,3.2955,3.3615,3.3688,3.2701,3.1755,3.0062,2.7635,2.6546,2.4459,2.1063,1.9121,1.6756,1.4244,1.0633,0.7749,0.563,0.3512,0.1176,-0.1009,-0.386,-0.57,-0.6871,-0.9711,-1.0549,-1.0211,-1.2395,-1.3492,-1.3634,-1.3675,-1.3844,-1.4075,-1.4122,-1.4204,-1.4299,0.0,0.0,0.0,0.0,0.0,0.0,0.0,0.0,0.0,0.0,3.9826,3.9826,3.9826,3.9826,3.9826,3.9826,3.9826,3.9826,3.9826,3.9826,3.9271,3.8107,3.8569,3.9122,3.9796,4.0403,4.101,4.1492,4.1492,4.0945,3.9697,3.9697,3.9697,3.9697,3.9697,3.9697,3.9697,3.9697,3.9697,3.9697,3.9697,3.9697,3.9362,3.6487,3.5288,3.5068,3.362,3.2207,3.1015,3.0898,3.0898,3.0645,2.9039,2.8426,2.817,2.6591,2.5024,2.345,2.1727,2.1235,2.1601,2.3325,2.3813,2.4417,2.6015,2.6947,2.7473,2.7489,2.7899,2.8163,2.8295,2.8295,2.8295,2.8295,2.8295,2.8428,2.8776,2.8692,2.8824,2.917,2.955,2.9904,2.9887,3.1425,3.2719,3.3116,2.9757,2.7635,2.7505,2.3928,2.1052,1.8906,1.7087,1.4084,1.0029,0.7737,0.5633,0.3523,0.1177,-0.1009,-0.3358,-0.7873,-0.8707,-0.6867,-1.1386,-1.2056,-1.0211,-1.2561,-1.3492,-1.3641,-1.3783,-1.3933,-1.4089,-1.4238,-1.4299,-1.4299,0.0,0.0,0.0,0.0,0.0,0.0,0.0,0.0,0.0,0.0,0.0,0.0,0.0,0.0,0.0,0.0,4.1,4.1,4.1,4.1,4.049,3.936,3.9815,4.0414,4.1131,4.1731,4.2331,4.2834,4.1985,4.1789,4.2181,4.0465,4.0185,4.0945,4.0083,3.9697,3.9697,3.9697,3.9697,3.9594,3.8582,3.8243,3.7902,3.4936,3.3845,3.3642,0.0,3.0587,2.9275,2.9275,2.8545,2.7572,2.6953,2.6832,2.647,2.4901,2.3201,2.2104,2.2591,2.2716,2.2885,2.3717,2.3977,2.3917,2.3826,2.3954,2.417,2.4386,2.3541,2.3161,2.4352,2.4622,2.4935,2.6341,2.7659,2.8508,2.887,2.9133,2.933,2.9445,2.9773,3.0128,3.0128,3.0691,3.0617,2.9472,2.8213,2.6414,2.3792,2.2536,2.0285,1.7127,1.5089,1.2612,0.9988,0.633,0.4011,0.3358,-0.0336,-0.4195,-0.7873,-0.9373,-1.0377,-1.122,-1.2727,-1.2899,-1.2401,-1.3171,-1.3641,-1.3783,-1.3933,-1.4089,-1.4231,-1.4278,-1.4299,-1.4299,0.0,0.0,0.0,0.0,0.0,0.0,0.0,0.0,0.0,0.0,0.0,0.0,0.0,0.0,0.0,0.0,0.0,4.2193,4.2193,4.2427,4.2016,4.0912,4.1611,4.2317,4.2739,4.3357,4.3863,4.4163,4.3409,4.293,4.2834,4.1119,4.0541,4.0945,4.0083,3.9697,3.9697,3.9697,3.9697,3.9569,3.8137,3.7477,3.7133,3.4181,3.2716,0.0,3.0568,2.8564,2.6849,2.8051,2.7692,2.6712,2.5497,2.4763,2.4039,2.2952,2.1978,2.1362,2.2466,2.2716,2.2788,2.3105,2.3263,2.2962,2.175,2.1539,2.1382,2.0995,1.9912,1.9367,2.0653,2.137,2.2138,2.2776,2.4538,2.582,2.6143,2.6505,2.6982,2.7702,2.8059,2.8023,2.7256,2.7215,2.7013,2.6589,2.5884,2.4078,2.1022,2.0184,1.8642,1.6207,1.3322,1.0936,0.8874,0.5198,0.2518,0.1007,-0.2683,-0.6533,-1.0211,-1.0882,-1.2056,-1.3403,-1.3403,-1.3431,-1.3492,-1.3587,-1.3743,-1.3933,-1.4034,-1.4163,-1.4299,-1.4299,-1.4299,-1.4299,0.0,0.0,0.0,0.0,0.0,0.0,0.0,0.0,0.0,0.0,0.0,0.0,0.0,0.0,0.0,0.0,0.0,0.0,4.3329,4.3958,4.3767,4.2707,4.3863,4.4556,4.4644,4.5252,4.5508,4.5508,4.5389,4.4163,4.1887,4.169,4.1019,3.9878,3.98,3.9697,3.9697,3.9697,3.9697,3.9465,3.8031,3.7346,3.6918,3.4069,3.1991,3.0316,2.8865,2.6365,2.4178,2.7211,2.8051,2.7452,2.4425,2.2341,2.1109,2.1109,2.1109,2.1109,2.1109,2.1122,2.1203,2.1496,2.179,2.1541,1.9899,1.9737,1.9495,1.7529,1.7117,1.7188,1.7245,1.902,1.9821,1.803,1.9536,2.0944,2.1349,2.1237,2.208,2.4153,2.4488,2.3722,2.1613,2.1685,2.2421,2.4168,2.2573,2.088,1.8916,1.7226,1.6054,1.5901,1.1959,0.8707,0.6533,0.4193,0.0839,-0.3524,-0.5867,-0.804,-1.0382,-1.2395,-1.3403,-1.3403,-1.3403,-1.3485,-1.3627,-1.3634,-1.381,-1.4075,-1.4082,-1.417,-1.4299,-1.4299,-1.4299,-1.4299,0.0,0.0,0.0,0.0,0.0,0.0,0.0,0.0,0.0,0.0,0.0,0.0,0.0,0.0,0.0,0.0,0.0,0.0,4.3329,4.3958,4.4124,4.3879,4.5154,4.5865,4.5865,4.6488,4.6814,4.6814,4.5869,4.5598,4.5779,4.293,4.1887,4.2447,4.0541,3.9697,3.9697,3.9697,3.9025,3.7902,3.6487,3.5178,3.4069,3.2207,3.0451,2.8865,2.8527,2.7073,2.5375,2.4901,2.4054,2.2827,2.1964,2.1475,2.1109,2.1109,2.1109,2.1109,2.1109,2.1269,2.151,2.1804,2.1009,2.0183,2.0036,1.8894,1.7809,1.7248,1.6254,1.5372,1.5425,1.7135,1.8467,1.8255,2.1108,2.3443,2.3728,2.2411,2.168,2.2347,2.236,2.1672,1.9722,2.0877,2.0891,1.8542,1.9219,1.8926,1.7084,1.6504,1.4807,1.1812,0.9022,0.6533,0.4195,0.0335,-0.3018,-0.5864,-0.8207,-1.0382,-1.2561,-1.3065,-1.3403,-1.3403,-1.3403,-1.3485,-1.3641,-1.3743,-1.3899,-1.4082,-1.4197,-1.4265,-1.4299,-1.4299,-1.4299,-1.4299,0.0,0.0,0.0,0.0,0.0,0.0,0.0,0.0,0.0,0.0,0.0,0.0,0.0,0.0,0.0,0.0,0.0,0.0,0.0,4.5526,4.6082,4.6082,4.741,4.8152,4.8152,4.8026,4.7836,4.7562,4.6636,4.6197,4.5933,4.3554,4.2544,4.2544,4.0541,3.9697,3.9697,3.9025,3.8243,0.0,0.0,3.3374,3.1876,3.0334,2.8307,2.6244,2.6244,2.5253,2.3668,2.2827,2.2341,2.209,2.1362,2.1109,2.1109,2.1109,2.1109,2.1136,2.1269,2.143,2.1514,2.1117,2.0245,1.9187,1.7896,1.6685,1.5698,1.4858,1.3282,1.2108,1.2178,1.3916,1.5117,1.4557,1.7761,2.0385,2.0519,1.9629,1.9208,0.0,2.0395,1.9569,1.7785,1.8671,1.804,1.5077,1.6747,1.6933,1.5039,1.4052,1.2446,1.0211,0.6867,0.3688,0.0503,-0.2013,-0.4863,-0.8207,-0.9373,-1.122,-1.3403,-1.3403,-1.3403,-1.3403,-1.3403,-1.3519,-1.3729,-1.3804,-1.3973,-1.4183,-1.4265,-1.4299,-1.4299,-1.4299,-1.4299,-1.4299,0.0,0.0,0.0,0.0,0.0,0.0,0.0,0.0,0.0,0.0,0.0,0.0,0.0,0.0,0.0,0.0,0.0,0.0,0.0,0.0,4.8189,4.8285,4.9565,5.0301,5.0397,4.9376,4.8531,4.7942,4.7377,4.6167,4.4493,4.3631,4.2641,4.1492,4.0262,3.9569,3.9362,3.8031,3.724,3.6703,3.4181,3.1991,3.0199,0.0,2.6365,2.3574,2.3062,2.2076,2.1096,2.0843,2.1839,2.2952,2.1601,2.1109,2.1109,2.0843,2.1009,2.1089,2.0954,2.1072,2.0992,1.9558,1.9005,1.811,1.5097,1.3998,1.3159,1.1489,0.9697,0.8336,0.844,1.0329,1.1352,0.9965,1.3063,1.5523,1.5837,1.571,1.6247,1.8116,1.8473,1.7639,1.5463,1.5465,1.4761,1.2533,1.398,1.4364,1.3052,1.0882,0.9373,0.9207,0.503,0.0839,-0.3358,-0.3692,-0.5864,-1.0044,-1.0377,-1.1552,-1.3403,-1.3403,-1.3403,-1.3403,-1.3424,-1.3587,-1.3844,-1.3865,-1.4041,-1.4299,-1.4299,-1.4299,-1.4299,-1.4299,-1.4299,-1.4299,0.0,0.0,0.0,0.0,0.0,0.0,0.0,0.0,0.0,0.0,4.7172,4.6173,0.0,0.0,0.0,0.0,0.0,0.0,0.0,0.0,0.0,4.8253,4.9085,4.9789,5.0397,4.9376,4.8779,4.8655,4.6666,4.5541,4.5154,4.2972,4.1789,4.1492,4.0262,3.9025,3.7902,3.7583,3.6031,3.3845,3.3304,3.1321,2.8747,2.8527,0.0,0.0,2.041,2.0131,2.0876,1.9394,2.0055,2.1475,2.1235,2.1109,2.0843,1.9419,2.0234,2.0825,1.7829,1.8406,1.9558,1.7707,1.6351,1.5088,1.4566,1.1994,0.959,0.9264,0.7743,0.6484,0.6564,0.831,1.0218,1.1644,1.3931,1.6072,1.7805,1.6744,1.5949,0.0,1.6425,1.4995,1.1288,1.2437,1.1836,0.8173,0.8173,0.9017,1.0544,0.854,0.6366,0.4528,0.2016,-0.0673,-0.3358,-0.5198,-0.7368,-1.0044,-1.189,-1.3065,-1.3403,-1.3403,-1.3403,-1.341,-1.3532,-1.3688,-1.3851,-1.398,-1.4136,-1.4299,-1.4299,-1.4299,-1.4299,-1.4299,-1.4299,-1.4299,0.0,0.0,0.0,0.0,0.0,0.0,0.0,4.8545,4.9018,4.9018,4.8225,4.7671,4.7671,4.7671,4.7671,0.0,0.0,0.0,0.0,0.0,0.0,4.9783,5.0509,5.1234,5.2026,5.0474,4.9426,4.9126,0.0,4.5902,4.4838,4.3365,4.2279,4.1492,3.9494,3.8137,3.7346,3.5813,3.3892,3.1741,3.0954,2.8728,2.5741,2.4822,0.0,0.0,1.772,1.7708,1.8198,1.7462,1.7731,1.8768,2.0589,2.1109,2.1009,2.0374,2.0115,1.9756,1.8284,1.7977,1.776,1.5942,1.4921,1.3855,1.1851,0.9994,0.8444,0.7378,0.568,0.4391,0.4448,0.5263,0.6386,0.7472,1.0252,1.2574,1.3662,1.3049,1.2554,1.2635,1.1635,1.0303,0.8293,0.9113,0.8801,0.6864,0.5533,0.5867,0.8207,0.6202,0.4027,0.1681,-0.0504,-0.2855,-0.503,-0.7368,-0.9545,-1.1718,-1.2899,-1.3403,-1.3403,-1.3403,-1.3403,-1.341,-1.3559,-1.3709,-1.3851,-1.4007,-1.4163,-1.4299,-1.4299,-1.4299,-1.4299,-1.4299,-1.4299,-1.4299,0.0,0.0,0.0,0.0,0.0,0.0,0.0,4.8335,4.8815,4.8984,4.9018,4.9018,4.9018,4.9018,4.9018,0.0,0.0,0.0,0.0,0.0,0.0,0.0,5.1758,5.2503,5.3484,0.0,0.0,4.9609,4.7768,0.0,0.0,0.0,0.0,0.0,3.9055,3.7583,3.6918,3.4515,3.2219,0.0,0.0,2.6486,2.3311,0.0,0.0,0.0,0.0,1.5394,1.5394,1.5394,1.5524,1.6431,1.9152,1.9941,1.9992,1.9881,1.9066,1.815,1.7895,1.7082,1.5904,1.4257,1.3872,1.2866,0.9419,0.843,0.7456,0.5635,0.3606,0.2285,0.2313,0.2335,0.2506,0.2974,0.5952,0.8154,0.8627,0.8735,0.8842,0.8926,0.7549,0.647,0.6028,0.6032,0.57,0.5365,0.3524,0.3358,0.5198,0.3692,0.168,-0.0673,-0.2352,-0.4695,-0.7372,-0.9207,-1.1214,-1.3403,-1.3403,-1.3403,-1.3403,-1.3403,-1.3403,-1.341,-1.3593,-1.3736,-1.3858,-1.4041,-1.419,-1.4299,-1.4299,-1.4299,-1.4299,-1.4299,-1.4299,-1.4299,0.0,0.0,0.0,0.0,0.0,0.0,0.0,4.7875,4.824,4.8917,4.9018,4.9018,4.9018,4.9018,4.9018,0.0,0.0,0.0,0.0,0.0,0.0,0.0,0.0,0.0,0.0,0.0,0.0,5.0301,4.7126,0.0,0.0,0.0,0.0,0.0,0.0,3.8031,3.5508,3.5178,0.0,0.0,0.0,0.0,0.0,0.0,0.0,0.0,0.0,1.3587,1.3587,1.3587,1.4623,1.5913,1.6302,1.6431,1.6094,1.4609,1.5462,1.6069,1.3006,1.3302,1.4131,1.2316,1.19,1.1319,0.9136,0.7323,0.5487,0.3608,0.1677,0.0309,0.0313,0.0314,0.0941,0.2819,0.3475,0.4293,0.6356,0.664,0.6735,0.6742,0.0,0.5858,0.386,0.3692,0.2855,0.0842,0.0505,0.0337,0.0673,0.0505,-0.0673,-0.3023,-0.3191,-0.5365,-0.9711,-0.9878,-1.1214,-1.3403,-1.3403,-1.3403,-1.3403,-1.3403,-1.3403,-1.3417,-1.3695,-1.3831,-1.3865,-1.4156,-1.4285,-1.4299,-1.4299,-1.4299,-1.4299,-1.4299,-1.4299,-1.4299,0.0,0.0,0.0,0.0,0.0,0.0,4.7642,4.8105,4.8548,4.8944,4.9376,4.9605,4.9605,4.9976,4.9953,4.9046,0.0,0.0,0.0,0.0,0.0,0.0,0.0,0.0,0.0,0.0,5.1303,5.1303,4.9362,0.0,0.0,0.0,0.0,0.0,0.0,3.6402,3.5178,3.3438,0.0,0.0,0.0,0.0,0.0,0.0,0.0,0.0,0.0,0.0,1.163,1.0419,1.1408,1.2837,1.2837,1.2909,1.3402,1.4953,1.5255,1.4778,1.3576,1.2978,1.261,1.1763,1.0743,0.9285,0.7399,0.5427,0.3569,0.1508,0.0612,0.0,0.0,-0.1098,-0.157,-0.0948,-0.0792,-0.0477,0.016,0.0325,0.0984,0.23,0.133,0.0839,0.1345,0.1346,0.0336,-0.1848,-0.2016,-0.2688,-0.4027,-0.2687,-0.252,-0.3357,-0.5867,-0.8207,-1.0044,-1.1386,-1.2561,-1.3403,-1.3403,-1.3403,-1.3403,-1.3403,-1.3403,-1.3417,-1.3709,-1.3838,-1.3865,-1.417,-1.4299,-1.4299,-1.4299,-1.4299,-1.4299,-1.4299,-1.4299,-1.4299,0.0,0.0,0.0,0.0,0.0,4.7421,4.798,4.8305,4.8756,4.9502,5.0033,5.0335,5.0335,5.077,5.0662,4.9722,4.9402,0.0,0.0,0.0,0.0,0.0,0.0,0.0,0.0,0.0,5.225,5.225,5.0671,4.9072,0.0,0.0,4.3714,4.1959,0.0,0.0,0.0,0.0,0.0,0.0,0.0,0.0,0.0,0.0,0.0,0.0,0.0,0.0,0.0,0.0,0.0,0.9307,0.9206,0.9853,1.1074,1.4087,1.419,1.3232,1.3539,1.2602,1.1619,1.1619,1.0155,0.8121,0.6242,0.4268,0.2393,0.0453,0.0,0.0,0.0,-0.1725,-0.3144,-0.334,-0.3984,-0.4319,-0.4529,-0.4581,-0.4121,-0.3294,-0.4487,-0.4519,-0.218,-0.1344,-0.1849,-0.4195,-0.436,-0.503,-0.6536,-0.5867,-0.5365,-0.5365,-0.8373,-1.0377,-1.1048,-1.2561,-1.3403,-1.3403,-1.3403,-1.3403,-1.3403,-1.3403,-1.3403,-1.3417,-1.3709,-1.3838,-1.3865,-1.417,-1.4299,-1.4299,-1.4299,-1.4299,-1.4299,-1.4299,-1.4299,-1.4299,0.0,0.0,0.0,0.0,0.0,0.0,4.8537,4.8225,4.8572,5.0769,5.1086,5.1086,5.1086,5.1086,5.1086,5.1086,5.039,0.0,0.0,0.0,0.0,0.0,0.0,0.0,0.0,0.0,5.3078,5.3078,5.0237,4.881,4.8728,4.5183,4.3504,4.3409,0.0,0.0,0.0,0.0,0.0,0.0,0.0,0.0,1.5654,0.0,0.0,0.0,0.0,0.0,0.0,0.0,0.0,0.0,0.0,0.6894,0.8954,1.0812,1.1389,1.1423,1.1579,1.1619,1.1619,1.1619,1.0155,0.8121,0.6242,0.4297,0.2418,0.0455,0.0,0.0,0.0,-0.1725,-0.3144,-0.334,-0.5142,-0.6499,-0.6578,-0.6652,-0.752,0.0,-0.9803,-0.8971,-0.6815,-0.4681,-0.4363,-0.6536,-0.67,-0.67,-0.67,-0.8707,-0.9878,-0.9878,-1.0044,-1.1214,-1.3403,-1.3403,-1.3403,-1.3403,-1.3403,-1.3403,-1.3403,-1.3403,-1.3403,-1.3417,-1.3709,-1.3838,-1.3865,-1.417,-1.4299,-1.4299,-1.4299,-1.4299,-1.4299,-1.4299,-1.4299,-1.4299,0.0,0.0,0.0,0.0,0.0,0.0,0.0,4.8865,4.9386,5.0165,5.1173,5.179,5.179,5.2242,5.2509,5.2509,5.1444,0.0,0.0,0.0,0.0,0.0,0.0,0.0,0.0,0.0,5.4126,5.4126,5.2736,5.1336,4.9852,4.7821,4.5667,4.3409,4.0689,3.8226,0.0,0.0,0.0,0.0,0.0,1.5654,1.384,0.0,0.0,0.0,0.0,0.0,0.0,0.0,0.0,0.0,0.0,0.0,0.0,0.7356,0.9518,1.1558,1.1606,1.1619,1.1325,1.0011,0.8126,0.6242,0.4213,0.2375,0.0757,0.0151,0.0,-0.0471,-0.188,-0.3912,-0.5824,-0.7541,-0.9522,-1.108,-1.1294,-1.1357,0.0,-1.0024,-0.8685,-0.752,-0.6683,-0.6028,-0.6533,-0.8707,-0.904,-0.9711,-1.122,-1.189,-1.1552,-1.0044,-1.1552,-1.2727,-1.3403,-1.3403,-1.3403,-1.3403,-1.3403,-1.3403,-1.3403,-1.3403,-1.3403,-1.3417,-1.3709,-1.3838,-1.3865,-1.417,-1.4299,-1.4299,-1.4299,-1.4299,-1.4299,-1.4299,-1.5344,-1.6729,0.0,0.0,0.0,0.0,0.0,0.0,0.0,4.9225,4.9974,5.0617,5.1772,5.2509,5.2509,5.2937,5.3272,5.3404,5.2623,0.0,0.0,0.0,0.0,0.0,0.0,0.0,5.6114,5.5667,5.5472,5.5472,5.4068,5.2494,5.0768,4.8773,4.6371,4.3409,4.0611,3.8178,0.0,0.0,0.0,0.0,1.6894,1.4232,1.2923,0.0,0.0,0.0,0.0,0.0,0.0,0.0,0.0,0.0,0.0,0.0,0.0,0.0,0.6966,0.9435,0.9435,0.9435,0.9141,0.7982,0.6098,0.4364,0.3218,0.1341,0.0,0.0,0.0,-0.0628,-0.2662,-0.4849,-0.7091,-0.9347,-1.2282,-1.3689,-1.2351,-1.3549,0.0,-1.2688,-1.0517,-0.9516,-1.0351,-0.8865,-0.8874,-1.1048,-1.2032,-1.3191,-1.4541,-1.4541,-1.4031,-1.2523,-1.3052,-1.3403,-1.3403,-1.3403,-1.3403,-1.3403,-1.3403,-1.3403,-1.3403,-1.3403,-1.3403,-1.3417,-1.3709,-1.3838,0.0,-1.417,-1.4299,-1.4299,-1.4299,-1.4299,-1.4299,-1.4299,-1.5866,-1.7763,0.0,0.0,0.0,0.0,0.0,0.0,0.0,4.935,5.0402,5.1825,5.2711,5.3225,5.323,5.323,5.344,5.3795,0.0,0.0,0.0,0.0,0.0,0.0,0.0,0.0,5.6964,5.6912,5.6912,5.6912,5.4426,5.2673,5.1564,4.8631,4.605,4.3732,4.0984,3.8881,0.0,0.0,0.0,0.0,1.5495,1.3325,0.0,0.0,0.0,0.0,0.0,0.0,0.0,0.0,0.0,0.0,0.0,0.0,0.0,0.0,0.0,0.0,0.0,0.5518,0.5808,0.5663,0.4213,0.2771,0.2512,0.1198,0.0,-0.0461,-0.0156,-0.0785,-0.3132,-0.5006,-0.7248,-0.9827,-1.3539,-1.4784,-1.1003,-1.3844,0.0,0.0,-1.4639,-1.4138,-1.6311,-1.2853,-1.138,-1.3397,-1.5679,-1.6811,-1.6811,-1.6811,-1.6811,-1.6811,-1.4698,-1.3562,-1.3403,-1.3403,-1.3403,-1.3403,-1.3403,-1.3403,-1.3403,-1.3403,-1.3403,-1.3417,-1.3709,-1.3838,-1.3865,-1.417,-1.4299,-1.4299,-1.4299,-1.4299,-1.4299,-1.4476,-1.6034,-1.8104,0.0,0.0,0.0,0.0,0.0,0.0,0.0,0.0,0.0,0.0,5.2711,5.3318,5.3643,5.3644,5.3833,0.0,0.0,0.0,0.0,0.0,0.0,0.0,0.0,0.0,5.769,5.7166,5.6912,5.6912,5.5108,5.3738,5.2673,5.1328,4.9552,4.7256,4.4805,4.0702,0.0,0.0,0.0,0.0,1.6765,1.2898,0.0,0.0,0.0,0.0,0.1234,0.0418,0.0,0.0,0.0,0.0,0.0,0.0,0.0,0.0,0.1021,0.1311,0.1311,0.0,0.5373,0.3923,0.3197,0.2042,0.0,-0.075,-0.0912,-0.4139,-0.2176,-0.1568,-0.6874,-0.7033,-0.8181,-1.3807,-1.4206,-1.4011,-1.4952,-1.4526,0.0,-1.6319,-1.4683,-1.4196,-1.6319,-1.5655,-1.5326,-1.5835,-1.7955,-1.9095,-1.9095,-1.9095,-1.9095,-1.9095,-1.6975,-1.5028,-1.3403,-1.3403,-1.3403,-1.3403,-1.3403,-1.3403,-1.3403,-1.3403,-1.3403,-1.3417,-1.3709,-1.3838,-1.3865,-1.417,-1.4299,-1.4299,-1.4299,-1.4299,-1.4476,-1.6378,-1.8453,-2.0702,0.0,0.0,0.0,0.0,0.0,0.0,0.0,0.0,0.0,0.0,0.0,5.387,5.4083,5.4118,0.0,0.0,0.0,0.0,0.0,0.0,0.0,0.0,0.0,5.7974,5.8632,5.8227,5.8017,5.8017,5.6276,5.5221,5.4719,5.2775,5.0392,4.7577,4.3454,3.8452,0.0,0.0,0.0,2.0493,1.5435,0.0,0.0,0.0,0.0,0.0,0.0697,0.0,0.0,0.0,0.0,0.0,0.0,0.0,0.0,0.0,0.0,-0.0146,-0.102,0.0873,0.291,0.1893,0.1609,0.0737,-0.2386,-0.2267,-0.2295,-0.5563,-0.4517,-0.4224,-0.8594,-0.7656,-0.8185,-1.3829,-1.372,-1.4303,-1.7566,0.0,-1.5311,-1.6483,-1.5514,-1.535,-1.6483,-1.6647,-1.6975,-1.8118,-2.0059,-2.1362,-2.1362,-2.1362,-2.1362,-2.1362,-1.9248,-1.7138,-1.4863,-1.3887,-1.3403,-1.3403,-1.3403,-1.3403,-1.3403,-1.3403,-1.3403,-1.341,-1.3641,-1.3783,-1.3858,-1.53,-1.579,-1.5858,-1.5858,-1.5858,-1.6034,-1.7413,-1.9315,-2.1566,0.0,0.0,0.0,0.0,0.0,0.0,0.0,0.0,0.0,0.0,0.0,0.0,0.0,0.0,0.0,0.0,0.0,0.0,0.0,0.0,0.0,0.0,5.8052,5.899,5.9389,5.9389,5.9389,5.9389,5.7589,5.6769,5.6777,5.3887,5.0594,4.6739,4.1063,3.591,0.0,0.0,2.3871,2.0016,1.3596,0.0,0.0,0.0,0.0,0.0,0.0,0.0,0.0,-0.0145,-0.0438,-0.0875,-0.0583,0.0,0.0,0.0,0.0,0.0,-0.2909,-0.1892,-0.0437,-0.0437,-0.0442,-0.1043,-0.3163,-0.3659,-0.4321,-0.6707,-0.6722,-0.6878,-0.9061,-0.7972,-0.819,-1.2409,-1.3422,-1.48,-1.8388,-1.724,-1.6245,-1.6966,-1.6811,-1.6811,-1.7456,-1.762,-1.8435,-2.0231,-2.2327,-2.362,-2.362,-2.362,-2.362,-2.362,-2.1523,-1.941,-1.762,-1.5193,-1.3728,-1.3403,-1.3403,-1.3403,-1.3403,-1.3728,-1.3887,-1.3901,-1.4055,-1.421,-1.4529,-1.6567,-1.7594,-1.7755,-1.8104,-1.8279,-1.8279,-1.8802,-2.0009,-2.2084,0.0,0.0,0.0,0.0,0.0,0.0,0.0,0.0,0.0,0.0,0.0,0.0,0.0,0.0,0.0,0.0,0.0,0.0,0.0,0.0,0.0,5.8509,5.9001,5.9319,5.9389,5.9389,5.9389,5.9389,5.8458,5.7808,5.7437,5.6269,5.278,4.7441,4.4559,4.0115,3.4227,2.9716,2.428,1.816,1.4327,0.0,0.0,0.0,0.0,0.0,0.0,0.0,0.0,-0.0583,-0.2184,-0.4651,-0.2909,0.0,0.0,0.0,0.0,0.0,-0.5229,-0.3923,-0.2472,-0.2472,-0.2497,-0.3124,-0.5262,-0.5784,-0.6934,-1.0755,-0.875,-0.6878,-0.9061,-0.9061,-0.9907,-1.2675,-1.4716,-1.5599,0.0,0.0,-1.5177,-1.8933,-1.7783,-1.8109,-2.1673,-2.2166,-2.2166,-2.2648,-2.4602,-2.5898,-2.5898,-2.5898,-2.5898,-2.5898,-2.3792,-2.2487,-2.2166,-1.8109,-1.5185,-1.3403,-1.3403,-1.3403,-1.3397,-1.535,-1.6164,-1.6172,-1.6361,-1.6549,-1.656,-1.7245,-1.7594,-1.7929,-1.9836,-2.0702,-2.0875,-2.2955,-2.3824,-2.4508,0.0,0.0,0.0,0.0,0.0,0.0,0.0,0.0,0.0,0.0,0.0,0.0,0.0,0.0,0.0,0.0,0.0,0.0,0.0,0.0,5.9147,6.0137,6.0349,6.039,6.0275,6.0352,6.0428,6.0428,5.9345,5.9014,5.9379,5.6353,5.2995,4.9405,4.4588,4.0037,3.5588,3.1251,2.5141,1.792,0.0,0.0,0.0,0.0,0.0,0.0,0.0,0.0,0.0,0.0,-0.4361,-0.5663,-0.4794,0.0,0.0,0.0,0.0,0.0,-0.711,-0.5981,-0.4548,-0.4551,-0.2968,-0.1956,-0.4105,-0.4614,-0.5745,-0.9987,-0.9371,-0.8283,-0.9216,-0.8439,-0.8185,-0.9482,0.0,-1.622,-1.5342,-1.6172,-1.7147,-1.7955,-1.7302,-1.7783,-2.1039,-2.1362,-2.2338,-2.4761,-2.5898,-2.6386,-2.6386,-2.6386,-2.6386,-2.6386,-2.5409,-2.4271,-2.314,-2.119,-1.8435,-1.5185,-1.5185,-1.4541,-1.3397,-1.5679,-1.6647,-1.6656,-1.7891,-1.7879,-1.7246,-1.9952,-2.0497,-1.9847,-2.2214,-2.3126,-2.3298,-2.4337,-2.5556,-2.6758,0.0,0.0,0.0,0.0,0.0,0.0,0.0,0.0,0.0,0.0,0.0,0.0,0.0,0.0,0.0,0.0,0.0,0.0,0.0,0.0,6.0133,6.125,6.1334,6.1257,6.1057,6.1232,6.1309,6.1309,6.0246,6.0085,6.0834,5.6426,5.345,5.1422,4.5025,4.0402,3.7073,3.2839,2.6151,1.785,0.0,0.0,0.0,0.0,0.0,0.0,0.0,0.0,0.0,0.0,0.0,0.0,0.0,0.0,0.0,-0.7115,-0.7115,-0.7548,-0.8997,-0.8052,-0.6658,-0.6537,-0.4357,-0.2284,-0.2919,-0.388,-0.5315,-0.8123,-0.875,-0.875,-0.875,-0.7361,0.0,-0.7902,-1.2372,-1.5942,-1.6458,-1.8118,-1.8923,-1.8272,-1.762,-1.8435,-2.12,-2.1362,-2.282,-2.6228,-2.6386,-2.6386,-2.6386,-2.6386,-2.6386,-2.6386,-2.6386,-2.5581,-2.3952,-2.3952,-2.1673,-1.7302,-1.7302,-1.6164,-1.421,-1.6975,-1.7783,-1.7465,-1.9745,-1.9865,-1.8753,-2.2411,-2.2999,-2.1927,-2.4515,-2.5495,-2.5556,-2.5556,-2.6588,-2.8136,0.0,0.0,0.0,0.0,0.0,0.0,0.0,0.0,0.0,0.0,0.0,0.0,0.0,0.0,0.0,0.0,0.0,0.0,0.0,0.0,6.1201,6.1292,6.1428,6.1427,6.1279,6.1292,6.1292,6.1292,6.1214,6.0987,6.0541,5.7752,5.5284,5.2881,4.8263,4.41,4.0192,3.4949,2.6784,1.7391,1.4281,0.0,0.0,0.0,0.0,0.0,0.0,0.0,0.0,0.0,0.0,0.0,0.0,0.0,-1.1181,-1.1181,-1.1181,-1.1181,-1.1325,-1.0111,-0.875,-0.8706,-0.8658,-0.7663,-0.3997,-0.62,-0.8439,-0.6878,-0.6566,-0.6566,-0.6566,-0.6466,-0.7815,-1.1961,-1.3024,-1.4275,-1.6286,-1.6811,-1.8272,-2.2166,-2.0878,-2.1362,-2.5568,-2.5898,-2.6056,-2.6386,-2.6386,-2.6386,-2.6386,-2.6386,-2.6386,-2.6386,-2.6386,-2.6386,-2.6228,-2.6228,-2.3952,-1.9582,-1.9582,-1.8444,-1.6483,-2.0705,-2.1523,-1.9745,-2.2006,-2.2959,-2.3016,-2.3377,-2.368,-2.4135,-2.653,-2.7729,-2.7968,-2.7968,-2.7968,-2.8136,0.0,0.0,0.0,0.0,0.0,0.0,0.0,0.0,0.0,0.0,0.0,0.0,0.0,0.0,0.0,0.0,0.0,0.0,0.0,6.0801,6.1319,6.1316,6.1367,6.1367,6.1313,6.1477,6.1568,6.1568,6.149,6.1127,6.0561,5.9072,5.7299,5.5088,4.9149,4.5221,4.2444,3.2444,2.4126,1.6874,0.8098,-0.0265,0.0,0.0,0.0,0.0,0.0,0.0,0.0,0.0,-1.1299,-1.1476,-1.0743,-1.1031,-1.1619,-1.1619,-1.1619,-1.164,-1.1728,-1.0375,-0.8855,-0.9116,-0.9229,-0.8225,-0.4042,-0.4366,-0.5627,-0.6254,-0.6254,-0.703,-0.965,-0.9075,-0.9306,-1.2266,-1.2901,-1.3857,-1.6129,-1.658,-1.7783,-2.0716,-2.0393,-2.1039,-2.4111,-2.4271,-2.492,-2.6228,-2.6386,-2.6386,-2.6386,-2.6386,-2.6386,-2.6386,-2.6386,-2.6386,-2.6386,-2.6386,-2.5581,-2.3952,-2.2499,-2.0705,-1.877,-2.1684,-2.2648,-2.2006,-2.4271,-2.4332,-2.3293,-2.4938,-2.4963,-2.4022,-2.6708,-2.7883,-2.8136,-2.8136,-2.8136,-2.8136,0.0,0.0,0.0,0.0,0.0,0.0,0.0,0.0,0.0,0.0,0.0,0.0,0.0,0.0,0.0,0.0,0.0,0.0,6.0449,6.0995,6.1286,6.1283,6.1306,6.1306,6.1306,6.1461,6.1576,6.1577,6.1521,6.1201,6.0633,5.9862,5.8736,5.707,5.1362,4.6559,4.1922,3.1996,2.2976,1.4187,0.2671,-0.527,0.0,0.0,0.0,0.0,0.0,0.0,0.0,0.0,-1.4682,-1.4656,-1.2316,-1.2452,-1.3286,-1.2602,-1.2043,-1.1791,-1.251,-1.1334,-0.9822,-0.933,-0.929,-0.8279,-0.4066,-0.3599,-0.4381,-0.5162,-0.641,-0.7963,-1.0114,-0.9821,-1.0186,-1.2337,-1.282,-1.4098,-1.6994,-1.7503,-1.876,-2.1684,-2.1362,-2.1684,-2.3952,-2.4111,-2.4761,-2.6228,-2.6386,-2.6386,-2.6386,-2.6386,-2.6386,-2.6386,-2.6386,-2.6386,-2.6386,-2.6386,-2.6386,-2.6386,-2.492,-2.298,-2.1039,-2.314,-2.3792,-2.314,-2.5409,-2.5568,-2.4295,-2.5948,-2.5918,-2.4901,-2.6961,-2.7829,-2.8184,-2.8923,-2.9286,-2.9286,0.0,0.0,0.0,0.0,0.0,0.0,0.0,0.0,0.0,0.0,0.0,0.0,0.0,0.0,0.0,0.0,0.0,0.0,6.1458,6.1381,6.1304,6.1304,6.1304,6.1304,6.1304,6.1304,6.1292,6.1277,6.1417,6.1252,6.0811,6.0056,5.9351,5.8557,5.5591,4.8528,3.8614,3.4706,2.4055,0.8986,-0.114,-0.8886,-1.5278,0.0,0.0,0.0,0.0,0.0,0.0,0.0,-1.809,-2.117,-1.3973,-1.4248,-1.6857,-1.4973,-1.3167,-1.2223,-1.4244,-1.3405,-1.1639,-0.9786,-0.929,-0.8279,-0.4066,-0.4693,-0.563,-0.3599,-0.6407,-0.875,-0.6722,-0.7972,-1.0197,-1.2384,-1.2958,-1.4669,-1.9045,-1.9765,-2.1523,-2.5898,-2.4442,-2.3952,-2.6228,-2.6386,-2.6386,-2.6386,-2.6386,-2.6386,-2.6386,-2.6386,-2.6386,-2.6386,-2.6386,-2.6386,-2.6386,-2.6386,-2.6386,-2.6386,-2.6386,-2.5251,-2.314,-2.5409,-2.5251,-2.33,-2.5409,-2.6386,-2.6386,-2.6386,-2.656,-2.6881,-2.7455,-2.7696,-2.8054,-3.0461,-3.1392,-3.1722,0.0,0.0,0.0,0.0,0.0,0.0,0.0,0.0,0.0,0.0,0.0,0.0,0.0,0.0,0.0,0.0,0.0,0.0,6.1135,6.1112,6.105,6.0935,6.0935,6.0935,6.0935,6.0935,6.1065,6.1311,6.0997,6.0804,6.0654,6.0507,5.9852,5.8615,5.6515,5.3715,4.9469,3.4184,2.1831,1.0994,-0.8594,-2.1502,-2.9691,0.0,0.0,0.0,0.0,0.0,0.0,0.0,0.0,0.0,-1.9965,-1.9965,-2.0773,-2.0251,-1.9969,-1.9878,-2.0568,-1.643,-1.221,-1.328,-0.9121,-0.4691,-0.3443,-0.4693,-0.6566,-0.7345,-0.7345,-0.843,-1.2132,-1.091,-1.0624,-1.4075,-1.361,-1.4388,-1.8986,-1.9682,-2.1337,-2.5872,-2.5898,-2.574,-2.6386,-2.7605,-2.7919,-2.6544,-2.7762,-2.7919,-2.6544,-2.6386,-2.6386,-2.6386,-2.6386,-2.6386,-2.6386,-2.6386,-2.6386,-2.6386,-2.6386,-2.6056,-2.5409,-2.607,-2.6056,-2.5409,-2.607,-2.6386,-2.6386,-2.6386,-2.656,-2.6841,-2.7014,-2.8163,-2.9659,-3.078,-3.2027,-3.3339,0.0,0.0,0.0,0.0,0.0,0.0,0.0,0.0,0.0,0.0,0.0,0.0,0.0,0.0,0.0,0.0,0.0,0.0,0.0,6.0529,6.0332,6.0255,6.0217,6.0122,5.9794,5.9488,5.9425,5.9614,6.0189,6.0387,6.0197,6.0011,5.9138,5.7759,5.7988,5.5392,4.9583,2.982,1.6345,0.6056,-2.0506,-3.3538,-3.7717,0.0,0.0,0.0,0.0,0.0,0.0,0.0,0.0,0.0,-2.5197,-2.4525,-2.4137,-2.1132,-2.1083,-2.1368,-1.8449,-1.5492,0.0,-1.1987,-0.8688,-0.5315,-0.4537,-0.4693,-0.5162,-0.563,-0.6722,-0.843,-1.1361,-1.1225,-1.1399,-1.3861,-1.3396,-1.4027,-1.7641,-1.9115,-2.109,-2.4723,-2.5898,-2.6386,-2.6386,-2.7462,-2.8076,-2.7605,-2.8686,-2.8827,-2.7605,-2.7605,-2.7148,-2.6386,-2.6386,-2.6386,-2.6386,-2.6386,-2.6386,-2.6386,-2.6386,-2.6386,-2.6386,-2.6386,-2.6386,-2.6386,-2.6386,-2.6386,-2.6386,-2.6386,-2.6955,-2.7741,-2.7081,-2.8645,-3.1368,-3.1869,-3.3354,-3.5429,0.0,0.0,0.0,0.0,0.0,0.0,0.0,0.0,0.0,0.0,0.0,0.0,0.0,0.0,0.0,0.0,0.0,0.0,0.0,0.0,5.9389,5.9389,5.9354,5.8989,5.8303,5.7537,5.7116,5.7116,5.9064,5.9839,5.9395,5.89,5.7818,5.6511,5.9468,5.5076,4.4143,2.4296,0.8945,-0.4622,-3.4251,-4.4331,-4.2333,-4.9888,0.0,0.0,0.0,0.0,0.0,0.0,0.0,0.0,-3.0153,-2.8401,-2.7589,-2.0539,-1.9865,-1.9899,-1.2875,-1.3401,-1.4525,-0.8847,-0.8114,0.0,-0.6722,-0.4693,-0.2662,-0.0941,-0.5006,-0.8439,-0.6878,-0.9687,-1.2347,-1.2501,-1.2617,-1.354,-1.5889,-1.8135,-2.0581,-2.275,-2.5066,-2.6386,-2.6386,-2.6544,-2.7462,-2.9293,-2.9604,-2.9743,-2.9743,-2.9743,-2.8842,-2.6689,-2.6689,-2.6544,-2.6386,-2.6386,-2.6386,-2.6386,-2.6386,-2.6544,-2.6702,-2.6544,-2.6386,-2.6386,-2.6544,-2.6689,-2.6689,-2.6689,-2.7919,-2.9479,-2.7769,-2.9582,-3.3171,-3.3709,-3.5314,-3.7696,0.0,0.0,0.0,0.0,0.0,0.0,0.0,0.0,0.0,0.0,0.0,0.0,0.0,0.0,0.0,0.0,0.0,0.0,0.0,0.0,5.9389,5.9389,5.884,5.846,5.8303,5.7537,5.7116,5.7116,5.7839,5.8147,5.8002,5.8036,5.7632,5.7097,5.8674,5.8284,5.4842,3.0022,0.5148,-1.9192,-3.8448,-5.0215,-5.6149,-5.5945,-5.5825,0.0,0.0,0.0,0.0,0.0,0.0,0.0,-3.6772,-3.5685,-3.5024,-3.1414,-2.9911,-2.9088,-2.7771,-2.3758,0.0,-1.6505,-1.0037,-0.4849,-0.5942,-0.4693,-0.3443,-0.4693,-0.4693,-0.5315,-0.8283,-0.9527,-1.0624,-1.2192,-1.2528,-1.3368,-1.5696,-1.8065,-2.0326,-2.2642,-2.4952,-2.6386,-2.6386,-2.7762,-2.8983,-2.9449,-3.0977,-3.1896,-3.1896,-3.1896,-3.0823,-2.8827,-2.8671,-2.8076,-2.6386,-2.6386,-2.6386,-2.6386,-2.6386,-2.7148,-2.8686,-2.7148,-2.6386,-2.6544,-2.8076,-2.8671,-2.8671,-2.8671,-2.9898,-3.159,-2.9679,-3.1379,-3.4928,-3.5486,-3.6934,-3.8951,0.0,0.0,0.0,0.0,0.0,0.0,0.0,0.0,0.0,0.0,0.0,0.0,0.0,0.0,0.0,0.0,0.0,0.0,0.0,0.0,5.8716,5.8716,5.7647,5.7061,5.7061,5.5991,5.5355,5.5355,5.5919,5.6168,5.6299,5.6091,5.5369,5.4386,5.6953,5.7888,5.5708,2.6803,0.0845,-2.2758,-4.4488,-5.656,-6.142,-6.0792,-6.047,-6.0049,-5.7846,0.0,0.0,0.0,0.0,0.0,0.0,0.0,-4.1299,-3.661,-3.6859,-3.6972,-2.9795,-2.697,0.0,-1.9658,0.0,-0.9026,-0.9186,-0.7644,-0.6095,-0.6254,-0.6254,-0.6718,-0.9061,-1.0153,-1.125,-1.2347,-1.2501,-1.3014,-1.4251,-1.6442,-1.8681,-2.1129,-2.3464,-2.5251,-2.6228,-2.7305,-2.8374,-2.9293,-3.1284,-3.2505,-3.2505,-3.3398,-3.2944,-3.0977,-3.0823,-3.0361,-2.9293,-2.9293,-2.8842,-2.7762,-2.7762,-2.8374,-2.9449,-2.9293,-2.8842,-2.7919,-3.0053,-3.0361,-2.9449,-3.0515,-3.2032,-3.37,-3.1727,-3.3398,-3.7051,-3.7201,-3.804,-3.9554,0.0,0.0,0.0,0.0,0.0,0.0,0.0,0.0,0.0,0.0,0.0,0.0,0.0,0.0,0.0,0.0,0.0,0.0,0.0,0.0,0.0,5.7594,5.6277,5.5402,5.525,5.3909,5.3179,5.3179,5.3844,5.4143,5.4286,5.4054,5.2752,5.0718,5.4637,5.4036,4.7958,1.6341,-0.7803,-2.6773,-5.086,-6.1267,-6.254,-6.375,-6.3471,-6.2205,-6.0711,-5.96,-5.8743,-5.7798,0.0,0.0,0.0,0.0,-4.6799,-4.0533,-4.2106,-4.3153,-3.032,-2.8905,-2.921,-2.1467,-1.7483,0.0,-1.38,-1.1664,-0.9516,-0.8114,-0.8745,-0.9376,-0.9376,-1.1095,-1.2501,-1.2501,-1.2501,-1.2852,-1.3581,-1.5763,-1.8131,-2.0863,-2.3186,-2.5148,-2.6833,-2.6847,-2.7619,-2.9293,-3.1284,-3.2657,-3.2944,-3.4918,-3.505,-3.3095,-3.2944,-3.2792,-3.2505,-3.2505,-3.159,-2.9898,-3.0361,-3.05,-3.05,-3.2641,-3.2184,-3.0053,-3.2184,-3.2032,-3.0654,-3.2337,-3.4151,-3.5812,-3.385,-3.5235,-3.8555,-3.8813,-3.907,-4.0091,0.0,0.0,0.0,0.0,0.0,0.0,0.0,0.0,0.0,0.0,0.0,0.0,0.0,0.0,0.0,0.0,0.0,0.0,0.0,0.0,0.0,5.6059,5.5203,5.4316,5.3474,5.253,5.2065,5.2065,5.2175,5.2152,5.1902,5.3328,5.2172,4.8954,5.1728,4.4259,2.7504,-0.4186,-2.8666,-4.707,-5.5588,-6.0338,-6.2433,-6.2629,-6.2557,-6.236,-6.214,-6.1334,-6.0314,-5.96,-5.8284,0.0,0.0,0.0,-5.213,-4.824,-4.6929,-4.6288,-4.3822,0.0,-2.9766,0.0,-1.95,-1.5759,0.0,0.0,-1.2427,-1.3984,-1.1683,-0.9376,-0.9376,-1.1095,-1.2501,-1.2501,-1.2501,-1.3707,-1.7142,-1.9605,-2.2724,-2.6786,-2.9305,-3.0174,-2.9109,-2.8983,-2.9138,-2.9449,-3.1284,-3.3247,-3.505,-3.7032,-3.7198,-3.5199,-3.505,-3.4301,-3.2505,-3.2505,-3.2353,-3.2048,-3.385,-3.4751,-3.4751,-3.6885,-3.5682,-3.2201,-3.4151,-3.49,-3.4751,-3.505,-3.6275,-3.7951,-3.5961,-3.6571,-3.8846,-4.033,-4.0942,-4.1352,0.0,0.0,0.0,0.0,0.0,0.0,0.0,0.0,0.0,0.0,0.0,0.0,0.0,0.0,0.0,0.0,0.0,0.0,0.0,0.0,0.0,5.5724,5.4433,5.3543,5.3078,5.1789,5.108,5.108,5.108,5.1019,0.0,5.0195,4.8766,4.6974,4.6827,3.4706,1.3091,-0.9359,-3.0953,-5.0203,-5.1443,-5.4224,-5.7955,-6.0182,-6.045,-6.0012,-6.2785,-6.3147,-6.2352,-6.2538,-6.1628,-6.0261,-5.9188,0.0,0.0,0.0,-5.6596,-5.6176,-5.1942,-4.483,-3.7876,0.0,-2.939,-2.503,-2.5982,-2.1654,-1.798,-2.0065,-1.812,-1.5142,-1.1695,-1.1876,-1.2501,-1.2501,-1.4291,-1.6366,-1.814,-2.1302,-2.4565,-2.8074,-2.9333,-3.0338,-3.1083,-3.2103,-3.2642,-3.2642,-3.461,-3.6128,-3.7029,-3.8059,-3.8117,-3.7345,-3.7198,-3.6737,-3.5979,-3.5997,-3.5366,-3.4151,-3.6165,-3.6478,-3.5646,-3.8747,-3.8563,-3.5833,-3.7943,-3.8088,-3.7175,-3.9369,-4.0289,-4.0085,-4.0269,-4.0838,-4.189,-4.3658,-4.3796,-4.3309,0.0,0.0,0.0,0.0,0.0,0.0,0.0,0.0,0.0,0.0,0.0,0.0,0.0,0.0,0.0,0.0,0.0,0.0,0.0,0.0,0.0,5.4774,5.3508,5.2568,5.2014,5.0682,5.0009,5.0009,5.02,0.0,4.9604,4.7085,4.4952,0.0,4.2486,2.8149,0.3266,-1.3787,-3.1635,-4.8291,-4.6305,-4.8218,-5.2811,-5.5738,-5.6377,-5.626,-6.1026,-6.2689,-6.2865,-6.4109,-6.3861,-6.3207,-6.406,-6.4466,0.0,0.0,0.0,-6.4067,0.0,0.0,-4.6733,-4.3727,-3.8953,-3.4583,0.0,0.0,-2.434,-2.4856,-2.3439,-2.0809,-1.6375,-1.4742,-1.3699,-1.2649,-1.5776,-1.8731,-1.9756,-2.342,-2.7115,-3.0306,-3.0727,-3.1397,-3.3045,-3.4478,-3.528,-3.5244,-3.7061,-3.857,-3.8962,-3.9573,-3.9818,-3.9261,-3.9261,-3.9136,-3.8574,-3.8574,-3.7805,-3.6275,-3.8214,-3.8359,-3.7104,-4.0917,-4.2,-4.1032,-4.1242,-4.0696,-4.0024,-4.2944,-4.352,-4.2783,-4.3658,-4.4573,-4.5453,-4.6485,-4.6485,-4.6414,0.0,0.0,0.0,0.0,0.0,0.0,0.0,0.0,0.0,0.0,0.0,0.0,0.0,0.0,5.6632,5.5836,0.0,0.0,0.0,0.0,0.0,5.2175,5.2032,0.0,4.9054,4.8891,4.8891,4.8891,4.9543,0.0,4.6627,4.5328,4.1533,3.5905,4.0388,2.6616,-0.1179,0.0,0.0,0.0,0.0,-4.4662,0.0,-4.8521,-4.9409,-5.1214,-5.5294,-5.8221,-6.0443,-6.271,-6.4062,-6.4896,-6.5568,-6.6453,-6.717,0.0,0.0,0.0,0.0,-5.7836,0.0,-4.7956,-4.4479,-4.1163,0.0,-3.3114,-3.0652,-2.7733,-2.5608,-2.4117,-2.3692,-2.0626,-1.6812,-1.3098,-1.5776,-1.9756,-2.34,-2.7335,-3.1559,-3.6284,-3.6862,-3.6455,-3.5425,-3.5497,-3.5425,-3.5244,-3.7061,-3.9106,-4.0751,-4.274,-4.301,-4.1205,-4.1205,-4.0371,-3.8574,-3.8574,-3.8574,-3.8428,-4.0208,-4.1042,-4.1184,-4.4686,-4.7064,-4.8417,-4.3432,-4.229,-4.3818,-4.3978,-4.4936,-4.6139,-4.471,-4.5896,-4.8377,-4.7185,-4.8724,-5.1249,0.0,0.0,0.0,0.0,0.0,0.0,0.0,0.0,0.0,0.0,0.0,0.0,0.0,5.6421,5.5836,5.5024,5.3676,0.0,0.0,0.0,0.0,5.1921,5.1303,5.0242,4.8841,4.8157,4.7849,4.7849,4.6577,4.5759,4.5219,4.0351,3.7929,3.8043,4.0934,2.6613,-0.1449,-2.387,0.0,0.0,0.0,0.0,0.0,0.0,0.0,0.0,0.0,0.0,0.0,-5.9965,-6.2247,-6.4726,-6.5638,-6.6696,-6.7809,-6.8562,-6.8373,0.0,0.0,0.0,0.0,-5.8962,-5.4246,-4.9739,-4.7823,-4.2959,-3.893,-3.8998,-3.593,-3.2757,-3.1388,-2.6226,-2.165,-2.034,-2.3387,-2.643,-2.7748,-3.1408,-3.4583,-3.6677,-3.7129,-3.7236,-3.7036,-4.0386,-4.25,-4.2413,-4.4256,-4.5535,-4.6224,-4.4936,-4.3841,-4.3149,-4.3127,-4.2731,-4.2171,-4.2171,-4.2644,-4.3755,-4.5518,-4.6248,-4.6238,-4.8604,-5.0101,-5.0628,-4.8679,-4.8293,-4.8882,-4.916,-4.9366,-4.9824,-5.0481,-5.138,-5.2311,-5.183,-5.2444,-5.3413,0.0,0.0,0.0,0.0,0.0,0.0,0.0,0.0,0.0,0.0,0.0,0.0,0.0,0.0,5.5024,5.4328,5.2805,5.2241,5.2939,5.1993,5.1229,5.093,4.9836,4.8717,4.7698,4.655,4.6077,4.6077,4.4343,4.2558,4.0768,3.5302,3.308,3.363,3.068,1.891,0.0,0.0,0.0,-3.5648,0.0,0.0,-3.938,0.0,0.0,0.0,0.0,0.0,0.0,0.0,-5.9501,-6.2621,-6.468,-6.6912,-6.8961,0.0,0.0,0.0,-6.9404,0.0,0.0,0.0,-6.1958,-5.7719,-5.5399,-5.0645,-4.6559,-4.6206,-4.3214,-4.0085,-3.8784,-3.3707,-2.8569,-2.4829,-2.7605,-3.0078,-3.0078,-3.3477,-3.6542,-3.8106,-3.8651,-3.9612,-4.107,-4.492,-4.7467,-4.8139,-4.9368,-5.033,-5.0909,-4.8256,-4.6217,-4.505,-4.439,-4.4116,-4.4116,-4.4573,-4.543,-4.6513,-4.8882,-4.9975,-4.9796,-5.2177,-5.325,-5.337,-5.3764,-5.3407,-5.2581,-5.2742,-5.2958,-5.3397,-5.4094,-5.5094,-5.5907,-5.5215,-5.5503,-5.6022,0.0,0.0,0.0,0.0,0.0,0.0,0.0,0.0,0.0,5.6964,0.0,0.0,0.0,0.0,0.0,5.3551,5.2454,5.1849,5.1849,5.0855,4.9852,4.881,4.7576,4.646,4.5389,4.4163,4.3504,4.3409,4.2865,3.9233,3.286,3.0616,2.7052,2.2025,0.9394,0.3351,0.1341,0.0,-3.1037,-3.3078,0.0,-3.5211,-3.7843,0.0,0.0,0.0,-4.3854,-4.7587,0.0,-5.3758,0.0,0.0,0.0,0.0,0.0,0.0,0.0,0.0,0.0,0.0,0.0,0.0,-6.6822,-6.4498,-5.7893,-5.5455,-5.3304,-4.8763,-4.6757,-4.5851,-4.5876,-4.3184,-3.7598,-2.6727,-2.8002,-3.036,-3.0343,-3.3615,-3.7388,-4.0998,-4.2096,-4.3961,-4.7583,-4.8636,-4.9745,-5.1566,-5.1716,-5.2554,-5.4386,-5.2944,-5.0535,-4.7197,-4.5298,-4.4368,-4.4368,-4.5919,-4.6753,-4.6885,-5.0201,-5.1838,-5.196,-5.5275,-5.682,-5.6933,-5.8308,-5.7289,-5.4623,-5.4623,-5.5415,-5.6707,-5.5182,-5.6508,-5.8931,-5.712,-5.7651,-5.9362,0.0,0.0,0.0,0.0,0.0,0.0,5.8141,5.7611,5.7116,0.0,0.0,0.0,0.0,0.0,5.3416,5.2454,5.141,5.0779,5.0779,4.8979,4.8193,4.8728,4.7576,4.646,4.5389,4.3995,4.2876,4.1941,3.6758,3.3267,3.129,2.6697,2.3871,2.1938,0.9366,-0.3361,-1.5834,-2.3882,0.0,-2.9942,-3.3677,-3.4178,0.0,0.0,0.0,0.0,0.0,-4.5418,-4.8236,0.0,-5.2384,-5.7682,0.0,0.0,0.0,0.0,0.0,0.0,-7.1481,0.0,0.0,0.0,0.0,0.0,-6.4744,-6.2391,-6.0164,-5.8595,-5.5534,-5.3044,-5.2674,-4.9435,-4.5845,-4.2798,-3.7824,-3.5239,-3.7522,-3.6743,-3.7565,-4.1798,-4.3247,-4.5174,-4.8386,-5.1882,-5.3757,-5.3353,-5.4608,-5.5475,-5.6022,-5.4623,-5.3281,-5.2375,-5.183,-5.1557,-5.1557,-5.205,-5.2729,-5.3901,-5.4809,-5.6363,-5.8405,-5.941,-6.031,-6.1333,-6.1602,-6.1371,-6.0496,-5.9334,-5.9289,-5.9923,-6.0455,-6.0517,-6.0506,-6.0936,-6.1502,-6.1927,0.0,0.0,0.0,0.0,0.0,5.8074,5.8344,5.7794,5.7116,0.0,0.0,0.0,0.0,0.0,5.2557,5.1921,5.055,4.9504,4.901,4.7237,4.6402,4.6606,4.48,4.3509,4.289,4.0227,3.8534,3.7758,3.1828,2.8253,2.6627,2.2794,1.825,1.2806,0.5418,0.0,0.0,0.0,0.0,0.0,-3.3552,0.0,0.0,-3.744,-3.8562,0.0,0.0,0.0,-4.7612,-4.7105,-5.1393,0.0,0.0,0.0,0.0,0.0,0.0,0.0,0.0,0.0,0.0,0.0,0.0,0.0,-6.8294,-6.6266,-6.4245,-6.3428,-6.0617,-5.8264,-5.7915,-5.4792,-5.2702,-5.4101,-4.7731,-4.2998,-4.4175,-4.2705,-4.2975,-4.6874,-4.8532,-5.0562,-5.3633,-5.6912,-5.8534,-5.7764,-5.8757,-5.88,-5.7599,-5.6676,-5.5678,-5.4386,-5.4386,-5.4386,-5.4386,-5.5591,-5.6676,-5.7599,-5.9123,-6.0749,-6.2427,-6.2779,-6.3404,-6.4203,-6.4774,-6.4751,-6.44,-6.4341,-6.3437,-6.1896,-6.2682,-6.278,-6.2556,-6.3909,-6.4034,-6.3817,0.0,0.0,5.8275,5.8644,5.8673,5.8424,5.796,5.7821,5.718,0.0,5.5495,5.4939,0.0,0.0,0.0,0.0,4.9821,4.8171,4.6778,4.5752,4.4627,4.3258,4.0811,3.9243,3.891,3.4843,3.2538,3.1953,2.7678,2.3873,2.0539,1.8309,1.1018,-0.0,-0.1153,0.0,0.0,0.0,0.0,-3.3203,-3.3717,-3.5335,0.0,0.0,-3.854,-4.1854,-4.0889,-4.4028,-4.8439,-4.7577,-5.1783,0.0,0.0,0.0,0.0,0.0,-6.9699,0.0,0.0,0.0,0.0,0.0,-7.1169,0.0,-6.9663,-6.8157,-6.6662,-6.5316,-6.3555,-6.2292,-6.2182,-5.9766,-5.8694,-6.1571,-5.7149,-5.2604,-5.0162,-4.9565,-5.0521,-5.3862,-5.546,-5.7617,-6.0796,-6.2362,-6.3196,-6.3004,-6.3004,-6.1901,-5.932,-5.9214,-5.8031,-5.5475,-5.5359,-5.5359,-5.5359,-5.7921,-5.9214,-5.9214,-6.2683,-6.4464,-6.4674,-6.5564,-6.6079,-6.6276,-6.7403,-6.7497,-6.68,-6.8842,-6.7193,-6.3417,-6.3667,-6.4119,-6.4906,-6.6237,-6.5952,-6.5459,0.0,0.0,5.8609,5.8676,5.8375,5.7877,5.7216,5.658,5.5836,5.4939,5.4264,0.0,0.0,0.0,0.0,0.0,4.9054,4.7951,4.5781,4.4507,4.3231,4.1817,4.0259,3.8191,3.5634,3.3593,3.0769,2.7033,2.2483,1.9652,1.8161,1.0473,0.4323,-0.0434,-0.8663,-1.6141,0.0,0.0,0.0,-3.3454,-3.6109,0.0,-3.2631,-3.6374,-3.7374,-3.7242,-3.9686,-4.2188,-4.4617,-4.7511,-5.0596,-5.4162,0.0,0.0,0.0,-6.7037,0.0,0.0,0.0,0.0,0.0,0.0,-7.0998,0.0,-7.1205,-7.0714,-7.0176,-6.9727,-6.8616,-6.7619,-6.7187,-6.6015,-6.5334,-6.5979,-6.4512,-6.1155,-5.4977,-5.1894,-5.1495,-5.5033,-5.6707,-5.8908,-6.2012,-6.3686,-6.4105,-6.31,-6.3004,-6.2779,-6.2228,-6.213,-6.1901,-6.1371,-6.127,-6.127,-6.127,-6.1901,-6.213,-6.2228,-6.3654,-6.4972,-6.5935,-6.6885,-6.7892,-6.8919,-6.9208,-6.9243,-6.9098,-6.953,-6.8093,-6.5832,-6.7669,-6.7877,-6.7202,-6.8513,-6.8916,-6.8807,0.0,5.8206,5.8332,5.8332,5.784,5.7351,5.6964,5.6204,5.5437,0.0,0.0,0.0,0.0,0.0,0.0,0.0,0.0,4.5364,4.3598,4.2242,4.0811,3.9473,3.653,3.4318,3.27,2.8811,2.5638,2.3305,1.8781,1.6466,1.5836,0.6402,0.0578,-0.2313,-1.1429,-1.8012,-2.2766,0.0,-2.9086,-3.3426,-3.5067,0.0,-3.3532,-3.5191,-3.6252,-3.7014,-3.7918,-4.0151,-4.3339,-4.6826,-5.0388,0.0,-5.7004,-6.0693,-6.4175,0.0,-6.6515,-6.7089,0.0,0.0,0.0,-6.9865,-7.0382,0.0,0.0,-7.0915,-7.0757,-7.0687,-6.9915,-6.9206,-6.8938,-6.8641,-6.8387,-6.8387,-6.8073,-6.6584,-6.2897,-5.9672,-5.8593,-6.0712,-6.2257,-6.3747,-6.5515,-6.6474,-6.6388,-6.4959,-6.5593,-6.544,-6.4012,-6.4708,-6.4497,-6.3068,-6.3004,-6.3004,-6.3004,-6.4407,-6.512,-6.512,-6.7487,-6.8889,-6.9542,-7.0553,-7.1377,-7.1982,-7.1982,-7.1714,-7.1247,-7.1772,-7.1017,-6.9578,-6.9971,-7.0165,-7.0329,-7.1017,-7.1112,-7.0906,0.0,0.0,5.7774,5.7774,5.7166,5.6616,5.651,5.5928,5.5144,0.0,0.0,0.0,0.0,0.0,0.0,0.0,0.0,0.0,0.0,3.96,3.8129,3.6202,3.2571,3.0045,2.8818,2.3641,2.0624,1.9674,1.6171,1.3546,1.1462,0.3714,-0.2168,-0.635,-1.2866,-1.8347,-2.2822,0.0,0.0,-3.2492,0.0,-3.4383,-3.556,-3.4027,-3.5355,-3.8104,-3.7122,-3.929,-4.3153,-4.6106,-5.0202,-5.4267,-5.5771,-5.9392,0.0,0.0,0.0,0.0,0.0,0.0,0.0,0.0,0.0,-6.9996,0.0,0.0,0.0,-7.0498,-7.0037,-6.9614,-6.9777,-6.9879,-6.9953,-6.9953,-6.9997,-7.0003,-6.9959,-6.783,-6.6385,-6.6714,-6.7728,-6.8512,-6.8922,-6.9297,-6.8996,-6.7782,-6.8823,-6.8541,-6.6253,-6.7357,-6.6945,-6.4697,-6.4641,-6.4641,-6.4641,-6.6867,-6.7969,-6.8041,-7.1304,-7.2843,-7.2892,-7.3916,-7.4402,-7.4402,-7.4402,-7.3964,-7.3267,-7.4044,-7.4006,-7.3229,-7.1784,-7.2005,-7.3067,-7.3067,-7.2792,-7.2519,5.7867,5.7449,0.0,5.7015,5.6367,5.561,5.4939,5.4757,5.4097,0.0,0.0,0.0,0.0,0.0,0.0,0.0,0.0,0.0,3.7847,0.0,3.5671,3.1546,3.0876,2.7973,2.2185,2.1325,1.8956,1.4967,1.4674,0.9926,0.1274,0.043,-0.5042,-1.4206,-1.616,-1.9172,0.0,0.0,-2.841,0.0,-3.211,-3.4383,0.0,-3.4027,-3.5355,-3.8342,-3.9639,-4.1281,-4.3356,0.0,-4.8991,-5.1955,0.0,-5.8632,-6.1298,-6.3319,0.0,0.0,0.0,0.0,0.0,0.0,-6.7874,-6.8495,-6.9459,0.0,-6.9923,-7.0838,0.0,-7.0765,-7.1486,0.0,0.0,-7.1263,-7.1398,-7.147,-7.1437,-7.121,-7.0462,-6.904,-6.8908,-6.9236,-7.0053,-7.0736,-7.107,-7.0916,-7.1056,-7.102,-7.0665,-7.0798,-7.0761,-7.0422,-7.0422,-7.0422,-7.0422,-7.0761,-7.0916,-7.0916,-7.2347,-7.3075,-7.3118,-7.424,-7.4712,-7.4712,-7.4712,-7.4712,-7.4574,-7.4712,-7.4994,-7.5246,-7.425,-7.3959,-7.413,-7.413,-7.4086,-7.4079,5.6685,5.6421,0.0,0.0,5.5552,5.4999,5.4634,5.371,0.0,0.0,0.0,0.0,0.0,0.0,0.0,0.0,0.0,3.7871,0.0,0.0,0.0,2.9306,2.7449,2.4806,2.1088,1.9079,1.6817,1.4218,0.8681,0.3769,-0.0568,-0.6309,-1.1272,-1.5399,-1.6725,0.0,-2.2848,0.0,-2.7818,0.0,0.0,0.0,0.0,-3.4027,-3.486,-3.7122,-3.9639,-4.1076,-4.1874,-4.3965,-4.7197,-5.0697,0.0,0.0,0.0,-6.1568,0.0,0.0,0.0,0.0,0.0,-6.5715,-6.6755,-6.7679,-6.8091,-6.8813,-6.9549,-6.9959,0.0,0.0,0.0,0.0,0.0,0.0,-7.1144,-7.1534,-7.2481,-7.2128,-7.1675,-7.1442,-7.1649,-7.2003,-7.2429,-7.2422,-7.2206,-7.177,-7.2355,-7.2393,-7.1584,-7.2298,-7.2385,-7.1606,-7.1606,-7.1612,-7.1749,-7.2666,-7.3111,-7.3111,-7.449,-7.5079,-7.4973,-7.5447,-7.5595,-7.5495,-7.5495,-7.5495,-7.5495,-7.5495,-7.5658,-7.5845,-7.5432,-7.5368,-7.5442,-7.5442,-7.5153,-7.479,5.4895,0.0,0.0,0.0,5.4537,5.3775,5.3479,5.2108,0.0,0.0,0.0,0.0,4.3854,4.3218,0.0,0.0,3.6918,3.5418,0.0,0.0,2.9127,0.0,0.0,0.0,1.9713,1.7474,1.5327,1.3222,0.4141,-0.1403,-0.3573,-1.0967,-1.4954,-1.5932,-1.7398,-1.998,-2.3541,0.0,-2.7654,-3.0254,-3.1963,-3.3968,-3.5683,-3.4984,-3.5458,-3.676,-3.9639,-4.0822,-4.1533,-4.3022,-4.6087,-4.9524,-5.0558,-5.4107,-5.8097,0.0,0.0,0.0,-6.2455,-6.2871,-6.3136,-6.4322,-6.5627,-6.666,-6.692,-6.7988,-6.8922,-6.9147,-6.9128,0.0,0.0,0.0,0.0,0.0,0.0,-7.1833,-7.304,-7.2775,-7.2634,-7.3299,-7.3739,-7.4023,-7.407,-7.3703,-7.3311,-7.2946,-7.3695,-7.3837,-7.3078,-7.3952,-7.4065,-7.3075,-7.3037,-7.308,-7.3254,-7.4306,-7.4834,-7.4873,-7.5976,-7.6418,-7.6313,-7.636,-7.6208,-7.593,-7.593,-7.593,-7.593,-7.593,-7.6019,-7.615,-7.615,-7.6235,-7.6285,-7.6294,-7.5995,-7.5533,5.2494,5.3447,0.0,0.0,0.0,0.0,5.0703,0.0,0.0,0.0,0.0,0.0,0.0,0.0,0.0,0.0,0.0,3.3444,2.8865,0.0,2.7073,0.0,0.0,2.1267,0.0,1.7066,1.5338,1.0809,0.3203,-0.4238,-1.1253,-1.1523,-1.3626,-1.7248,-1.8977,-2.1855,-2.5502,-2.737,-2.8163,-2.8427,-3.0125,-3.2922,-3.5928,0.0,-3.8104,-3.8342,-3.9989,-4.1558,-4.3184,-4.4535,-4.6193,-4.8247,-5.0154,-5.2082,-5.4117,-5.612,-5.6777,-5.7369,-5.9977,-6.067,-6.1217,-6.3245,-6.4427,-6.5326,-6.6247,-6.7081,-6.7961,-6.8733,-6.8703,-6.8995,-7.056,0.0,0.0,0.0,0.0,0.0,0.0,-7.3695,-7.4233,-7.4279,-7.4265,-7.4277,-7.4286,-7.4281,-7.4577,-7.5234,-7.5311,-7.5673,-7.6388,-7.6459,-7.6498,-7.6459,-7.6459,-7.6459,-7.6475,-7.6292,-7.624,-7.624,-7.6284,-7.6308,-7.6301,-7.6493,-7.6271,-7.5718,-7.5718,-7.5718,-7.5718,-7.5718,-7.6068,-7.6558,-7.6558,-7.6476,-7.6287,-7.6306,-7.6398,-7.6552,0.0,0.0,0.0,0.0,0.0,0.0,0.0,4.9054,0.0,0.0,0.0,0.0,0.0,4.0989,3.8803,0.0,0.0,3.0644,2.7056,2.5757,0.0,0.0,0.0,1.8349,0.0,0.0,1.1454,0.3475,0.0841,-0.4264,-1.1667,-1.2911,-1.4725,-1.7248,-1.9104,-2.1333,0.0,0.0,0.0,0.0,0.0,-3.3842,-3.5806,-3.6417,-3.7963,-3.9873,-4.0361,-4.1672,-4.3073,-4.3492,-4.4696,-4.6141,-4.7267,-4.9493,-5.1842,-5.3018,-5.494,-5.6777,-5.7677,-5.8652,-5.9784,-6.1265,-6.2319,-6.3224,-6.4322,-6.5297,-6.6002,-6.6289,-6.6222,-6.6332,-6.6933,0.0,0.0,0.0,0.0,0.0,0.0,-7.1619,-7.2165,-7.2165,-7.3495,-7.4188,-7.3576,-7.456,-7.5115,-7.4909,-7.5569,-7.617,-7.6575,-7.6331,-7.6331,-7.6605,-7.648,-7.6523,-7.6797,-7.661,-7.6301,-7.5896,-7.5891,-7.5604,-7.5092,-7.5176,-7.5034,-7.4747,-7.4747,-7.4962,-7.5264,-7.4927,-7.5341,-7.6171,-7.5782,-7.5886,-7.6303,-7.6314,-7.6358,-7.642,5.2246,0.0,0.0,0.0,0.0,0.0,0.0,0.0,0.0,0.0,4.4627,0.0,4.1015,0.0,3.7546,0.0,3.2158,2.9245,2.6211,2.3885,0.0,1.8628,1.7859,0.0,0.0,0.0,0.0,-0.0278,-0.2957,-0.6864,-1.1653,-1.346,-1.5416,-1.7388,-2.046,-2.2154,-2.3119,-2.6612,-2.8081,0.0,0.0,-3.4383,0.0,-3.5806,-3.7843,-4.0707,-4.1305,-4.215,-4.2986,-4.2986,-4.3602,-4.4422,-4.4993,-4.673,-4.8807,-4.9951,-5.2307,-5.464,-5.4978,-5.6617,-5.8328,-5.9041,-6.0256,-6.1446,-6.2251,-6.3082,-6.3729,-6.3729,-6.4077,-6.4458,-6.4704,-6.5117,0.0,0.0,0.0,0.0,0.0,-7.0264,-7.0601,-7.0601,-7.2206,-7.3258,-7.3229,-7.3401,-7.3903,-7.4808,-7.5055,-7.5603,-7.6555,-7.637,-7.6331,-7.6605,-7.6466,-7.6448,-7.6469,-7.6277,-7.5847,-7.5258,-7.5236,-7.4905,-7.4448,-7.4448,-7.4282,-7.398,-7.398,-7.4168,-7.4468,-7.4124,-7.4547,-7.5344,-7.4943,-7.5157,-7.5677,-7.6138,-7.6365,-7.6445,0.0,0.0,0.0,0.0,4.9376,0.0,0.0,0.0,4.5298,0.0,4.3122,4.1041,3.9498,3.8121,3.6248,3.3283,3.1377,2.9127,2.6089,2.2726,0.0,0.0,1.6689,1.5173,1.4077,0.0,0.0,0.0,-0.7945,-1.1545,-1.1653,-1.346,-1.5416,-1.7388,-2.2768,0.0,-2.3133,-2.6706,-2.8312,-2.8558,-3.1982,-3.4238,-3.5806,-3.5806,-3.7843,-4.0822,-4.2375,-4.2961,-4.2986,-4.2986,-4.2986,-4.3062,-4.3589,-4.4141,-4.49,-4.6908,-4.8996,-5.0823,-5.1953,-5.4458,-5.6611,-5.646,-5.8154,-5.984,-5.9924,-6.0617,-6.1278,-6.1278,-6.218,-6.319,-6.3954,-6.5057,-6.6105,0.0,0.0,0.0,0.0,-6.9494,-6.953,-6.9423,-7.0329,-7.1453,-7.3008,-7.1069,-7.1245,-7.4829,-7.384,-7.4017,-7.6316,-7.6443,-7.6443,-7.6498,-7.6482,-7.6185,-7.5653,-7.5397,-7.4976,-7.4371,-7.4195,-7.4124,-7.4124,-7.4124,-7.3804,-7.329,-7.329,-7.3303,-7.3303,-7.3341,-7.3699,-7.4293,-7.4249,-7.4249,-7.4468,-7.5782,-7.64,-7.6582,5.1155,4.9327,4.8072,0.0,4.7849,4.7336,0.0,0.0,0.0,0.0,4.1985,4.0666,3.8251,3.668,3.4582,3.1471,2.8792,0.0,0.0,0.0,0.0,1.6689,1.4874,1.3277,1.1589,0.9245,0.5295,-0.0282,-0.7907,-1.164,-1.1626,-1.3452,-1.5416,-1.7388,-2.1457,-2.3161,-2.3133,-2.6706,-2.8952,-3.0254,-3.1176,-3.3175,-3.5806,-3.5806,-3.7843,-4.0592,-4.1076,-4.2012,-4.2986,-4.2986,-4.2986,-4.3011,-4.3137,-4.3564,-4.4231,-4.5106,-4.6882,-4.8605,-4.9319,-5.085,-5.255,-5.3392,-5.4879,-5.6367,-5.7275,-5.855,-5.9469,-5.9469,-5.9728,-5.9965,-6.0214,-6.045,-6.0967,0.0,0.0,0.0,0.0,-6.6228,-6.6848,-6.5884,-6.7152,-6.8465,-6.946,-7.0138,-7.0683,-7.0882,-7.1653,-7.2649,-7.3911,-7.3838,-7.4144,-7.5019,-7.4958,-7.4851,-7.4785,-7.3907,-7.3194,-7.2615,-7.1875,-7.1641,-7.1933,-7.1933,-7.1852,-7.1709,-7.1709,-7.1933,-7.2281,-7.1911,-7.2721,-7.4249,-7.3794,-7.3888,-7.4426,-7.5295,-7.5671,-7.5809,5.1303,0.0,0.0,4.6609,0.0,0.0,4.5508,4.4442,0.0,4.0889,4.0134,0.0,3.5922,3.4847,3.3127,2.9868,2.7399,0.0,2.3698,0.0,0.0,1.5913,1.3532,1.1799,1.0723,0.5566,0.0,-0.2694,-0.8668,-1.2086,-1.2888,-1.4716,-1.6685,-1.8648,-2.233,-2.4003,-2.4331,-2.79,-2.9865,-3.09,-3.1561,-3.3087,0.0,-3.556,-3.7363,-3.9639,-4.0361,-4.1672,-4.2986,-4.2986,-4.2986,-4.2986,-4.2986,-4.3363,-4.3865,-4.4166,-4.5922,-4.7626,-4.7302,-4.8866,-5.0685,-5.0767,-5.1853,-5.3227,-5.3861,-5.47,-5.5486,-5.6164,-5.6645,-5.7215,-5.7869,-5.8451,-5.9036,0.0,0.0,0.0,0.0,-6.3298,-6.3738,-6.299,-6.3843,-6.4806,-6.5773,-6.7516,-6.9101,-7.0217,-7.0527,-7.1183,-7.2379,-7.1963,-7.2186,-7.3208,-7.2256,-7.2025,-7.2742,-7.1545,-7.0956,-7.097,-7.0446,-7.0253,-7.0468,-7.0468,-7.0468,-7.0468,-7.0468,-7.0923,-7.1539,-7.0793,-7.1417,-7.2844,-7.254,-7.2849,-7.3602,-7.4282,-7.4822,-7.5365,5.1525,0.0,0.0,0.0,0.0,0.0,0.0,4.2683,0.0,3.9293,0.0,3.614,3.3395,3.2943,3.1552,2.8408,0.0,2.5008,2.3325,1.8593,1.5913,1.5913,1.2712,1.0846,1.0783,0.3499,-0.241,0.0,-0.9982,-1.2632,-1.4432,-1.6263,-1.8229,-2.019,-2.361,0.0,0.0,-2.9065,-3.0642,-3.09,-3.2492,-3.3165,-3.3544,-3.4964,-3.6539,-3.8104,-3.9756,-4.1419,-4.2986,-4.2986,-4.2986,-4.2986,-4.2986,-4.3313,-4.3714,-4.379,-4.5525,-4.7038,-4.58,-4.7738,-4.982,-4.8532,-4.9508,-5.0713,-5.0491,-5.0713,-5.1372,-5.2509,-5.3656,-5.492,-5.603,-5.7057,-5.7995,0.0,-5.9063,-5.9222,-5.9696,-6.0391,0.0,0.0,-6.0578,0.0,-6.2166,-6.4098,-6.6735,-7.0266,-6.9209,-6.9137,-7.0782,-7.0183,-7.0091,-7.0798,-6.9172,-6.8706,-6.9633,-6.8854,-6.8682,-6.9138,-6.9098,-6.9133,-6.9278,-6.9098,-6.9098,-6.9278,-6.9278,-6.9778,-7.0668,-6.9813,-7.0022,-7.093,-7.1095,-7.1573,-7.2401,-7.3135,-7.4034,-7.5016,0.0,0.0,0.0,0.0,0.0,4.1834,4.0585,4.0083,3.9318,3.804,3.6572,3.5068,3.3304,3.1856,2.9849,2.6695,2.4901,0.0,0.0,0.0,0.0,1.5913,1.2712,1.1029,1.1067,0.3656,-0.3705,-1.0624,-1.1214,-1.2632,-1.4432,-1.6263,-1.8229,-2.0201,-2.2421,0.0,-2.5651,-2.7768,-2.9474,-3.0771,-3.1176,-3.2091,-3.3418,-3.365,-3.486,-3.6417,-3.8082,-4.0476,-4.2986,-4.2986,-4.2986,-4.2986,-4.2986,-4.3037,-4.3212,-4.3664,-4.4471,-4.5219,-4.5464,-4.6205,-4.6968,-4.6755,-4.8736,-5.038,-4.9194,-5.0851,-5.2295,-5.1263,-5.2238,-5.3011,-5.1966,-5.1938,-5.2607,-5.3964,-5.4642,-5.4545,-5.3452,-5.6877,0.0,0.0,-5.8355,-5.9975,-5.982,-6.1014,-6.3007,-6.5602,-6.464,-6.4824,-6.6848,-6.6848,-6.6743,-6.6671,-6.7259,-6.6778,-6.4958,-6.656,-6.6892,-6.6075,-6.5834,-6.6103,-6.6882,-6.5834,-6.5918,-6.6916,-6.6916,-6.7625,-6.8723,-6.8572,-6.9021,-7.0058,-7.08,-7.1223,-7.1537,-7.2886,-7.3504,-7.3757,0.0,0.0,0.0,0.0,0.0,0.0,0.0,3.7121,3.5939,3.5266,3.4626,3.3642,3.2092,3.0509,2.8592,2.6211,2.4532,2.2438,1.9928,1.7334,1.5574,1.4649,1.233,1.1034,1.1221,0.3698,-0.3879,-1.1563,-1.166,-1.3039,-1.5839,-1.6826,-1.8798,-2.1596,-2.3502,-2.5248,0.0,-2.8821,-3.0513,-3.2091,-3.2091,-3.2619,-3.3544,-3.4383,-3.5088,-3.6051,-3.7626,-3.917,-4.0707,-4.2375,-4.2986,-4.2986,-4.2986,-4.2986,-4.3037,-4.3288,-4.3765,-4.4317,-4.4895,-4.5447,-4.5949,-4.6225,-4.7416,-4.8184,-4.7534,-4.8532,-4.9535,-4.9508,-5.0184,-5.0629,-5.0713,-5.0713,-5.0933,-5.1727,-5.2061,-5.204,-5.1266,-5.3217,-5.4245,-5.293,0.0,-5.5227,-5.5658,-5.6355,-5.8462,-6.2486,-6.2233,-6.2414,-6.3451,-6.3113,-6.2963,-6.3294,-6.2796,-6.2414,-6.2319,-6.276,-6.3024,-6.3111,-6.3251,-6.3577,-6.4111,-6.4473,-6.4638,-6.4671,-6.6,-6.684,-6.7261,-6.792,-6.8496,-6.8947,-6.9423,-6.9953,-7.0499,-7.1732,-7.2239,-7.2372,0.0,4.5689,0.0,0.0,4.0837,3.8491,3.7216,3.4825,3.3077,3.3077,3.2851,3.2072,3.0509,2.892,2.7194,2.5619,2.4054,2.1811,1.8756,1.6818,1.5231,1.3595,1.192,1.0722,1.0019,0.3447,-0.376,-1.1563,-1.1928,-1.3855,-1.7177,-1.7648,-1.9634,-2.2996,-2.4723,-2.6573,-2.8295,-3.0125,-3.1835,-3.3418,-3.3418,-3.3418,-3.3544,-3.486,-3.5335,-3.5437,-3.7144,-3.7746,-3.8082,-4.1052,-4.2263,-4.2488,-4.2488,-4.2737,-4.2986,-4.2986,-4.3363,-4.389,-4.4342,-4.4945,-4.5598,-4.6024,-4.644,-4.6636,-4.6421,-4.6541,-4.6968,-4.786,-4.7977,-4.8532,-5.038,-5.0157,-4.982,-5.0157,-5.0268,-5.0157,-4.982,-5.0268,-5.0602,-5.0268,-5.0491,-5.107,-5.1982,-5.2395,-5.4273,-5.8456,-5.9703,-6.0119,-5.9781,-5.9691,-5.9756,-5.9822,-5.8748,-5.8718,-5.9759,-5.9473,-5.9631,-6.0357,-6.109,-6.1345,-6.1472,-6.2807,-6.3034,-6.2491,-6.4622,-6.5688,-6.612,-6.7087,-6.7639,-6.7911,-6.8111,-6.8648,-6.953,-7.0668,-7.1095,-7.1376,0.0,0.0,0.0,0.0,0.0,3.724,3.5727,3.4181,3.3077,3.3077,3.1998,3.049,2.8783,2.7194,2.5619,2.3931,2.2341,2.0576,1.864,1.6818,1.5231,1.3595,1.192,0.9433,0.598,0.2009,-0.376,-1.1563,-1.334,-1.5044,-1.6934,-1.8827,-2.0894,-2.2996,-2.4723,-2.6573,-2.8295,-3.0125,-3.1835,-3.3418,-3.3418,-3.3418,-3.3418,-3.3544,-3.365,-3.3902,-3.5458,-3.6051,-3.6295,-3.8104,-3.9639,-4.0822,-4.0822,-4.1785,-4.2986,-4.2986,-4.3363,-4.3815,-4.3865,-4.4669,-4.5497,-4.5547,-4.6938,-4.7977,-4.6636,-4.7324,-4.7977,-4.6755,-4.6541,-4.7416,-5.0157,-4.8505,-4.7205,-4.8532,-4.8762,-4.8184,-4.6849,-4.9053,-5.0157,-4.8851,-4.9847,-5.0685,-5.0878,-5.0906,-5.1181,-5.1674,-5.524,-5.671,-5.5024,-5.7494,-5.7869,-5.5486,-5.759,-5.7778,-5.5732,-5.8436,-5.9285,-5.8397,-5.9083,-5.9394,-5.9327,-5.896,-5.9368,-6.0453,-6.1215,-6.2812,-6.5015,-6.5138,-6.5875,-6.7029,-6.7866,-6.8266,-6.8572,-7.0432,-7.1095,-7.1286,0.0,0.0,4.2226,4.0563,3.8016,3.5727,3.4181,3.2758,3.1401,3.0412,2.9728,2.9157,2.8426,2.6106,2.4301,2.3698,2.1056,1.8768,1.7076,1.5391,1.3712,1.2042,1.1406,0.8262,0.23,-0.1588,-0.6091,-1.1529,-1.3468,-1.5379,-1.7116,-1.9161,-2.1032,-2.2859,-2.3665,-2.4993,-2.6706,-2.8427,-3.0254,-3.1963,-3.3019,-3.3418,-3.3418,-3.3418,-3.3418,-3.3544,-3.4133,-3.4383,-3.4487,-3.5108,-3.7023,-3.917,-3.917,-3.9639,-4.0361,-4.1305,-4.1704,-4.2176,-4.3462,-4.4141,-4.4644,-4.5321,-4.6095,-4.6678,-4.6345,-4.6755,-4.6968,-4.6421,-4.6301,-4.6636,-4.786,-4.7087,-4.6541,-4.7087,-4.7205,-4.6968,-4.6421,-4.7298,-4.786,-4.7205,-4.7743,-4.8068,-4.8068,-4.8851,-4.8965,-4.8184,-5.1288,-5.2943,-5.2166,-5.3273,-5.3435,-5.2309,-5.4243,-5.4869,-5.386,-5.5108,-5.5531,-5.5083,-5.5708,-5.6006,-5.6035,-5.7922,-5.9656,-6.1279,-6.1466,-6.2396,-6.3826,-6.4597,-6.4778,-6.4597,-6.5775,-6.6204,-6.6424,-6.8578,-6.9351,-6.9494,4.4144,4.2629,4.0963,3.857,3.6179,3.4181,3.2582,3.1149,2.953,2.7931,2.7331,2.697,2.697,2.4901,2.3186,2.2173,1.9903,1.7613,1.5554,1.4316,1.2918,1.1074,1.1107,0.8637,0.3482,-0.3771,-0.8879,-1.1667,-1.3468,-1.5106,-1.6317,-1.8827,-2.0958,-2.2859,-2.2859,-2.3924,-2.5651,-2.6839,-2.8427,-3.0254,-3.1963,-3.2619,-3.2638,-3.3165,-3.3418,-3.3418,-3.3418,-3.3418,-3.3418,-3.3418,-3.486,-3.6902,-3.7385,-3.7865,-3.8461,-3.9522,-3.9873,-4.0316,-4.2364,-4.2955,-4.3391,-4.4678,-4.5121,-4.5372,-4.5949,-4.6075,-4.6125,-4.6276,-4.6301,-4.6301,-4.6301,-4.6301,-4.6301,-4.6301,-4.6301,-4.6301,-4.6301,-4.6301,-4.6301,-4.6301,-4.6301,-4.6301,-4.6301,-4.7205,-4.7416,-4.6421,-4.8184,-4.9395,-4.9395,-5.0268,-5.0491,-5.0045,-5.1509,-5.2295,-5.2295,-5.2295,-5.2295,-5.2295,-5.2721,-5.3001,-5.3029,-5.6213,-5.8408,-5.9923,-6.0599,-6.1369,-6.2233,-6.3353,-6.3449,-6.31,-6.4414,-6.4869,-6.5138,-6.7364,-6.8189,-6.8343,3.9981,3.8436,3.7133,3.5617,3.4069,3.2582,3.0895,2.9418,2.7811,2.6227,2.4655,2.3698,2.3698,2.3574,2.2173,1.8884,1.85,1.7249,1.4454,1.4245,1.3238,1.124,1.0851,1.1005,1.1438,-0.3629,-1.1556,-1.1563,-1.3484,-1.4339,-1.4162,-1.7876,-2.0773,-2.2859,-2.2859,-2.3924,-2.5517,-2.5517,-2.6573,-2.8427,-3.0125,-3.0771,-3.1029,-3.2746,-3.3418,-3.3418,-3.3418,-3.3418,-3.3418,-3.3418,-3.3418,-3.3776,-3.5335,-3.6881,-3.8223,-3.8223,-3.8223,-3.858,-4.0245,-4.0996,-4.1846,-4.3447,-4.4242,-4.4794,-4.5372,-4.5497,-4.5648,-4.62,-4.6301,-4.6301,-4.6301,-4.6301,-4.6301,-4.6301,-4.6301,-4.6301,-4.6301,-4.6301,-4.6301,-4.6301,-4.6301,-4.6301,-4.6301,-4.6301,-4.6301,-4.6301,-4.6301,-4.6301,-4.6301,-4.9167,-5.0045,-4.8532,-4.9932,-5.0713,-5.0713,-5.0713,-5.0713,-5.0713,-5.0713,-5.0713,-5.0851,-5.3001,-5.4338,-5.5111,-5.725,-5.8893,-6.0191,-6.0843,-6.1796,-6.31,-6.4414,-6.4869,-6.5138,-6.7364,-6.8189,-6.8343,4.0083,3.9088,3.7757,3.4382,3.2427,3.0915,2.9319,2.7776,2.5708,2.2974,2.2117,2.0989,1.8593,1.9382,1.9649,1.864,1.6742,1.5147,1.4254,1.0438,0.8943,1.0851,1.1149,0.8884,0.378,-0.3774,-0.8879,-1.1674,-1.3468,-1.4964,-1.6308,-1.8816,-2.0257,-2.1032,-2.2297,-2.327,-2.3788,-2.4979,-2.5771,-2.6573,-2.8295,-2.9735,-3.0771,-3.0142,-3.1322,-3.3292,-3.2091,-3.2365,-3.3418,-3.3418,-3.3418,-3.3544,-3.4007,-3.4507,-3.5108,-3.6295,-3.6517,-3.6881,-3.858,-3.9049,-3.9373,-4.0313,-4.0642,-4.1281,-4.2927,-4.3578,-4.4134,-4.546,-4.5157,-4.489,-4.6059,-4.6301,-4.6301,-4.6301,-4.5281,-4.489,-4.618,-4.5281,-4.5013,-4.618,-4.6301,-4.6301,-4.6301,-4.6301,-4.5793,-4.462,-4.4497,-4.5013,-4.618,-4.718,-4.7534,-4.6968,-4.8416,-4.9194,-4.9194,-4.9194,-4.9194,-4.9194,-4.9194,-5.0296,-5.2295,-5.1896,-5.3245,-5.5811,-5.6362,-5.7406,-5.8819,-5.9972,-6.0342,-6.0463,-6.1796,-6.2747,-6.3826,-6.5337,-6.6525,-6.7291,3.865,3.7839,3.6433,3.2085,3.0471,2.9046,2.6953,2.5221,2.3098,2.0358,1.9472,1.8314,1.6172,1.6462,1.6861,1.6861,1.5221,1.3892,1.2895,0.9446,0.7191,0.6733,0.711,0.4226,-0.2039,-0.4506,-0.7706,-1.1529,-1.3468,-1.5416,-1.7248,-1.9217,-2.0479,-2.117,-2.2435,-2.2859,-2.2996,-2.406,-2.4452,-2.4723,-2.6439,-2.7883,-2.8804,-2.8295,-3.0012,-3.2237,-3.1176,-3.1963,-3.3418,-3.3418,-3.3418,-3.3418,-3.3418,-3.3418,-3.3544,-3.4612,-3.486,-3.5211,-3.6902,-3.7243,-3.7572,-3.8484,-3.8672,-3.9168,-4.0657,-4.1411,-4.2028,-4.3144,-4.2942,-4.2802,-4.3962,-4.4253,-4.4374,-4.4374,-4.3482,-4.3083,-4.4251,-4.3482,-4.3208,-4.4251,-4.4374,-4.4374,-4.4374,-4.4374,-4.3979,-4.2832,-4.2706,-4.3232,-4.4374,-4.5013,-4.5671,-4.6301,-4.7205,-4.7652,-4.7652,-4.7652,-4.7652,-4.7652,-4.7652,-4.8647,-5.0407,-5.0072,-5.1376,-5.4206,-5.4848,-5.5991,-5.7498,-5.848,-5.8893,-5.8817,-6.0167,-6.1577,-6.3164,-6.4414,-6.5734,-6.6812,3.6031,3.5068,3.3578,2.922,2.817,2.7091,2.4054,2.2006,2.0232,1.85,1.6818,1.5654,1.5524,1.4548,1.3796,1.3656,1.3813,1.3003,1.0789,1.0234,0.694,0.0287,-0.058,-0.2483,-0.6144,-0.597,-0.7711,-1.1556,-1.3476,-1.5274,-1.7107,-1.9077,-2.1032,-2.2722,-2.2859,-2.2859,-2.2859,-2.2859,-2.2859,-2.2996,-2.4723,-2.5383,-2.5651,-2.7238,-2.8952,-3.0642,-3.0642,-3.1707,-3.3292,-3.3418,-3.3418,-3.3418,-3.3418,-3.3418,-3.3418,-3.3418,-3.3418,-3.3776,-3.5211,-3.5683,-3.6051,-3.7506,-3.7985,-3.8216,-3.8685,-3.9276,-3.9758,-3.9859,-4.0016,-4.0248,-4.0374,-4.08,-4.1136,-4.1136,-4.103,-4.1052,-4.1181,-4.1052,-4.1052,-4.1181,-4.1181,-4.1181,-4.1181,-4.1181,-4.1181,-4.1052,-4.1052,-4.1052,-4.1181,-4.258,-4.4251,-4.6059,-4.618,-4.6301,-4.6301,-4.6301,-4.6301,-4.6301,-4.6301,-4.6301,-4.6541,-4.7769,-4.9194,-5.0851,-5.2755,-5.4497,-5.6093,-5.6661,-5.7318,-5.8158,-5.9451,-6.1101,-6.2908,-6.4197,-6.547,-6.6643,3.4471,3.254,3.1011,2.8765,2.6365,2.4425,2.3698,2.1029,1.8489,1.6689,1.5005,1.3456,1.2025,1.1659,1.0465,0.7764,0.9924,1.133,1.0803,0.5517,0.1719,0.0145,-0.5696,-0.9243,-1.0262,-0.728,-0.7697,-1.164,-1.3452,-1.4574,-1.5132,-1.8508,-2.034,-2.0894,-2.2297,-2.2859,-2.2859,-2.2859,-2.2859,-2.2996,-2.3393,-2.4317,-2.5383,-2.4452,-2.6039,-2.8821,-2.8821,-2.9995,-3.1561,-3.2892,-3.3418,-3.3418,-3.3418,-3.3418,-3.3418,-3.3418,-3.3418,-3.3544,-3.3902,-3.4027,-3.4027,-3.4383,-3.5458,-3.6438,-3.6545,-3.6951,-3.7687,-3.8998,-3.8656,-3.8482,-3.9859,-4.0388,-4.0621,-4.0621,-3.9908,-3.9627,-4.1052,-4.0018,-3.9758,-4.1052,-4.1181,-4.1181,-4.1181,-4.1181,-4.0666,-3.9387,-3.9256,-3.9758,-4.1181,-4.0278,-4.1158,-4.4251,-4.5671,-4.6301,-4.6301,-4.6301,-4.6301,-4.6301,-4.6301,-4.6874,-4.7977,-4.7205,-4.83,-5.0713,-5.0096,-5.1544,-5.4449,-5.4594,-5.5701,-5.7393,-5.8189,-5.9471,-6.0908,-6.1577,-6.3417,-6.5349,3.2839,3.1242,2.9713,2.6695,2.4778,2.3062,2.1546,1.9,1.6689,1.4874,1.3202,1.1784,1.0864,1.0638,0.9868,0.8018,0.9615,0.9302,0.6034,0.2131,-0.1584,-0.5116,-0.9389,-1.161,-1.1596,-0.9479,-0.9446,-1.1619,-1.4298,-1.5698,-1.5698,-1.9634,-2.1321,-2.1459,-2.2435,-2.2859,-2.2859,-2.2859,-2.2859,-2.2859,-2.2859,-2.3529,-2.4196,-2.3256,-2.4588,-2.7105,-2.79,-2.9344,-3.1047,-3.2765,-3.3418,-3.3418,-3.3418,-3.3418,-3.3418,-3.3418,-3.3418,-3.3418,-3.3418,-3.3418,-3.3418,-3.3418,-3.4007,-3.4736,-3.4736,-3.494,-3.5353,-3.6205,-3.608,-3.6136,-3.7129,-3.7636,-3.7826,-3.7826,-3.7467,-3.7534,-3.8435,-3.7831,-3.7688,-3.8729,-3.8861,-3.8861,-3.8861,-3.8861,-3.8486,-3.7441,-3.7441,-3.7822,-3.8729,-3.8729,-4.0148,-4.3606,-4.3855,-4.4003,-4.4003,-4.4767,-4.5135,-4.5135,-4.5914,-4.6755,-4.7416,-4.6636,-4.7534,-4.9621,-4.8851,-5.0375,-5.3452,-5.3452,-5.4709,-5.6705,-5.7094,-5.8449,-6.0191,-6.0431,-6.2007,-6.4045,3.1106,3.0064,2.8537,2.4286,2.3186,2.1797,1.8884,1.6818,1.5014,1.3595,1.1791,1.0485,0.994,1.0398,1.0766,1.0639,0.9686,0.6529,0.0422,-0.0,-0.3465,-1.1192,-1.161,-1.159,-1.159,-1.1536,-1.164,-1.1619,-1.5425,-1.7248,-1.7248,-2.117,-2.2859,-2.2859,-2.2859,-2.2859,-2.2859,-2.2859,-2.2859,-2.2859,-2.2859,-2.2859,-2.2859,-2.2859,-2.3788,-2.5383,-2.7105,-2.8689,-3.0254,-3.2365,-3.3019,-3.3019,-3.3292,-3.3418,-3.3418,-3.3418,-3.3418,-3.3418,-3.3418,-3.3418,-3.3418,-3.3418,-3.3418,-3.3418,-3.3418,-3.3418,-3.3418,-3.3418,-3.3711,-3.3965,-3.3965,-3.4316,-3.4609,-3.4609,-3.498,-3.5312,-3.5391,-3.5703,-3.5957,-3.6016,-3.6016,-3.6016,-3.6016,-3.6016,-3.6016,-3.6016,-3.6016,-3.6152,-3.6403,-3.7575,-3.9627,-4.2832,-4.182,-4.1309,-4.1565,-4.2958,-4.3855,-4.4103,-4.5525,-4.6301,-4.6301,-4.6301,-4.6968,-4.821,-4.821,-4.9761,-5.2295,-5.2509,-5.3838,-5.5811,-5.6034,-5.7516,-5.958,-5.9695,-6.097,-6.2555,2.9456,2.7656,2.6089,2.3931,2.1168,1.9139,1.8628,1.5784,1.3735,1.4041,1.2071,0.9534,0.6569,0.8901,1.0766,1.0639,0.5144,0.1125,0.0143,-0.0,-0.3498,-1.1192,-1.161,-1.1583,-1.1563,-1.1653,-1.1619,-1.1619,-1.5425,-1.7248,-1.7248,-2.117,-2.2859,-2.2859,-2.2859,-2.2859,-2.2859,-2.2859,-2.2859,-2.2859,-2.2859,-2.2859,-2.2859,-2.2859,-2.3133,-2.3529,-2.5248,-2.6039,-2.6839,-3.0142,-3.1194,-3.1433,-3.2892,-3.3418,-3.3418,-3.3418,-3.3418,-3.3418,-3.3418,-3.3418,-3.3418,-3.3418,-3.3418,-3.3418,-3.3418,-3.3418,-3.3418,-3.3418,-3.3476,-3.3516,-3.3516,-3.3867,-3.416,-3.416,-3.4531,-3.4941,-3.5332,-3.5449,-3.5625,-3.5976,-3.6016,-3.6016,-3.6016,-3.6016,-3.6016,-3.6016,-3.6016,-3.6674,-3.8088,-3.7059,-3.7307,-3.9387,-4.0537,-4.182,-4.3333,-4.3606,-4.4497,-4.5914,-4.618,-4.6301,-4.6301,-4.6301,-4.6421,-4.6636,-4.6636,-4.7652,-4.9308,-5.0491,-5.2,-5.3722,-5.5486,-5.6492,-5.6895,-5.8008,-5.9337,-6.0746,2.7776,2.5863,2.4178,2.2591,2.017,1.8116,1.7216,1.5173,1.3375,1.2476,1.1311,1.0117,0.8494,0.9747,1.0677,1.0763,0.4198,-0.0,-0.0,-0.0,-0.2483,-0.8217,-0.8479,-0.9474,-1.1516,-1.1633,-1.1619,-1.1619,-1.5425,-1.7248,-1.7248,-2.117,-2.2859,-2.2859,-2.2859,-2.2859,-2.2859,-2.2859,-2.2859,-2.2859,-2.2859,-2.2859,-2.2859,-2.2859,-2.2859,-2.3133,-2.4858,-2.5517,-2.6039,-2.9605,-3.0142,-2.9865,-3.2492,-3.2765,-3.2218,-3.3146,-3.3418,-3.3418,-3.3418,-3.3418,-3.3418,-3.3418,-3.3418,-3.3418,-3.3418,-3.3418,-3.3418,-3.3418,-3.3418,-3.3418,-3.3418,-3.3594,-3.373,-3.373,-3.4082,-3.4434,-3.4648,-3.4883,-3.5176,-3.5625,-3.5684,-3.5762,-3.5996,-3.6016,-3.6016,-3.6016,-3.6016,-3.6403,-3.7193,-3.6403,-3.6403,-3.7193,-3.7955,-3.9235,-4.0902,-4.1924,-4.3208,-4.489,-4.5793,-4.6301,-4.6301,-4.6301,-4.6301,-4.6301,-4.6301,-4.7087,-4.8532,-4.9167,-5.0851,-5.3097,-5.4077,-5.519,-5.6256,-5.6855,-5.7902,-5.9131,2.6574,2.4394,2.2438,2.0829,1.8768,1.6818,1.5524,1.4146,1.2468,0.98,1.0124,1.0021,0.8375,0.8272,0.8245,0.8163,0.3239,-0.0,-0.0,-0.1752,-0.409,-0.7023,-0.7135,-0.8569,-1.1476,-1.1619,-1.1756,-1.218,-1.5566,-1.7388,-1.7949,-2.1308,-2.2859,-2.2859,-2.2859,-2.2859,-2.2859,-2.2859,-2.2859,-2.2859,-2.2859,-2.2859,-2.2859,-2.2859,-2.2859,-2.3133,-2.4452,-2.4858,-2.5383,-2.8541,-2.8673,-2.8163,-3.1194,-3.1579,-3.1029,-3.2365,-3.2765,-3.2892,-3.3292,-3.3418,-3.3418,-3.3418,-3.3418,-3.3418,-3.3418,-3.3418,-3.3418,-3.3418,-3.3418,-3.3418,-3.3418,-3.3418,-3.3418,-3.3418,-3.3691,-3.3965,-3.4062,-3.4355,-3.4726,-3.5176,-3.5332,-3.5527,-3.584,-3.5957,-3.6016,-3.6016,-3.6016,-3.6016,-3.6016,-3.6016,-3.6016,-3.6016,-3.6403,-3.7193,-3.8597,-4.0278,-4.2074,-4.3731,-4.5013,-4.5914,-4.6301,-4.6301,-4.6301,-4.6301,-4.6301,-4.6993,-4.7977,-4.83,-4.9874,-5.1972,-5.2751,-5.4048,-5.5515,-5.6004,-5.6795,-5.7693,2.6349,2.3346,2.0611,1.9012,1.5913,1.3578,1.3447,1.2048,0.9667,0.6301,0.8633,0.8102,0.148,0.0817,0.0828,0.0841,0.0284,-0.0,-0.0,-0.6735,-1.0881,-1.1147,-1.124,-1.1345,-1.1619,-1.1619,-1.2466,-1.4148,-1.6263,-1.8089,-1.9912,-2.2022,-2.2859,-2.2859,-2.2859,-2.2859,-2.2859,-2.2859,-2.2859,-2.2859,-2.2859,-2.2859,-2.2859,-2.2859,-2.2859,-2.2859,-2.2996,-2.3133,-2.3393,-2.5248,-2.5771,-2.6039,-2.8032,-2.9605,-3.0771,-3.09,-3.1029,-3.1304,-3.3019,-3.3418,-3.3418,-3.3418,-3.3418,-3.3418,-3.3418,-3.3418,-3.3418,-3.3418,-3.3418,-3.3418,-3.3418,-3.3418,-3.3418,-3.3418,-3.3457,-3.3613,-3.4023,-3.4101,-3.4277,-3.4707,-3.5137,-3.541,-3.543,-3.5801,-3.6016,-3.6016,-3.6016,-3.6016,-3.6016,-3.6016,-3.6016,-3.6016,-3.7575,-3.8486,-3.8597,-4.0278,-4.2074,-4.3731,-4.3855,-4.4767,-4.6301,-4.6301,-4.6301,-4.6301,-4.6301,-4.6301,-4.6541,-4.7977,-4.8647,-4.908,-5.1863,-5.3097,-5.3453,-5.5486,-5.6226,-5.6582,2.3222,2.0989,1.886,1.7205,1.4874,1.3464,1.3761,1.2086,1.0245,0.8901,0.5927,0.2961,0.0269,-0.0,-0.0,-0.0,-0.0,-0.0,-0.0,-0.7314,-1.1603,-1.1576,-1.1529,-1.1647,-1.1619,-1.1619,-1.2466,-1.4432,-1.6263,-1.8229,-2.0201,-2.2022,-2.2859,-2.2859,-2.2859,-2.2859,-2.2859,-2.2859,-2.2859,-2.2859,-2.2859,-2.2859,-2.2859,-2.2859,-2.2859,-2.2859,-2.2859,-2.2859,-2.3133,-2.4844,-2.4723,-2.4317,-2.7238,-2.79,-2.7751,-2.8821,-2.9213,-2.9344,-3.0012,-3.0918,-3.2091,-3.3146,-3.3418,-3.3418,-3.3418,-3.3418,-3.3418,-3.3418,-3.3418,-3.3418,-3.3418,-3.3418,-3.3418,-3.3418,-3.3418,-3.3476,-3.3652,-3.3672,-3.3828,-3.4258,-3.4687,-3.5078,-3.5371,-3.5781,-3.6016,-3.6016,-3.6016,-3.6016,-3.6016,-3.6016,-3.6016,-3.6016,-3.7709,-3.8597,-3.8597,-3.9256,-4.0902,-4.3731,-4.3731,-4.462,-4.6301,-4.6301,-4.6301,-4.6301,-4.6301,-4.6301,-4.6301,-4.6874,-4.7652,-4.8762,-5.074,-5.2187,-5.3232,-5.4908,-5.5807,-5.6299,2.1352,1.923,1.7076,1.5394,1.3578,1.2561,1.2997,1.0751,0.9442,1.0564,0.4445,-0.0,-0.0,-0.0,-0.0,-0.0,-0.0,-0.1012,-0.35,-0.8619,-1.1563,-1.1543,-1.166,-1.1633,-1.1619,-1.1619,-1.2466,-1.4432,-1.5698,-1.7248,-1.9217,-2.0479,-2.117,-2.117,-2.1734,-2.2022,-2.2022,-2.2585,-2.2859,-2.2859,-2.2859,-2.2859,-2.2859,-2.2859,-2.2859,-2.2859,-2.2859,-2.2859,-2.3133,-2.4317,-2.3924,-2.3256,-2.5786,-2.6054,-2.5771,-2.6972,-2.737,-2.737,-2.737,-2.8279,-2.9717,-3.1963,-3.3019,-3.3292,-3.2765,-3.3019,-3.3292,-3.2746,-3.3019,-3.3418,-3.3418,-3.3418,-3.3418,-3.3418,-3.3418,-3.3418,-3.3418,-3.3418,-3.3535,-3.3828,-3.4238,-3.4687,-3.5137,-3.5566,-3.5879,-3.6016,-3.6016,-3.6016,-3.6016,-3.6016,-3.6016,-3.6016,-3.7193,-3.7842,-3.7842,-3.8861,-4.0278,-4.2051,-4.3208,-4.4374,-4.5525,-4.6059,-4.6301,-4.6301,-4.6301,-4.6301,-4.6301,-4.6301,-4.6874,-4.7977,-4.9395,-5.0629,-5.1863,-5.3756,-5.4805,-5.5293,2.1352,1.8198,1.5394,1.3578,1.1894,1.0731,1.0751,0.7646,0.6719,1.0149,0.4445,-0.0,-0.0,-0.0,-0.0,-0.0,-0.0,-0.3356,-1.1147,-1.1543,-1.1653,-1.1653,-1.1633,-1.1619,-1.1619,-1.1619,-1.2466,-1.4432,-1.4432,-1.5416,-1.7248,-1.7248,-1.7248,-1.7248,-1.9217,-2.0063,-2.0201,-2.2022,-2.2859,-2.2859,-2.2859,-2.2859,-2.2859,-2.2859,-2.2859,-2.2859,-2.2859,-2.2859,-2.2859,-2.2859,-2.2859,-2.2859,-2.2859,-2.406,-2.5517,-2.5517,-2.5517,-2.5517,-2.5517,-2.5517,-2.6306,-2.9847,-3.2091,-3.2892,-3.1176,-3.2091,-3.2892,-3.1176,-3.211,-3.3418,-3.3418,-3.3418,-3.3418,-3.3418,-3.3418,-3.3418,-3.3418,-3.3418,-3.3418,-3.3418,-3.3809,-3.4238,-3.4648,-3.5117,-3.5566,-3.5996,-3.6016,-3.6016,-3.6016,-3.6016,-3.6016,-3.6016,-3.6016,-3.6016,-3.6016,-3.9366,-4.0278,-3.8597,-4.2051,-4.3731,-4.3731,-4.5525,-4.6301,-4.6301,-4.6301,-4.6301,-4.6301,-4.6301,-4.6301,-4.6421,-4.786,-4.8532,-4.8877,-5.1863,-5.2963,-5.3203,1.7953,1.655,1.5005,1.2025,1.1115,1.0738,1.0652,0.766,0.483,0.3365,0.1346,-0.0,-0.0,-0.0,-0.0,-0.0,-0.5042,-0.9087,-1.1424,-1.1529,-1.1647,-1.1626,-1.1619,-1.1619,-1.1619,-1.1619,-1.2466,-1.4432,-1.4432,-1.5416,-1.7248,-1.7248,-1.7248,-1.7248,-1.7809,-1.8089,-1.8089,-1.8648,-1.8927,-1.9077,-2.034,-2.0894,-2.1032,-2.2435,-2.2859,-2.2859,-2.2859,-2.2859,-2.2859,-2.2859,-2.2859,-2.2859,-2.2859,-2.327,-2.3665,-2.3665,-2.3665,-2.3665,-2.3665,-2.4588,-2.6039,-2.8427,-2.9344,-2.9622,-2.9083,-2.9344,-2.9605,-2.9083,-2.9344,-2.9735,-2.9735,-2.9735,-2.9735,-2.9735,-2.9735,-2.9735,-2.9735,-2.9735,-2.9735,-2.9735,-3.115,-3.2356,-3.2895,-3.4432,-3.5566,-3.5996,-3.6016,-3.6016,-3.6016,-3.6016,-3.6016,-3.6016,-3.6016,-3.6016,-3.6016,-3.7059,-3.7955,-3.8597,-4.0924,-4.258,-4.3731,-4.5525,-4.6301,-4.6301,-4.6301,-4.6301,-4.6301,-4.6301,-4.6301,-4.6421,-4.786,-4.9194,-5.0268,-5.2295,-5.3623,-5.4641,1.6431,1.5394,1.397,1.124,1.0724,1.0751,1.0665,0.8895,0.5647,0.0673,-0.0,-0.0,-0.0,-0.0,-0.0,-0.0,-0.4315,-0.8338,-1.1424,-1.1536,-1.1647,-1.1633,-1.1626,-1.1619,-1.1619,-1.1619,-1.218,-1.3309,-1.3309,-1.3872,-1.5,-1.5,-1.5,-1.5,-1.5698,-1.6122,-1.6122,-1.6826,-1.7248,-1.7248,-1.8519,-1.9356,-2.019,-2.1321,-2.2297,-2.2859,-2.2859,-2.2859,-2.2859,-2.2859,-2.2859,-2.2859,-2.2859,-2.2859,-2.2859,-2.2859,-2.2859,-2.2859,-2.2859,-2.3652,-2.4723,-2.5786,-2.7105,-2.8032,-2.7238,-2.7635,-2.8032,-2.7238,-2.7635,-2.8163,-2.8163,-2.8163,-2.8163,-2.8163,-2.8163,-2.8163,-2.8163,-2.8163,-2.8163,-2.8163,-2.9944,-3.1366,-3.2077,-3.3994,-3.5371,-3.5976,-3.6016,-3.6016,-3.6016,-3.6016,-3.6016,-3.6016,-3.6016,-3.6016,-3.6016,-3.6016,-3.6924,-3.8597,-4.1052,-4.2706,-4.3731,-4.5525,-4.6301,-4.6301,-4.6301,-4.6301,-4.6301,-4.6301,-4.6301,-4.6421,-4.7324,-4.8184,-4.9167,-5.1291,-5.2615,-5.3623,1.6302,1.4493,1.2808,1.0982,1.0738,1.0632,1.0251,1.0551,0.8102,0.0942,-0.0,-0.0,-0.0,-0.0,-0.0,-0.0,-0.0,-0.3199,-1.0547,-1.1391,-1.1653,-1.1653,-1.1633,-1.1619,-1.1619,-1.1619,-1.1619,-1.1619,-1.1619,-1.1619,-1.1619,-1.1619,-1.1619,-1.1619,-1.3452,-1.4148,-1.429,-1.599,-1.6685,-1.6685,-1.6826,-1.7949,-1.9634,-1.9912,-2.1183,-2.2722,-2.2859,-2.2859,-2.2859,-2.2859,-2.2859,-2.2859,-2.2859,-2.2859,-2.2859,-2.2859,-2.2859,-2.2859,-2.2859,-2.2859,-2.2859,-2.2859,-2.5383,-2.7238,-2.5651,-2.6573,-2.7238,-2.5651,-2.6573,-2.7768,-2.7768,-2.7768,-2.7768,-2.7768,-2.7768,-2.7768,-2.7768,-2.7768,-2.7768,-2.79,-2.9474,-3.0965,-3.2041,-3.369,-3.5156,-3.5957,-3.6016,-3.6016,-3.6016,-3.6016,-3.6016,-3.6016,-3.6016,-3.6016,-3.6016,-3.6152,-3.7059,-3.8597,-4.1924,-4.3606,-4.3731,-4.5525,-4.6301,-4.6301,-4.6301,-4.6301,-4.6301,-4.6301,-4.6301,-4.6301,-4.6301,-4.6421,-4.6874,-4.9508,-5.0602,-5.1153,1.6302,1.4493,1.2808,1.0982,1.0738,0.9806,0.6982,0.8907,0.8102,0.0942,-0.0,-0.0,-0.0,-0.0,-0.0,-0.0,-0.0,-0.2034,-0.6692,-0.9896,-1.1647,-1.1626,-1.1619,-1.1619,-1.1619,-1.1619,-1.1619,-1.1619,-1.1619,-1.1619,-1.1619,-1.1619,-1.1619,-1.1619,-1.2043,-1.218,-1.218,-1.261,-1.2745,-1.2888,-1.4432,-1.5274,-1.5981,-1.8927,-2.034,-2.0894,-2.2435,-2.2859,-2.2859,-2.2859,-2.2859,-2.2859,-2.2859,-2.2859,-2.2859,-2.2859,-2.2859,-2.2859,-2.2859,-2.2859,-2.2859,-2.2859,-2.3529,-2.3924,-2.3529,-2.3788,-2.3924,-2.3529,-2.3802,-2.406,-2.406,-2.406,-2.406,-2.406,-2.406,-2.406,-2.406,-2.406,-2.4588,-2.5905,-2.7635,-2.9653,-3.1907,-3.4355,-3.582,-3.5996,-3.6016,-3.6016,-3.6016,-3.6016,-3.6016,-3.6016,-3.6016,-3.6016,-3.6016,-3.7307,-3.8221,-3.8597,-4.0795,-4.2454,-4.3731,-4.5525,-4.6301,-4.6301,-4.6301,-4.6301,-4.6301,-4.6301,-4.6301,-4.6301,-4.6301,-4.6968,-4.8094,-4.8736,-4.9734,-5.0933,1.4884,1.3325,1.1762,1.085,1.0751,0.9552,0.59,0.5513,0.4308,0.0538,-0.0,-0.0,-0.0,-0.0,-0.0,-0.0,-0.3325,-0.5673,-0.5812,-0.9452,-1.1647,-1.1619,-1.1619,-1.1619,-1.1619,-1.1619,-1.1619,-1.1619,-1.1619,-1.1619,-1.1619,-1.1619,-1.1619,-1.1619,-1.1619,-1.1619,-1.1619,-1.1619,-1.1619,-1.1619,-1.2602,-1.3587,-1.4574,-1.6685,-1.8508,-2.0201,-2.1183,-2.216,-2.2859,-2.2859,-2.2859,-2.2859,-2.2859,-2.2859,-2.2859,-2.2859,-2.2859,-2.2859,-2.2859,-2.2859,-2.2859,-2.2859,-2.2859,-2.2859,-2.2859,-2.2859,-2.2859,-2.2859,-2.2859,-2.2859,-2.2859,-2.2859,-2.2859,-2.2859,-2.2859,-2.2859,-2.2859,-2.2859,-2.3529,-2.5248,-2.7105,-2.9521,-3.2991,-3.495,-3.6016,-3.6016,-3.6016,-3.6016,-3.6016,-3.6016,-3.6016,-3.6016,-3.6016,-3.6016,-3.6016,-3.7709,-3.8993,-3.9888,-4.1565,-4.3357,-4.5013,-4.5914,-4.6301,-4.6301,-4.6301,-4.6301,-4.6301,-4.6301,-4.6301,-4.6301,-4.6301,-4.6755,-4.7534,-4.821,-4.9847,-5.2051,1.3325,1.1894,1.0717,1.0717,1.0632,0.9436,0.5904,0.2283,-0.0,-0.0,-0.0,-0.0,-0.0,-0.0,-0.0,-0.0,-0.5839,-0.8765,-0.6978,-0.9752,-1.1653,-1.1619,-1.1619,-1.1619,-1.1619,-1.1619,-1.1619,-1.1619,-1.1619,-1.1619,-1.1619,-1.1619,-1.1619,-1.1619,-1.1619,-1.1619,-1.1619,-1.1619,-1.1619,-1.1619,-1.1619,-1.2459,-1.4014,-1.429,-1.6545,-1.9634,-1.9912,-2.1321,-2.2859,-2.2859,-2.2859,-2.2859,-2.2859,-2.2859,-2.2859,-2.2859,-2.2859,-2.2859,-2.2859,-2.2859,-2.2859,-2.2859,-2.2859,-2.2859,-2.2859,-2.2859,-2.2859,-2.2859,-2.2859,-2.2859,-2.2859,-2.2859,-2.2859,-2.2859,-2.2859,-2.2859,-2.2859,-2.3133,-2.406,-2.5786,-2.7998,-3.0715,-3.4367,-3.5508,-3.6016,-3.6016,-3.6016,-3.6016,-3.6016,-3.6016,-3.6016,-3.6016,-3.6016,-3.6016,-3.6016,-3.7709,-3.9387,-4.0795,-4.2454,-4.4374,-4.6301,-4.6035,-4.6059,-4.6301,-4.6301,-4.6301,-4.6301,-4.6301,-4.6301,-4.6301,-4.6301,-4.6301,-4.6541,-4.7977,-5.0184,-5.2857,1.3325,1.1894,1.0717,1.0717,1.0632,0.9436,0.5904,0.2283,-0.0,-0.0,-0.0,-0.0,-0.0,-0.0,-0.0,-0.0,-0.1021,-0.4228,-1.0372,-1.126,-1.1529,-1.1619,-1.1619,-1.1619,-1.1619,-1.1619,-1.1619,-1.1619,-1.1619,-1.1619,-1.1619,-1.1619,-1.1619,-1.1619,-1.1619,-1.1619,-1.1619,-1.1619,-1.1619,-1.1619,-1.1619,-1.1763,-1.218,-1.3729,-1.5698,-1.7809,-1.9495,-2.1321,-2.2859,-2.2859,-2.2859,-2.2859,-2.2859,-2.2859,-2.2859,-2.2859,-2.2859,-2.2859,-2.2859,-2.2859,-2.2859,-2.2859,-2.2859,-2.2859,-2.2859,-2.2859,-2.2859,-2.2859,-2.2859,-2.2859,-2.2859,-2.2859,-2.2859,-2.2859,-2.2859,-2.2859,-2.2859,-2.4196,-2.5786,-2.7635,-3.1384,-3.4027,-3.4687,-3.5508,-3.6016,-3.6016,-3.6016,-3.6016,-3.6016,-3.6016,-3.6016,-3.6016,-3.6016,-3.6016,-3.6016,-3.7709,-3.8729,-3.8993,-4.0666,-4.3232,-4.6301,-4.4767,-4.489,-4.6301,-4.6301,-4.6301,-4.6301,-4.6301,-4.6301,-4.6301,-4.6301,-4.6301,-4.6541,-4.7977,-4.9508,-5.1263,1.1894,1.124,1.0724,1.0738,1.0645,1.0124,0.8628,0.3631,-0.0,-0.0,-0.0,-0.0,-0.0,-0.0,-0.0,-0.0,-0.0,-0.1455,-0.4944,-0.9179,-1.1667,-1.164,-1.1626,-1.1619,-1.1619,-1.1619,-1.1619,-1.1619,-1.1619,-1.1619,-1.1619,-1.1619,-1.1619,-1.1619,-1.1619,-1.1619,-1.1619,-1.1619,-1.1619,-1.1619,-1.1619,-1.1619,-1.1763,-1.2466,-1.4716,-1.7529,-2.0617,-2.216,-2.2859,-2.2859,-2.2859,-2.2859,-2.2859,-2.2859,-2.2859,-2.2859,-2.2859,-2.2859,-2.2859,-2.2859,-2.2859,-2.2859,-2.2859,-2.2859,-2.2859,-2.2859,-2.2859,-2.2859,-2.2859,-2.2859,-2.2859,-2.2859,-2.2859,-2.2859,-2.2859,-2.2859,-2.2859,-2.4452,-2.6651,-2.9636,-3.2843,-3.4805,-3.5059,-3.5644,-3.6016,-3.6016,-3.6016,-3.6016,-3.6016,-3.6016,-3.6016,-3.6016,-3.6016,-3.6016,-3.6016,-3.7709,-3.8597,-3.8597,-3.9387,-4.1565,-4.489,-4.4103,-4.462,-4.6301,-4.6301,-4.6301,-4.6301,-4.6301,-4.6301,-4.6301,-4.6301,-4.6301,-4.6541,-4.7977,-4.9395,-5.0933]},{"header":{"parameterUnit":"m.s-1","parameterCategory":1,"la1":30.6,"la2":28.766,"lo1":-90.7593,"lo2":-88.6598,"dy":0.0162,"dx":0.0183,"nx":116,"ny":114,"refTime":"2023-04-10T06:00:00:Z","depth":0,"parameterNumber":3,"parameterNumberName":"V-component_of_WINDS"},"data":[0.0,0.0,0.0,0.0,0.0,0.0,0.0,0.0,0.0,0.0,0.0,0.0,0.0,0.0,0.0,0.0,0.0,0.0,0.0,0.0,0.0,0.0,0.0,0.0,0.0,0.0,0.0,0.0,0.0,0.0,0.0,0.0,0.0,0.0,0.0,0.0,0.0,0.0,0.0,0.0,0.0,0.0,0.0,0.0,0.0,0.0,0.0,0.0,0.0,0.0,0.0,0.0,0.0,0.0,0.0,0.0,0.0,0.0,0.0,0.0,0.0,0.0,0.0,0.0,0.0,0.0,0.0,0.0,0.0,0.0,0.0,0.0,0.0,0.0,0.0,0.0,0.0,0.0,0.0,0.0,0.0,0.0,0.0,0.0,0.0,0.0,0.0,0.0,0.0,0.0,0.0,0.0,0.0,0.0,0.0,0.0,0.0,0.0,0.0,0.0,0.0,0.0,0.0,0.0,0.0,0.0,0.0,0.0,0.0,0.0,0.0,0.0,0.0,0.0,0.0,0.0,0.0,0.0,0.0,0.0,0.0,0.0,0.0,0.0,0.0,0.0,0.0,0.0,0.0,0.0,0.0,0.0,0.0,0.0,0.0,0.0,0.0,0.0,0.0,0.0,0.0,0.0,0.0,0.0,0.0,0.0,0.0,0.0,0.0,0.0,0.0,0.0,0.0,0.0,0.0,0.0,0.0,0.0,0.0,0.0,0.0,0.0,0.0,0.0,0.0,0.0,0.0,0.0,0.0,0.0,0.0,0.0,0.0,0.0,0.0,0.0,0.0,0.0,0.0,0.0,0.0,0.0,0.0,0.0,0.0,0.0,0.0,0.0,0.0,0.0,0.0,0.0,0.0,0.0,0.0,0.0,0.0,0.0,0.0,0.0,0.0,0.0,0.0,0.0,0.0,0.0,0.0,0.0,0.0,0.0,0.0,0.0,0.0,0.0,0.0,0.0,0.0,0.0,0.0,0.0,0.0,0.0,0.0,0.0,0.0,0.0,0.0,0.0,0.0,0.0,0.0,0.0,0.0,0.0,0.0,0.0,0.0,0.0,0.0,0.0,0.0,0.0,0.0,0.0,0.0,0.0,0.0,0.0,0.0,0.0,0.0,0.0,0.0,0.0,0.0,0.0,0.0,0.0,0.0,0.0,0.0,0.0,0.0,0.0,0.0,0.0,0.0,0.0,0.0,0.0,0.0,0.0,0.0,0.0,0.0,0.0,0.0,0.0,0.0,0.0,0.0,0.0,0.0,0.0,0.0,0.0,0.0,0.0,0.0,0.0,0.0,0.0,0.0,0.0,0.0,0.0,0.0,0.0,0.0,0.0,0.0,0.0,0.0,0.0,0.0,0.0,0.0,0.0,0.0,0.0,0.0,0.0,0.0,0.0,0.0,0.0,0.0,0.0,0.0,0.0,0.0,0.0,0.0,0.0,0.0,0.0,0.0,0.0,0.0,0.0,0.0,0.0,0.0,0.0,0.0,0.0,0.0,0.0,0.0,0.0,0.0,0.0,0.0,0.0,0.0,0.0,0.0,0.0,0.0,0.0,0.0,0.0,0.0,0.0,0.0,0.0,0.0,0.0,0.0,0.0,0.0,0.0,0.0,0.0,0.0,0.0,0.0,0.0,0.0,0.0,0.0,0.0,0.0,0.0,0.0,0.0,0.0,0.0,0.0,0.0,0.0,0.0,0.0,0.0,0.0,0.0,0.0,0.0,0.0,0.0,0.0,0.0,0.0,0.0,0.0,0.0,0.0,0.0,0.0,0.0,0.0,0.0,0.0,0.0,0.0,0.0,0.0,0.0,0.0,0.0,0.0,0.0,0.0,0.0,0.0,0.0,0.0,0.0,0.0,0.0,0.0,0.0,0.0,0.0,0.0,0.0,0.0,0.0,0.0,0.0,0.0,0.0,0.0,0.0,0.0,0.0,0.0,0.0,0.0,0.0,0.0,0.0,0.0,0.0,0.0,0.0,0.0,0.0,0.0,0.0,0.0,0.0,0.0,0.0,0.0,0.0,0.0,0.0,0.0,0.0,0.0,0.0,0.0,0.0,0.0,0.0,0.0,0.0,0.0,0.0,0.0,0.0,0.0,0.0,0.0,0.0,0.0,0.0,0.0,0.0,0.0,0.0,0.0,0.0,0.0,0.0,0.0,0.0,0.0,0.0,0.0,0.0,0.0,0.0,0.0,0.0,0.0,0.0,0.0,0.0,0.0,0.0,0.0,0.0,0.0,0.0,0.0,0.0,0.0,0.0,0.0,0.0,0.0,0.0,0.0,0.0,0.0,0.0,0.0,0.0,0.0,0.0,0.0,0.0,0.0,0.0,0.0,0.0,0.0,0.0,0.0,0.0,0.0,0.0,0.0,0.0,0.0,0.0,0.0,0.0,0.0,0.0,0.0,0.0,0.0,0.0,0.0,0.0,0.0,0.0,0.0,0.0,0.0,0.0,0.0,0.0,0.0,0.0,0.0,0.0,0.0,0.0,0.0,0.0,0.0,0.0,0.0,0.0,0.0,0.0,0.0,0.0,0.0,0.0,0.0,0.0,0.0,0.0,0.0,0.0,0.0,0.0,0.0,0.0,0.0,0.0,0.0,0.0,0.0,0.0,0.0,0.0,0.0,0.0,0.0,0.0,0.0,0.0,0.0,0.0,0.0,0.0,0.0,0.0,0.0,0.0,0.0,0.0,0.0,0.0,0.0,0.0,0.0,0.0,0.0,0.0,0.0,0.0,0.0,0.0,0.0,0.0,0.0,0.0,0.0,0.0,0.0,0.0,0.0,0.0,0.0,0.0,0.0,0.0,0.0,0.0,0.0,0.0,0.0,0.0,0.0,0.0,0.0,0.0,0.0,0.0,0.0,0.0,0.0,0.0,0.0,0.0,0.0,0.0,0.0,0.0,0.0,0.0,0.0,0.0,0.0,0.0,0.0,0.0,0.0,0.0,0.0,0.0,0.0,0.0,0.0,0.0,0.0,0.0,0.0,0.0,0.0,0.0,0.0,0.0,0.0,0.0,0.0,0.0,0.0,0.0,0.0,0.0,0.0,0.0,0.0,0.0,0.0,0.0,0.0,0.0,0.0,0.0,0.0,0.0,0.0,0.0,0.0,0.0,0.0,0.0,0.0,0.0,0.0,0.0,0.0,0.0,0.0,0.0,0.0,0.0,0.0,0.0,0.0,0.0,0.0,0.0,0.0,0.0,0.0,0.0,0.0,0.0,0.0,0.0,0.0,0.0,0.0,0.0,0.0,0.0,0.0,0.0,0.0,0.0,0.0,0.0,0.0,0.0,0.0,0.0,0.0,0.0,0.0,0.0,0.0,0.0,0.0,0.0,0.0,0.0,0.0,0.0,0.0,0.0,0.0,0.0,0.0,0.0,0.0,0.0,0.0,0.0,0.0,0.0,0.0,0.0,0.0,0.0,0.0,0.0,0.0,0.0,0.0,0.0,0.0,0.0,0.0,0.0,0.0,0.0,0.0,0.0,0.0,0.0,0.0,0.0,0.0,0.0,0.0,0.0,0.0,0.0,0.0,0.0,0.0,0.0,0.0,0.0,0.0,0.0,0.0,0.0,0.0,0.0,0.0,0.0,0.0,0.0,0.0,0.0,0.0,0.0,0.0,0.0,0.0,0.0,0.0,0.0,0.0,0.0,0.0,0.0,0.0,0.0,0.0,0.0,0.0,0.0,0.0,0.0,0.0,0.0,0.0,0.0,0.0,0.0,0.0,0.0,0.0,0.0,0.0,0.0,0.0,0.0,0.0,0.0,0.0,0.0,0.0,0.0,0.0,0.0,0.0,0.0,0.0,0.0,0.0,0.0,0.0,0.0,0.0,0.0,0.0,0.0,0.0,0.0,0.0,0.0,0.0,0.0,0.0,0.0,0.0,0.0,0.0,0.0,0.0,0.0,0.0,0.0,0.0,0.0,0.0,0.0,0.0,0.0,0.0,0.0,0.0,0.0,0.0,0.0,0.0,0.0,0.0,0.0,0.0,0.0,0.0,0.0,0.0,0.0,0.0,0.0,0.0,0.0,0.0,0.0,0.0,0.0,0.0,0.0,0.0,0.0,0.0,0.0,0.0,0.0,0.0,0.0,0.0,0.0,0.0,0.0,0.0,0.0,0.0,0.0,0.0,0.0,0.0,0.0,0.0,0.0,0.0,0.0,0.0,0.0,0.0,0.0,0.0,0.0,0.0,0.0,0.0,0.0,0.0,0.0,0.0,0.0,0.0,0.0,0.0,0.0,0.0,0.0,0.0,0.0,0.0,0.0,0.0,0.0,0.0,0.0,0.0,0.0,0.0,0.0,0.0,0.0,0.0,0.0,0.0,0.0,0.0,0.0,0.0,0.0,0.0,0.0,0.0,0.0,0.0,0.0,0.0,0.0,0.0,0.0,0.0,0.0,0.0,0.0,0.0,0.0,0.0,0.0,0.0,0.0,0.0,0.0,0.0,0.0,0.0,0.0,0.0,0.0,0.0,0.0,0.0,0.0,0.0,0.0,0.0,0.0,0.0,0.0,0.0,0.0,0.0,0.0,0.0,0.0,0.0,0.0,0.0,0.0,0.0,0.0,0.0,0.0,0.0,0.0,0.0,0.0,0.0,0.0,0.0,0.0,0.0,0.0,0.0,0.0,0.0,0.0,0.0,0.0,0.0,0.0,0.0,0.0,0.0,0.0,0.0,0.0,0.0,0.0,0.0,0.0,0.0,0.0,0.0,0.0,0.0,0.0,0.0,0.0,0.0,0.0,0.0,0.0,0.0,0.0,0.0,0.0,0.0,0.0,0.0,0.0,0.0,0.0,0.0,0.0,0.0,0.0,0.0,0.0,0.0,0.0,0.0,0.0,0.0,0.0,0.0,0.0,0.0,0.0,0.0,0.0,0.0,0.0,0.0,0.0,0.0,0.0,0.0,0.0,0.0,0.0,0.0,0.0,0.0,0.0,0.0,0.0,0.0,0.0,0.0,0.0,0.0,0.0,0.0,0.0,0.0,0.0,0.0,0.0,0.0,0.0,0.0,0.0,0.0,0.0,0.0,0.0,0.0,0.0,0.0,0.0,0.0,0.0,0.0,0.0,0.0,0.0,0.0,0.0,0.0,0.0,0.0,0.0,0.0,0.0,0.0,0.0,0.0,0.0,0.0,0.0,0.0,0.0,0.0,0.0,0.0,0.0,0.0,0.0,0.0,0.0,0.0,0.0,0.0,0.0,0.0,0.0,0.0,0.0,0.0,0.0,0.0,0.0,0.0,0.0,0.0,0.0,0.0,0.0,0.0,0.0,0.0,0.0,0.0,0.0,0.0,0.0,0.0,0.0,0.0,0.0,0.0,0.0,0.0,0.0,0.0,0.0,0.0,0.0,0.0,0.0,0.0,0.0,0.0,0.0,0.0,0.0,0.0,0.0,0.0,0.0,0.0,0.0,0.0,0.0,0.0,0.0,0.0,0.0,0.0,0.0,0.0,0.0,0.0,0.0,0.0,0.0,0.0,0.0,0.0,0.0,0.0,0.0,0.0,0.0,0.0,0.0,0.0,0.0,0.0,0.0,0.0,0.0,0.0,0.0,0.0,0.0,0.0,0.0,0.0,0.0,0.0,0.0,0.0,0.0,0.0,0.0,0.0,0.0,0.0,0.0,0.0,0.0,0.0,0.0,0.0,0.0,0.0,0.0,0.0,0.0,0.0,0.0,0.0,0.0,0.0,0.0,0.0,0.0,0.0,0.0,0.0,0.0,0.0,0.0,0.0,0.0,0.0,0.0,0.0,0.0,0.0,0.0,0.0,0.0,0.0,0.0,0.0,0.0,0.0,0.0,0.0,0.0,0.0,0.0,0.0,0.0,0.0,0.0,0.0,0.0,0.0,0.0,0.0,0.0,0.0,0.0,0.0,0.0,0.0,0.0,0.0,0.0,0.0,0.0,0.0,0.0,0.0,0.0,0.0,0.0,0.0,0.0,0.0,0.0,0.0,0.0,0.0,0.0,0.0,0.0,0.0,0.0,0.0,0.0,0.0,0.0,0.0,0.0,0.0,0.0,0.0,0.0,0.0,0.0,0.0,0.0,0.0,0.0,0.0,0.0,0.0,0.0,0.0,0.0,0.0,0.0,6.6233,6.7122,0.0,0.0,0.0,0.0,0.0,0.0,0.0,0.0,0.0,0.0,0.0,0.0,0.0,0.0,0.0,0.0,0.0,0.0,0.0,0.0,0.0,0.0,0.0,0.0,0.0,0.0,0.0,0.0,0.0,0.0,0.0,0.0,0.0,0.0,0.0,0.0,4.3329,4.3329,4.3329,4.3329,4.3329,4.3329,4.3329,4.3329,0.0,0.0,0.0,0.0,0.0,0.0,0.0,0.0,0.0,0.0,0.0,0.0,0.0,0.0,0.0,0.0,0.0,0.0,0.0,0.0,0.0,0.0,0.0,0.0,0.0,0.0,0.0,0.0,0.0,0.0,0.0,0.0,0.0,0.0,0.0,0.0,0.0,0.0,0.0,0.0,0.0,0.0,0.0,0.0,0.0,0.0,0.0,0.0,0.0,0.0,0.0,0.0,0.0,0.0,0.0,0.0,0.0,0.0,0.0,0.0,0.0,0.0,0.0,0.0,0.0,0.0,0.0,0.0,0.0,0.0,6.7225,6.8111,0.0,0.0,0.0,0.0,0.0,0.0,0.0,0.0,0.0,0.0,0.0,0.0,0.0,0.0,0.0,0.0,0.0,0.0,0.0,0.0,0.0,0.0,0.0,4.3329,4.3329,4.3329,4.3329,4.3329,4.3329,0.0,0.0,0.0,0.0,0.0,4.3509,4.3509,4.3509,4.3509,4.3389,4.3329,4.3329,4.3329,4.3329,4.3329,4.3329,0.0,0.0,0.0,0.0,0.0,0.0,0.0,0.0,0.0,0.0,0.0,0.0,0.0,0.0,0.0,0.0,0.0,0.0,0.0,0.0,0.0,0.0,0.0,0.0,0.0,0.0,0.0,0.0,0.0,0.0,0.0,0.0,0.0,0.0,0.0,0.0,0.0,0.0,0.0,0.0,0.0,0.0,0.0,0.0,0.0,0.0,0.0,0.0,0.0,0.0,0.0,0.0,0.0,0.0,0.0,0.0,0.0,0.0,0.0,0.0,0.0,0.0,0.0,6.247,6.3305,6.4254,6.5013,6.615,6.7604,6.8178,6.9056,7.02,7.1814,0.0,0.0,0.0,0.0,0.0,0.0,0.0,0.0,0.0,0.0,0.0,0.0,0.0,0.0,0.0,0.0,0.0,0.0,0.0,4.324,4.3329,4.3329,4.3329,4.3329,4.3329,4.3329,4.3329,4.3329,4.3329,4.3329,4.3898,4.4197,4.4197,4.4197,4.4197,4.4197,4.3629,4.3329,4.3329,4.3329,4.3329,4.3329,4.3329,4.3329,4.3329,0.0,0.0,0.0,0.0,0.0,0.0,0.0,0.0,0.0,0.0,0.0,0.0,0.0,0.0,0.0,0.0,0.0,0.0,0.0,0.0,0.0,0.0,0.0,0.0,0.0,0.0,0.0,0.0,0.0,0.0,0.0,0.0,0.0,0.0,0.0,0.0,0.0,0.0,0.0,0.0,0.0,5.4929,5.345,0.0,0.0,0.0,0.0,0.0,0.0,0.0,0.0,0.0,0.0,0.0,0.0,0.0,5.8579,6.0248,5.9643,6.0475,6.2654,6.2749,6.3503,6.4807,6.6313,6.7593,6.8739,6.9497,0.0,7.0205,7.166,0.0,0.0,0.0,0.0,0.0,0.0,0.0,0.0,0.0,0.0,0.0,0.0,0.0,0.0,0.0,0.0,0.0,0.0,0.0,0.0,0.0,4.3329,4.3329,4.3329,4.3329,4.3329,4.3329,4.3329,4.3329,4.3329,4.3958,4.4317,4.4317,4.4317,4.4137,4.3778,4.3479,4.3329,4.3329,4.3329,4.3329,4.3329,4.3329,4.3329,4.3329,4.3329,0.0,0.0,0.0,0.0,0.0,0.0,0.0,0.0,0.0,0.0,0.0,0.0,0.0,0.0,0.0,0.0,0.0,0.0,0.0,0.0,0.0,0.0,0.0,0.0,0.0,0.0,0.0,0.0,0.0,0.0,0.0,0.0,0.0,0.0,0.0,0.0,0.0,0.0,0.0,5.5191,5.4661,5.3381,5.4748,5.578,0.0,0.0,0.0,0.0,0.0,0.0,0.0,0.0,0.0,5.6337,5.7821,5.8966,5.9646,6.0226,6.1076,6.2166,6.3415,6.4535,6.5613,6.7419,6.8715,6.9633,7.0776,7.1324,7.1544,7.2728,7.3583,7.4353,0.0,0.0,0.0,0.0,7.7187,7.7187,0.0,0.0,0.0,0.0,0.0,0.0,0.0,0.0,0.0,0.0,0.0,0.0,4.3329,4.3329,4.3329,4.3329,4.3329,4.3329,4.3329,4.3329,4.3329,4.3329,4.4137,4.4556,4.4556,4.4556,4.4167,4.3329,4.3329,4.3329,4.3329,4.3329,4.3329,4.3329,4.3329,4.3329,4.3329,4.3329,4.3329,4.3329,0.0,0.0,0.0,0.0,0.0,0.0,0.0,0.0,0.0,0.0,0.0,0.0,0.0,0.0,0.0,0.0,0.0,0.0,0.0,0.0,0.0,0.0,0.0,0.0,0.0,0.0,0.0,0.0,0.0,0.0,0.0,0.0,0.0,0.0,0.0,0.0,0.0,5.4591,5.4287,5.3608,5.4652,5.5667,0.0,0.0,0.0,0.0,0.0,0.0,5.5992,5.6578,5.6987,5.7121,5.8437,5.9362,5.9733,6.0961,6.1897,6.2453,6.4298,6.5789,6.6875,6.8484,6.9737,7.0675,7.1822,7.2607,7.3199,7.3967,7.4714,7.548,7.6649,7.7147,7.7187,7.7187,7.7187,7.7187,0.0,0.0,0.0,0.0,0.0,0.0,0.0,0.0,0.0,0.0,0.0,4.3329,4.3329,4.3329,4.3329,4.3329,4.3329,4.3329,4.3329,4.3329,4.3329,4.3329,4.4556,4.5244,4.5244,4.5244,4.4616,4.3329,4.3329,4.3329,4.3329,4.3329,4.3329,4.3329,4.3329,4.3329,4.3329,4.3329,4.3329,4.3329,4.3329,0.0,0.0,0.0,0.0,0.0,0.0,0.0,0.0,0.0,0.0,0.0,0.0,0.0,0.0,0.0,0.0,0.0,0.0,0.0,0.0,0.0,0.0,0.0,0.0,0.0,0.0,0.0,0.0,0.0,0.0,0.0,0.0,0.0,0.0,0.0,0.0,0.0,0.0,5.451,5.4572,0.0,0.0,0.0,0.0,5.6879,5.6143,5.6027,5.669,5.6782,5.7157,5.7936,5.8695,5.9889,6.1456,6.1548,6.2631,6.4741,6.5605,6.6958,6.8803,6.9637,7.0783,7.2129,7.2368,7.339,7.4883,7.4922,7.5215,7.567,7.6575,7.7048,7.7187,7.7187,7.7187,7.7187,0.0,0.0,0.0,0.0,0.0,0.0,0.0,0.0,4.3329,4.3329,4.3329,4.3329,4.3329,4.3329,4.3329,4.3329,4.3329,4.3329,4.3329,4.3329,4.3329,4.3329,4.4197,4.4676,4.4676,4.4676,4.4227,4.3329,4.3329,4.3329,4.3329,4.3329,4.3329,4.3329,4.3329,4.3329,4.3329,4.3329,4.3569,4.3958,4.3958,4.4377,0.0,0.0,0.0,0.0,0.0,0.0,0.0,0.0,0.0,0.0,0.0,0.0,0.0,0.0,0.0,0.0,0.0,0.0,0.0,0.0,0.0,0.0,0.0,0.0,0.0,0.0,0.0,0.0,0.0,0.0,0.0,0.0,0.0,0.0,0.0,0.0,0.0,5.4606,5.4606,0.0,5.5262,5.5539,5.5837,5.6152,5.5847,5.6031,5.6781,5.7329,5.791,5.8695,6.0035,6.0961,6.1604,6.3035,6.416,6.4905,6.6934,6.8256,6.8946,7.008,7.1272,7.2445,7.3059,7.4106,7.5429,7.6001,7.6303,7.6458,7.6935,7.7145,7.7187,7.7187,7.7187,7.7187,0.0,0.0,0.0,0.0,0.0,0.0,0.0,4.3329,4.3329,4.3329,4.3329,4.3329,4.3329,4.3329,4.3329,4.3329,4.3329,4.3329,4.3329,4.3329,4.3329,4.3329,4.3958,4.4317,4.4317,4.4317,4.3988,4.3329,4.3329,4.3329,4.3329,4.3329,4.3329,4.3329,4.3329,4.3449,4.3658,4.3658,4.3928,4.4347,4.4556,4.5035,4.5633,0.0,0.0,0.0,0.0,0.0,0.0,0.0,0.0,0.0,0.0,0.0,0.0,0.0,0.0,0.0,0.0,0.0,0.0,0.0,0.0,0.0,0.0,0.0,0.0,0.0,0.0,0.0,0.0,0.0,0.0,0.0,0.0,0.0,0.0,5.5059,5.4606,5.4606,5.4598,5.4799,5.5262,5.5554,5.5816,5.6091,5.6098,5.6393,5.7137,5.7947,5.8724,5.9474,6.0843,6.1987,6.272,6.416,6.5347,6.6284,6.8063,6.9126,6.9628,7.0848,7.1974,7.2985,7.3989,7.5054,7.6106,7.6756,7.7,7.7005,7.7147,7.7187,7.7187,7.7187,7.7187,7.7187,0.0,0.0,0.0,0.0,0.0,0.0,4.324,4.3329,4.3329,4.3329,4.3329,4.3329,4.3329,4.3329,4.3329,4.3329,4.3329,4.3329,4.3329,4.3329,4.3329,4.3329,4.3958,4.4287,4.4287,4.4287,4.3958,4.3329,4.3329,4.3329,4.3329,4.3329,4.3329,4.3329,4.3359,4.3718,4.4317,4.4347,4.4377,4.4436,4.5065,4.5753,4.6352,0.0,0.0,0.0,0.0,0.0,0.0,0.0,0.0,0.0,0.0,0.0,0.0,0.0,0.0,0.0,0.0,0.0,0.0,0.0,0.0,0.0,0.0,0.0,0.0,0.0,0.0,0.0,0.0,0.0,0.0,0.0,0.0,0.0,5.5552,5.5059,5.4579,5.4579,5.4629,5.4634,5.4634,5.531,5.6055,5.6765,5.6833,5.7137,5.7848,5.8703,5.9509,6.0335,6.1207,6.272,6.4905,6.4986,6.6284,6.8908,6.894,6.9628,7.1002,7.2043,7.2985,7.3917,7.5073,7.6106,7.6926,7.7105,7.7187,7.7187,7.7187,7.7187,7.7187,7.7187,7.7187,7.7147,0.0,0.0,0.0,0.0,0.0,0.0,4.3299,4.3329,4.3329,4.3329,4.3329,4.3329,4.3329,4.3329,4.3329,4.3329,4.3329,4.3329,4.3329,4.3329,4.3329,4.3329,4.3509,4.3599,4.3599,4.3599,4.3509,4.3329,4.3329,4.3329,4.3329,4.3329,4.3329,4.3359,4.3838,4.4137,4.4377,4.5364,4.5783,4.5783,4.5963,4.6441,4.704,0.0,0.0,0.0,0.0,0.0,0.0,0.0,0.0,0.0,0.0,0.0,0.0,0.0,0.0,0.0,0.0,0.0,0.0,0.0,0.0,0.0,0.0,0.0,0.0,0.0,0.0,0.0,0.0,0.0,0.0,0.0,5.5694,5.5293,5.4948,5.4746,5.4633,5.4633,5.5042,5.5412,5.5412,5.6055,5.6596,5.6799,5.7306,5.7679,5.7881,5.9279,6.0149,6.0397,6.2385,6.3873,6.4905,6.6458,6.777,6.8908,6.9911,7.0952,7.2043,7.2362,7.3462,7.5123,7.546,7.6175,7.7105,7.7187,7.7187,7.7187,7.7187,7.7187,7.7187,7.7048,7.6872,7.6749,0.0,0.0,0.0,0.0,0.0,0.0,4.3329,4.3329,4.3329,4.3329,4.3329,4.3329,4.3329,4.3329,4.3329,4.3329,4.3329,4.3329,4.3329,4.3329,4.3329,4.3329,4.3329,4.3329,4.3329,4.3329,4.3329,4.3329,4.3329,4.3329,4.3329,4.3629,4.3748,4.3778,4.4436,4.4885,4.5214,4.5992,4.6471,4.6741,4.6741,4.695,4.7309,4.7309,4.7849,4.8708,4.9215,5.0397,5.1809,5.2383,0.0,0.0,0.0,0.0,0.0,0.0,0.0,0.0,0.0,0.0,0.0,0.0,0.0,0.0,0.0,0.0,0.0,0.0,0.0,0.0,0.0,0.0,0.0,0.0,5.5715,5.5547,5.5101,5.5077,5.5074,5.5074,5.5716,5.6156,5.6156,5.6833,5.7273,5.7273,5.7645,5.8065,5.8388,6.0019,6.1077,6.1379,6.3685,6.5385,6.6223,6.7694,6.8853,6.9735,7.0979,7.1881,7.252,7.3401,7.4455,7.5645,7.6063,7.6632,7.7187,7.7187,7.7147,7.7097,0.0,0.0,0.0,0.0,7.6663,7.6531,0.0,0.0,0.0,0.0,0.0,0.0,4.3329,4.3329,4.3329,4.3329,4.3329,4.3329,4.3329,4.3329,4.3329,4.3329,4.3329,4.3329,4.3329,4.3329,4.3329,4.3329,4.3329,4.3329,4.3329,4.3329,4.3329,4.3329,4.3419,4.3449,4.3449,4.4107,4.4436,4.4436,4.5125,4.5753,4.6322,4.6411,4.677,4.7309,4.7309,4.7309,4.7309,4.7309,4.8543,5.0165,5.0087,5.1484,5.328,5.3179,0.0,0.0,0.0,0.0,0.0,0.0,0.0,0.0,0.0,0.0,0.0,0.0,0.0,0.0,0.0,0.0,0.0,0.0,0.0,0.0,0.0,0.0,0.0,0.0,5.5791,5.5852,5.5852,5.5919,5.5919,5.5852,5.6494,5.6934,5.6934,5.7509,5.7881,5.7881,5.7881,5.828,5.9182,6.0733,0.0,0.0,0.0,6.6812,6.8107,6.8707,6.9743,7.1052,7.202,7.2618,7.289,7.4761,7.5684,7.5813,7.6792,7.7187,7.7187,7.7187,7.7052,7.6872,7.7055,7.7,7.6829,7.6728,7.6594,7.656,0.0,0.0,0.0,0.0,0.0,0.0,4.3329,4.3329,4.3329,4.3329,4.3329,4.3329,4.3329,4.3329,4.3329,4.3329,4.3329,4.3329,4.3329,4.3329,4.3329,4.3329,4.3329,4.3329,4.3329,4.3329,4.3329,4.3329,4.3868,4.4137,4.4137,4.4796,4.5095,4.5125,4.5813,4.6202,4.6352,4.689,4.7189,4.7309,4.7309,4.7309,4.7309,4.7309,4.8072,4.8973,4.8157,4.9773,5.2098,5.1262,5.2098,5.3518,5.3518,5.3518,0.0,0.0,0.0,0.0,0.0,0.0,0.0,0.0,0.0,0.0,0.0,0.0,0.0,0.0,0.0,0.0,0.0,0.0,0.0,5.6547,5.6577,5.6596,5.6596,5.7103,5.7239,5.6664,5.7239,5.7679,5.7679,5.7814,5.7881,5.7881,5.7881,5.8518,6.0046,6.1078,6.2281,6.3697,6.5915,6.7411,6.8107,6.9277,7.0554,7.1937,7.2329,0.0,7.4787,7.5347,7.6063,7.6912,7.7109,7.7187,7.7187,7.7005,7.6847,7.6638,7.6715,7.6582,7.6497,7.7175,7.7263,7.7207,0.0,0.0,0.0,0.0,0.0,0.0,4.3329,4.3329,4.3329,4.3329,4.3329,4.3329,4.3329,4.3329,4.3329,4.3329,4.3329,4.3329,4.3329,4.3329,4.3329,4.3329,4.3329,4.3329,4.3329,4.3658,4.3838,4.3838,4.4496,4.4796,4.4825,4.5484,4.5813,4.5843,4.6501,4.68,4.683,4.716,4.7309,4.7309,4.7309,4.7309,4.7309,4.7309,4.7904,4.8841,4.8841,5.0165,5.1921,5.1954,5.2661,5.3518,5.3518,5.3518,5.3518,0.0,0.0,0.0,0.0,0.0,0.0,0.0,0.0,0.0,0.0,0.0,0.0,0.0,0.0,5.6364,5.672,0.0,5.6802,5.6782,5.7117,5.734,5.734,5.7645,5.7746,5.7374,5.7679,5.7881,5.7881,5.7881,5.8051,5.8423,5.8457,5.9347,6.145,6.2293,6.3535,6.5204,6.7205,6.842,6.8671,7.0324,7.1545,7.2375,7.3394,7.4452,7.5474,7.6131,7.6673,7.7187,7.7187,7.7145,7.7048,7.6727,7.6521,7.6438,7.6359,7.6566,7.7008,7.7305,7.7649,7.8015,0.0,0.0,0.0,0.0,0.0,0.0,4.325,4.3329,4.3329,4.3329,4.3329,4.3329,4.3329,4.3329,4.3329,4.3329,4.3329,4.3329,4.3329,4.3329,4.3329,4.3329,4.3329,4.3389,4.3509,4.4047,4.4377,4.4496,4.5185,4.5484,4.5514,4.6202,4.6501,4.6531,4.707,4.7309,4.7309,4.7309,4.7309,4.7309,4.7309,4.7309,4.7309,4.7538,4.821,4.9215,4.9852,5.1005,5.2312,5.2939,5.3348,5.3518,5.3518,5.3518,5.3518,5.3518,5.3717,0.0,0.0,0.0,0.0,0.0,0.0,0.0,0.0,5.6456,5.6633,5.6493,5.6596,5.6667,5.6767,5.729,5.7569,5.7111,5.7509,5.7881,5.7881,5.7881,5.7881,5.7881,5.7881,5.7949,5.8084,5.8118,5.8423,5.9167,5.9349,6.0529,6.2811,6.3705,6.4999,6.6817,6.8459,6.9428,6.9699,7.1406,7.2505,7.2985,7.4592,7.5541,7.5872,7.679,7.7187,7.7145,7.71,7.6995,7.68,7.6457,7.6273,7.6219,7.6244,7.6905,7.7742,7.7593,7.8054,7.8861,0.0,0.0,0.0,0.0,0.0,0.0,0.0,0.0,4.3329,4.3329,4.3329,4.3329,4.3329,4.3329,4.3329,4.3329,4.3329,4.3329,4.3329,4.3329,4.3329,4.3329,4.3329,4.3599,4.4197,4.4287,4.4586,4.5185,4.5873,4.6202,4.6232,4.689,4.7189,4.7189,4.7279,4.7309,4.7309,4.7309,4.7309,4.7309,4.7309,4.7309,4.7396,4.8293,4.9296,5.0087,4.9296,5.0855,5.3179,5.2383,5.2697,5.3518,5.3518,5.3518,5.3518,5.3518,5.4454,5.5495,5.5667,5.6632,5.7315,5.6114,5.6367,5.6349,0.0,5.4908,5.5646,5.4973,5.5349,5.6063,5.667,5.6874,5.7145,5.7645,5.7848,5.7881,5.7881,5.7881,5.7881,5.7881,5.7881,5.8152,5.8829,5.8896,5.9201,5.9911,6.0724,6.1987,6.3689,6.4588,6.6024,6.8219,6.894,6.9928,7.1169,7.2032,7.3214,7.4728,7.5312,7.5975,7.6763,7.7064,7.7103,7.6933,7.6749,7.6638,7.6636,7.6381,7.621,7.6111,7.6852,7.766,7.8382,7.8391,7.89,7.9785,0.0,0.0,0.0,0.0,0.0,0.0,0.0,0.0,4.1532,4.2193,4.2275,4.2275,4.2275,4.2275,4.2275,4.2275,4.2275,4.2275,4.2275,4.2275,4.2629,4.325,4.3329,4.3629,4.4317,4.4676,4.5214,4.5903,4.6561,4.689,4.689,4.7189,4.7309,4.7309,4.7309,4.7309,4.7309,4.7309,4.7309,4.7309,4.7309,4.7309,4.7366,4.846,4.9456,5.0397,5.0518,5.1451,0.0,5.28,5.311,5.3518,5.3518,5.3518,5.3551,5.3977,5.4606,5.5024,5.5024,5.5836,5.6527,5.5893,5.5948,5.6201,5.6152,5.668,5.7175,5.7304,5.7567,5.786,5.8084,5.8187,5.8082,5.7887,5.7881,5.7881,5.7881,5.8254,5.8558,5.8558,5.893,5.9133,5.9032,5.9404,6.0136,6.1444,6.1878,6.3096,6.5242,6.5682,6.6938,6.9182,6.9772,7.0725,7.2078,7.3318,7.4383,7.5172,7.5991,7.6599,7.7058,7.7026,7.6926,7.6727,7.6488,7.6438,7.64,7.6195,7.6388,7.6784,7.7169,7.8092,7.9246,7.9246,7.9823,8.0592,0.0,0.0,0.0,0.0,0.0,0.0,0.0,0.0,0.0,0.0,4.1169,4.1169,4.1169,4.1169,4.1169,4.1169,4.1169,4.1169,4.1169,4.1169,4.1616,4.282,4.2998,4.3382,4.4033,4.4684,4.5365,4.6016,4.6519,4.6931,4.7309,4.7309,4.7309,4.7309,4.7309,4.7309,4.7309,4.7309,4.7309,4.7309,4.7309,4.7309,4.7452,4.8759,4.9694,5.055,5.1525,5.2065,5.2487,5.328,5.3518,5.3551,5.3717,5.3783,5.3946,5.4695,5.5059,5.5297,5.5495,5.5948,5.6277,5.6059,5.6237,5.6577,5.7568,5.8125,5.8606,5.9195,5.9466,5.9541,5.9469,5.9443,5.9245,5.8703,5.8598,5.8667,5.8872,5.9352,5.9798,6.0004,6.0655,6.093,6.0381,6.0642,6.1405,6.2818,6.3345,6.4468,6.6307,6.6961,6.8125,6.9985,7.0743,7.1861,7.3277,7.4479,7.5305,7.5767,7.6599,7.7022,7.7103,7.6856,7.6702,7.6606,7.6338,7.6266,7.6273,7.6106,7.6515,7.7323,7.7553,7.8515,7.9823,8.0092,8.0554,8.1093,0.0,0.0,0.0,0.0,0.0,0.0,0.0,0.0,0.0,0.0,4.0,4.0,4.0,4.0,4.0,4.0,4.0,4.0,4.0,4.0,4.049,4.1587,4.2276,4.2882,4.343,4.4093,4.4755,4.5479,4.5479,4.6077,4.7309,4.7309,4.7309,4.7309,4.7309,4.7309,4.7309,4.7309,4.7309,4.7309,4.7309,4.7309,4.7538,4.9536,5.0397,5.055,5.1525,5.2557,5.345,5.3518,5.3518,5.3618,5.4328,5.4606,5.4695,5.5437,5.6204,5.6964,5.7726,5.795,5.7774,5.7015,5.749,5.7872,5.7086,5.8119,5.9253,5.9289,5.983,6.0397,6.0335,6.0335,6.0335,6.0335,6.0335,6.0618,6.1361,6.153,6.1813,6.2556,6.3371,6.3766,6.373,6.303,6.2853,6.3615,6.5297,6.6307,6.6404,6.852,6.9947,7.0558,7.1864,7.3308,7.4917,7.5189,7.5806,7.6833,7.7061,7.7103,7.6919,7.651,7.6419,7.6567,7.6185,7.6121,7.6273,7.6079,7.6515,7.7361,7.8169,7.9015,7.99,8.0746,8.1093,8.1093,0.0,0.0,0.0,0.0,0.0,0.0,0.0,0.0,0.0,0.0,0.0,0.0,0.0,0.0,0.0,0.0,3.8738,3.8738,3.8738,3.8738,3.9271,4.0404,4.105,4.1667,4.2223,4.2838,4.3454,4.4163,4.5024,4.5207,4.484,4.655,4.6844,4.6077,4.6931,4.7309,4.7309,4.7309,4.7309,4.7396,4.8072,4.8293,4.8512,5.0595,5.1377,5.1557,0.0,5.3516,5.42,5.42,5.4544,5.4999,5.5262,5.532,5.5495,5.6259,5.7065,5.7583,5.7351,5.7302,5.7361,5.7614,5.7887,5.8461,5.9719,6.0425,6.097,6.1514,6.2135,6.2361,6.1822,6.1715,6.1716,6.1681,6.1401,6.1486,6.2265,6.2832,6.3258,6.3506,6.4215,6.461,6.461,6.4344,6.4552,6.5426,6.6064,6.7055,6.8609,6.936,7.0743,7.2737,7.3347,7.4368,7.5869,7.6183,7.6535,7.6919,7.6952,7.6839,7.651,7.6341,7.625,7.621,7.6052,7.6062,7.6145,7.665,7.7361,7.8169,7.9015,7.99,8.0708,8.0977,8.1093,8.1093,0.0,0.0,0.0,0.0,0.0,0.0,0.0,0.0,0.0,0.0,0.0,0.0,0.0,0.0,0.0,0.0,0.0,3.7494,3.7494,3.7701,3.8333,3.9509,4.0359,4.0865,4.1272,4.1869,4.2358,4.2834,4.3598,4.4069,4.4163,4.5869,4.6432,4.6077,4.6931,4.7309,4.7309,4.7309,4.7309,4.7366,4.8377,4.8841,4.9054,5.1155,5.2103,0.0,5.3482,5.4579,5.5355,5.4757,5.4939,5.5379,5.5948,5.6277,5.6632,5.7166,5.7631,5.7904,5.7401,5.7302,5.7484,5.8282,5.8682,5.9429,6.1419,6.2113,6.254,6.3206,6.3637,6.3846,6.3565,6.341,6.3394,6.3873,6.351,6.3506,6.4303,6.4788,6.5141,6.5262,6.5705,6.6017,6.6211,6.6523,6.6858,6.707,6.7429,6.8468,7.0405,7.0975,7.2081,7.3868,7.4601,7.5422,7.64,7.6738,7.6912,7.6907,7.6828,7.6597,7.6273,7.6219,7.6121,7.6015,7.6015,7.6169,7.6515,7.7053,7.7938,7.9015,7.9592,8.0323,8.1093,8.1093,8.1093,8.1093,0.0,0.0,0.0,0.0,0.0,0.0,0.0,0.0,0.0,0.0,0.0,0.0,0.0,0.0,0.0,0.0,0.0,0.0,3.6358,3.6885,3.7712,3.8792,4.0017,4.0649,4.0552,4.1104,4.1518,4.1518,4.1591,4.2834,4.5115,4.5298,4.5958,4.7106,4.7222,4.7309,4.7309,4.7309,4.7309,4.7452,4.846,4.8891,4.9215,5.1229,5.2461,5.3311,5.4287,5.5588,5.6616,5.5179,5.4757,5.5059,5.651,5.7449,5.7997,5.7997,5.7997,5.7997,5.7997,5.8033,5.8253,5.9061,5.9869,6.083,6.2166,6.3078,6.3766,6.4294,6.4445,6.4709,6.5502,6.5253,6.5341,6.6708,6.6486,6.6425,6.7198,6.7356,6.7455,6.7736,6.7741,6.793,6.8548,6.9304,6.9521,6.8726,6.9472,7.0488,7.1848,7.3155,7.3941,7.4014,7.5504,7.6419,7.6597,7.68,7.687,7.6872,7.669,7.6493,7.6289,7.6106,7.6015,7.6015,7.6015,7.6476,7.7284,7.7323,7.8323,7.9823,7.9862,8.0362,8.1093,8.1093,8.1093,8.1093,0.0,0.0,0.0,0.0,0.0,0.0,0.0,0.0,0.0,0.0,0.0,0.0,0.0,0.0,0.0,0.0,0.0,0.0,3.6358,3.6885,3.7354,3.7642,3.8736,3.9346,3.9346,3.988,4.016,4.016,4.1119,4.1419,4.1219,4.4069,4.5115,4.4535,4.6432,4.7309,4.7309,4.7309,4.7764,4.8512,4.9536,5.0474,5.1229,5.2557,5.3549,5.4287,5.451,5.5203,5.6004,5.6259,5.6668,5.7216,5.7594,5.7821,5.7997,5.7997,5.7997,5.7997,5.7997,5.8437,5.9098,5.9905,6.1015,6.2116,6.3066,6.3784,6.4217,6.437,6.5192,6.5927,6.6155,6.6257,6.6588,6.7537,6.6946,6.6662,6.7473,6.7963,6.824,6.8271,6.8308,6.8735,6.9928,6.9918,7.0526,7.2349,7.1727,7.1886,7.3269,7.3682,7.444,7.5646,7.6226,7.6597,7.6839,7.6874,7.6816,7.6651,7.6475,7.6289,7.6079,7.6034,7.6015,7.6015,7.6015,7.6476,7.7361,7.7938,7.8823,7.9862,8.0516,8.09,8.1093,8.1093,8.1093,8.1093,0.0,0.0,0.0,0.0,0.0,0.0,0.0,0.0,0.0,0.0,0.0,0.0,0.0,0.0,0.0,0.0,0.0,0.0,0.0,3.525,3.5681,3.5681,3.6709,3.7283,3.7283,3.8202,3.8564,3.8344,4.0007,4.0514,4.0282,4.3176,4.4442,4.4442,4.6432,4.7309,4.7309,4.7764,4.8293,0.0,0.0,5.1638,5.253,5.3615,5.4668,5.5645,5.5645,5.6059,5.6789,5.7216,5.7449,5.7546,5.7904,5.7997,5.7997,5.7997,5.7997,5.807,5.8437,5.8877,5.9512,6.0896,6.1849,6.2757,6.399,6.4518,6.4765,6.5003,6.6021,6.6961,6.7345,6.7646,6.8188,6.9228,6.8678,6.8271,6.8721,6.9021,6.9261,0.0,6.9409,6.9971,7.1332,7.1549,7.2355,7.4107,7.3267,7.3344,7.4752,7.4904,7.5386,7.6273,7.6567,7.6786,7.6912,7.6888,7.676,7.6475,7.6341,7.621,7.6015,7.6015,7.6015,7.6015,7.6015,7.6669,7.7861,7.8284,7.9246,8.0439,8.09,8.1093,8.1093,8.1093,8.1093,8.1093,0.0,0.0,0.0,0.0,0.0,0.0,0.0,0.0,0.0,0.0,0.0,0.0,0.0,0.0,0.0,0.0,0.0,0.0,0.0,0.0,3.3742,3.381,3.4706,3.5221,3.5288,3.6703,3.7239,3.6787,3.8881,4.031,4.0949,4.2876,4.4349,4.5479,4.6726,4.7366,4.7538,4.846,4.8973,4.9376,5.1155,5.2461,5.3377,0.0,5.5588,5.6912,5.708,5.751,5.796,5.8051,5.7642,5.7166,5.7774,5.7997,5.7997,5.8051,5.8116,5.8336,5.9173,5.9504,6.0112,6.2029,6.265,6.3158,6.4747,6.5154,6.5408,6.5999,6.6879,6.7888,6.8741,6.9115,6.9706,7.0905,7.0479,7.0019,6.9988,7.0137,7.0375,7.0684,7.0793,7.1408,7.275,7.3548,7.421,7.4896,7.452,7.4765,7.5957,7.6219,7.6341,7.6361,7.6749,7.6948,7.6919,7.6864,7.6651,7.6295,7.625,7.616,7.6015,7.6015,7.6015,7.6015,7.613,7.7053,7.8515,7.8631,7.9631,8.1093,8.1093,8.1093,8.1093,8.1093,8.1093,8.1093,0.0,0.0,0.0,0.0,0.0,0.0,0.0,0.0,0.0,0.0,3.0927,3.2331,0.0,0.0,0.0,0.0,0.0,0.0,0.0,0.0,0.0,3.3787,3.437,3.4863,3.5288,3.6703,3.7429,3.7334,4.0033,4.1366,4.1558,4.392,4.5207,4.5479,4.6726,4.7764,4.8512,4.8759,4.9821,5.1377,5.1776,5.2908,5.435,5.451,0.0,0.0,5.8039,5.8054,5.7749,5.8386,5.8245,5.7821,5.795,5.7997,5.8051,5.8461,5.8762,5.9218,6.0188,6.1157,6.2029,6.2785,6.3797,6.4709,6.5029,6.5512,6.6144,6.6979,6.7959,6.8914,6.977,7.0213,7.0474,7.0529,7.0034,6.9614,6.9473,7.0419,7.1204,0.0,7.1858,7.2887,7.4422,7.4318,7.4732,7.6164,7.6164,7.6187,7.6227,7.6438,7.6611,7.678,7.7005,7.7067,7.6919,7.6738,7.6521,7.6295,7.6147,7.6034,7.6015,7.6015,7.6015,7.6053,7.6746,7.763,7.8554,7.9285,8.0169,8.1093,8.1093,8.1093,8.1093,8.1093,8.1093,8.1093,0.0,0.0,0.0,0.0,0.0,0.0,0.0,2.8027,2.8301,2.8301,2.9408,3.0224,3.0224,3.0224,3.0224,0.0,0.0,0.0,0.0,0.0,0.0,3.1563,3.2023,3.2483,3.2985,3.5178,3.6241,3.5856,0.0,4.0789,4.1267,4.3365,4.4748,4.5479,4.7276,4.8377,4.8891,4.9977,5.1206,5.2566,5.3079,5.4316,5.5836,5.608,0.0,0.0,5.8876,5.8838,5.8607,5.8952,5.8913,5.8632,5.8142,5.7997,5.8116,5.8755,5.9257,5.9913,6.1235,6.218,6.2973,6.3941,6.4628,6.5184,6.5538,6.5887,6.6379,6.737,6.8358,6.9314,7.0211,7.082,7.1198,7.1093,7.0706,7.0409,7.0286,7.1276,7.2118,7.258,7.3459,7.4486,7.5719,7.5585,7.5779,7.6529,7.6715,7.669,7.6475,7.6663,7.6847,7.7052,7.7068,7.6939,7.6749,7.6521,7.6359,7.6135,7.6062,7.6015,7.6015,7.6015,7.6015,7.6053,7.6899,7.7746,7.8554,7.9438,8.0323,8.1093,8.1093,8.1093,8.1093,8.1093,8.1093,8.1093,0.0,0.0,0.0,0.0,0.0,0.0,0.0,2.7766,2.8184,2.8281,2.8301,2.8301,2.8301,2.8301,2.8301,0.0,0.0,0.0,0.0,0.0,0.0,0.0,2.9883,3.0312,3.0879,0.0,0.0,3.4575,3.8338,0.0,0.0,0.0,0.0,0.0,4.7588,4.8759,4.9215,5.093,5.232,0.0,0.0,5.553,5.6978,0.0,0.0,0.0,0.0,5.9526,5.9526,5.9526,5.9492,5.9248,5.8508,5.8326,5.8474,5.9418,6.0013,6.0786,6.2407,6.3201,6.3789,6.4978,6.5261,6.5427,6.5972,6.6263,6.6733,6.7813,6.8812,6.9806,7.0665,7.1329,7.1753,7.1696,7.1628,7.1568,7.1552,7.2444,7.3336,7.4034,7.4972,7.5857,7.6599,7.6638,7.6702,7.6727,7.6872,7.6919,7.6738,7.6864,7.7013,7.7145,7.6995,7.677,7.656,7.6361,7.6171,7.6015,7.6015,7.6015,7.6015,7.6015,7.6015,7.6053,7.7092,7.79,7.8592,7.9631,8.0477,8.1093,8.1093,8.1093,8.1093,8.1093,8.1093,8.1093,0.0,0.0,0.0,0.0,0.0,0.0,0.0,2.6674,2.7851,2.8242,2.8301,2.8301,2.8301,2.8301,2.8301,0.0,0.0,0.0,0.0,0.0,0.0,0.0,0.0,0.0,0.0,0.0,0.0,3.5221,3.9368,0.0,0.0,0.0,0.0,0.0,0.0,4.846,5.0242,5.0474,0.0,0.0,0.0,0.0,0.0,0.0,0.0,0.0,0.0,6.0044,6.0044,6.0044,5.976,5.9389,5.9284,5.9248,5.9543,6.0849,6.1444,6.2135,6.3925,6.4661,6.5085,6.5651,6.5808,6.587,6.6051,6.6866,6.7825,6.8851,6.9863,7.0819,7.1718,7.1913,7.1908,7.1741,7.2338,7.2803,7.2652,7.4039,7.5089,7.5167,0.0,7.6573,7.6856,7.6864,7.6939,7.7144,7.7147,7.7148,7.7145,7.7147,7.7106,7.6933,7.6926,7.6727,7.6338,7.6316,7.6171,7.6015,7.6015,7.6015,7.6015,7.6015,7.6015,7.6092,7.7669,7.8438,7.8631,8.0285,8.1016,8.1093,8.1093,8.1093,8.1093,8.1093,8.1093,8.1093,0.0,0.0,0.0,0.0,0.0,0.0,2.4801,2.5848,2.6911,2.8116,2.7511,2.6933,2.6933,2.6155,2.6282,2.8174,0.0,0.0,0.0,0.0,0.0,0.0,0.0,0.0,0.0,0.0,3.3957,3.3957,3.6526,0.0,0.0,0.0,0.0,0.0,0.0,4.9647,5.0474,5.1736,0.0,0.0,0.0,0.0,0.0,0.0,0.0,0.0,0.0,0.0,6.0533,6.0635,6.0814,6.1048,6.1048,6.1392,6.1726,6.169,6.234,6.3378,6.4564,6.5245,6.5635,6.5872,6.5967,6.6069,6.6228,6.7085,6.8109,6.9124,7.0075,7.0976,7.1836,7.1906,7.1975,7.2416,7.2613,7.285,7.3281,7.4374,7.515,7.5277,7.6199,7.687,7.7058,7.7097,7.7069,7.7009,7.7005,7.6984,7.6847,7.6945,7.699,7.688,7.669,7.6475,7.6295,7.6185,7.6079,7.6015,7.6015,7.6015,7.6015,7.6015,7.6015,7.6092,7.7746,7.8477,7.8631,8.0362,8.1093,8.1093,8.1093,8.1093,8.1093,8.1093,8.1093,8.1093,0.0,0.0,0.0,0.0,0.0,2.2619,2.4053,2.4879,2.5788,2.6877,2.6045,2.5371,2.5371,2.4488,2.471,2.6717,2.7384,0.0,0.0,0.0,0.0,0.0,0.0,0.0,0.0,0.0,3.2333,3.2333,3.4825,3.6979,0.0,0.0,4.2958,4.4995,0.0,0.0,0.0,0.0,0.0,0.0,0.0,0.0,0.0,0.0,0.0,0.0,0.0,0.0,0.0,0.0,0.0,6.2277,6.2529,6.3102,6.3614,6.2895,6.3352,6.4317,6.5091,6.5597,6.5897,6.5897,6.5981,6.6144,6.6347,6.7365,6.8513,6.9256,7.0312,7.1289,7.1875,7.1854,7.2002,7.2853,7.2977,7.3232,7.4041,7.4899,7.5473,7.5436,7.6079,7.6625,7.6844,7.7019,7.7048,7.6839,7.679,7.6749,7.6636,7.669,7.6727,7.6727,7.6457,7.625,7.6195,7.6079,7.6015,7.6015,7.6015,7.6015,7.6015,7.6015,7.6015,7.6092,7.7746,7.8477,7.8631,8.0362,8.1093,8.1093,8.1093,8.1093,8.1093,8.1093,8.1093,8.1093,0.0,0.0,0.0,0.0,0.0,0.0,2.2633,2.3913,2.4615,2.3944,2.3822,2.3822,2.3822,2.3822,2.3822,2.3822,2.5261,0.0,0.0,0.0,0.0,0.0,0.0,0.0,0.0,0.0,3.0644,3.0644,3.5176,3.7453,3.7559,4.1584,4.3504,4.3598,0.0,0.0,0.0,0.0,0.0,0.0,0.0,0.0,5.9458,0.0,0.0,0.0,0.0,0.0,0.0,0.0,0.0,0.0,0.0,6.424,6.4735,6.4609,6.4589,6.4782,6.5667,6.5897,6.5897,6.5897,6.5981,6.6144,6.6347,6.7833,6.9255,6.9451,7.082,7.1992,7.1992,7.1854,7.2002,7.2853,7.3531,7.4286,7.5181,7.6038,7.6349,0.0,7.5735,7.5799,7.5984,7.6536,7.6829,7.6636,7.6582,7.6582,7.6582,7.6419,7.6316,7.6316,7.6295,7.6171,7.6015,7.6015,7.6015,7.6015,7.6015,7.6015,7.6015,7.6015,7.6015,7.6092,7.7746,7.8477,7.8631,8.0362,8.1093,8.1093,8.1093,8.1093,8.1093,8.1093,8.1093,8.1093,0.0,0.0,0.0,0.0,0.0,0.0,0.0,2.1628,2.2376,2.3393,2.2784,2.2251,2.2251,2.1373,2.0816,2.0816,2.3039,0.0,0.0,0.0,0.0,0.0,0.0,0.0,0.0,0.0,2.9083,2.9083,3.1687,3.3979,3.6054,3.8209,4.0759,4.3598,4.599,4.8057,0.0,0.0,0.0,0.0,0.0,5.9458,5.9946,0.0,0.0,0.0,0.0,0.0,0.0,0.0,0.0,0.0,0.0,0.0,0.0,6.584,6.5642,6.5551,6.582,6.5897,6.5909,6.6003,6.6183,6.6347,6.6507,6.8005,6.941,6.9414,7.0781,7.1951,7.1811,7.1651,7.1991,7.3285,7.3566,7.4137,7.5567,7.5992,0.0,7.614,7.6225,7.6349,7.6388,7.6599,7.6597,7.6419,7.6381,7.6338,7.621,7.6147,7.616,7.6295,7.616,7.6052,7.6015,7.6015,7.6015,7.6015,7.6015,7.6015,7.6015,7.6015,7.6015,7.6092,7.7746,7.8477,7.8631,8.0362,8.1093,8.1093,8.1093,8.1093,8.1093,8.1093,8.0822,8.0427,0.0,0.0,0.0,0.0,0.0,0.0,0.0,2.039,2.0828,2.1616,2.1181,2.0816,2.0816,1.9924,1.9127,1.8519,2.02,0.0,0.0,0.0,0.0,0.0,0.0,0.0,2.513,2.6106,2.6608,2.6608,2.9356,3.2011,3.4405,3.6921,3.9956,4.3598,4.5903,4.7996,0.0,0.0,0.0,0.0,5.8915,5.9855,6.0151,0.0,0.0,0.0,0.0,0.0,0.0,0.0,0.0,0.0,0.0,0.0,0.0,0.0,6.6275,6.6088,6.6088,6.6088,6.6089,6.62,6.6361,6.6576,6.6993,6.8307,6.9531,6.9844,7.1015,7.195,7.1747,7.1594,7.1995,7.347,7.3393,7.3859,7.5837,7.587,0.0,7.5821,7.6034,7.6126,7.6057,7.6323,7.64,7.6195,7.5967,7.5774,7.5686,7.5686,7.5703,7.5848,7.5957,7.6015,7.6015,7.6015,7.6015,7.6015,7.6015,7.6015,7.6015,7.6015,7.6015,7.6092,7.7746,7.8477,0.0,8.0362,8.1093,8.1093,8.1093,8.1093,8.1093,8.1093,8.0681,8.0125,0.0,0.0,0.0,0.0,0.0,0.0,0.0,2.019,1.9981,1.8991,1.9185,1.9372,1.9243,1.9243,1.8532,1.6962,0.0,0.0,0.0,0.0,0.0,0.0,0.0,0.0,2.345,2.3574,2.3574,2.3574,2.8181,3.1182,3.2692,3.698,4.0385,4.3163,4.5518,4.7377,0.0,0.0,0.0,0.0,5.9379,6.0103,0.0,0.0,0.0,0.0,0.0,0.0,0.0,0.0,0.0,0.0,0.0,0.0,0.0,0.0,0.0,0.0,0.0,6.6412,6.6387,6.6399,6.6507,6.6817,6.7688,6.8661,0.0,7.0506,7.1367,7.1949,7.1728,7.1583,7.198,7.3407,7.3053,7.3488,7.5886,7.5618,0.0,0.0,7.5309,7.5365,7.5124,7.5793,7.6146,7.5976,7.5379,7.5054,7.5054,7.5054,7.5054,7.5054,7.5616,7.5947,7.6015,7.6015,7.6015,7.6015,7.6015,7.6015,7.6015,7.6015,7.6015,7.6092,7.7746,7.8477,7.8631,8.0362,8.1093,8.1093,8.1093,8.1093,8.1093,8.1061,8.0608,8.0008,0.0,0.0,0.0,0.0,0.0,0.0,0.0,0.0,0.0,0.0,1.9185,1.8881,1.7689,1.756,1.6973,0.0,0.0,0.0,0.0,0.0,0.0,0.0,0.0,0.0,2.1713,2.2952,2.3574,2.3574,2.7177,2.9634,3.1182,3.3492,3.6002,3.8782,4.1417,4.5403,0.0,0.0,0.0,0.0,5.8951,6.0036,0.0,0.0,0.0,0.0,6.2839,6.3827,0.0,0.0,0.0,0.0,0.0,0.0,0.0,0.0,6.6828,6.6784,6.6784,0.0,6.6423,6.6525,6.6564,6.6844,0.0,6.8707,6.9642,7.019,7.1217,7.1858,7.1388,7.1412,7.1801,7.2724,7.3085,7.3799,7.5168,7.5609,0.0,7.5163,7.5539,7.5672,7.5163,7.5264,7.5332,7.5306,7.4789,7.4506,7.4506,7.4506,7.4506,7.4506,7.5017,7.5551,7.6015,7.6015,7.6015,7.6015,7.6015,7.6015,7.6015,7.6015,7.6015,7.6092,7.7746,7.8477,7.8631,8.0362,8.1093,8.1093,8.1093,8.1093,8.1061,8.0499,7.9929,7.9335,0.0,0.0,0.0,0.0,0.0,0.0,0.0,0.0,0.0,0.0,0.0,1.6856,1.602,1.5902,0.0,0.0,0.0,0.0,0.0,0.0,0.0,0.0,0.0,1.9398,1.8768,1.9624,2.0118,2.0118,2.4178,2.6044,2.61,3.0932,3.4472,3.7004,4.2331,4.7273,0.0,0.0,0.0,5.7471,5.9152,0.0,0.0,0.0,0.0,0.0,6.3863,6.4805,0.0,6.6055,6.6523,6.6914,0.0,0.0,0.0,0.0,6.6914,6.6875,6.6789,6.6713,6.6655,6.6731,6.7051,6.7535,6.8318,6.926,7.0119,7.068,7.1302,7.1633,7.128,7.1348,7.184,7.2839,7.3138,7.3584,7.46,0.0,7.5255,7.5127,7.5413,7.5446,7.5127,7.5091,7.5017,7.4749,7.4212,7.3888,7.3888,7.3888,7.3888,7.3888,7.4426,7.498,7.5584,7.5848,7.6015,7.6015,7.6015,7.6015,7.6015,7.6015,7.6015,7.6053,7.7361,7.8169,7.8592,7.9637,8.0298,8.0643,8.0643,8.0643,8.0608,8.0201,7.9685,7.9105,0.0,0.0,0.0,0.0,0.0,0.0,0.0,0.0,0.0,0.0,0.0,0.0,0.0,0.0,0.0,0.0,0.0,0.0,0.0,0.0,0.0,0.0,1.761,1.7474,1.5913,1.5913,1.5913,1.5913,2.0393,2.1934,2.0805,2.8201,3.3329,3.6681,4.4228,4.9426,0.0,0.0,5.5897,5.7722,5.9481,0.0,0.0,0.0,0.0,0.0,0.0,0.0,0.0,6.664,6.6873,6.683,6.6833,0.0,0.0,0.0,0.0,0.0,6.6616,6.6692,6.6834,6.6834,6.7498,6.8312,6.899,6.9826,7.0649,7.1287,7.1442,7.1427,7.1223,7.1353,7.1879,7.3174,7.3313,7.3565,7.4442,7.4676,7.4819,7.4979,7.5054,7.5054,7.4867,7.4828,7.4632,7.4206,7.3602,7.3238,7.3238,7.3238,7.3238,7.3238,7.3841,7.4384,7.4828,7.5518,7.5917,7.6015,7.6015,7.6015,7.6015,7.5917,7.5848,7.5925,7.6771,7.7616,7.8391,7.8785,7.9362,8.0087,8.0008,7.9969,7.9969,7.9847,7.9513,7.8962,0.0,0.0,0.0,0.0,0.0,0.0,0.0,0.0,0.0,0.0,0.0,0.0,0.0,0.0,0.0,0.0,0.0,0.0,0.0,0.0,0.0,1.3642,1.5396,1.6172,1.5913,1.5913,1.5913,1.5913,1.8152,1.9764,2.1047,2.3595,2.9106,3.6733,4.0297,4.5142,5.0983,5.3335,5.5508,5.7595,5.9109,0.0,0.0,0.0,0.0,0.0,0.0,0.0,0.0,6.6794,6.6722,6.6517,6.6616,0.0,0.0,0.0,0.0,0.0,6.6435,6.6525,6.6634,6.6634,6.7297,6.8131,6.8783,6.9604,7.0401,7.0908,7.1262,7.1427,7.1223,7.1223,7.1623,7.2811,7.398,7.4996,0.0,0.0,7.5441,7.4547,7.479,7.4711,7.3757,7.3651,7.3651,7.3504,7.2997,7.263,7.263,7.263,7.263,7.263,7.3224,7.3553,7.3651,7.4711,7.548,7.6015,7.6015,7.6015,7.5976,7.5446,7.5236,7.5274,7.6153,7.7031,7.7908,7.8599,7.9362,8.0048,7.9556,7.9335,7.929,7.8754,7.8536,7.8325,0.0,0.0,0.0,0.0,0.0,0.0,0.0,0.0,0.0,0.0,0.0,0.0,0.0,0.0,0.0,0.0,0.0,0.0,0.0,0.0,1.3655,1.1826,1.2553,1.3112,1.3087,1.3104,1.312,1.312,1.3837,1.4714,1.5495,2.1491,2.7882,3.4594,4.0324,4.5055,4.8983,5.2268,5.5166,5.7711,0.0,0.0,0.0,0.0,0.0,0.0,0.0,0.0,0.0,0.0,6.6537,6.6399,6.6468,0.0,0.0,0.0,0.0,0.0,6.626,6.6685,6.7151,6.719,6.7982,6.8956,6.9605,7.0396,7.1018,7.1059,7.1182,7.1317,7.1203,7.1299,7.184,7.3256,0.0,7.4705,7.5408,7.5274,7.5018,7.4789,7.4943,7.479,7.398,7.3888,7.3639,7.2943,7.263,7.2496,7.2496,7.2496,7.2496,7.2496,7.2761,7.3066,7.3391,7.3897,7.4632,7.548,7.548,7.5686,7.5976,7.5379,7.5091,7.5129,7.5246,7.5931,7.6998,7.7149,7.7855,7.8869,7.8763,7.8704,7.8653,7.8379,7.8072,7.771,0.0,0.0,0.0,0.0,0.0,0.0,0.0,0.0,0.0,0.0,0.0,0.0,0.0,0.0,0.0,0.0,0.0,0.0,0.0,0.0,1.1009,0.9564,1.0264,1.0251,0.9534,0.9424,0.9436,0.9436,0.9407,0.992,1.0864,2.0398,2.7087,3.1666,3.9835,4.4675,4.7027,5.1054,5.4521,5.7488,0.0,0.0,0.0,0.0,0.0,0.0,0.0,0.0,0.0,0.0,0.0,0.0,0.0,0.0,0.0,6.6299,6.6299,6.6251,6.6109,6.6782,6.7602,6.7889,6.8768,6.9767,7.0369,7.1066,7.1521,7.1296,7.1262,7.1262,7.1262,7.1536,0.0,7.364,7.3933,7.4205,7.5012,7.4749,7.4509,7.4672,7.4828,7.4632,7.3934,7.3888,7.3492,7.2553,7.2496,7.2496,7.2496,7.2496,7.2496,7.2496,7.2496,7.2742,7.3172,7.3172,7.3757,7.4943,7.4943,7.5236,7.5749,7.5017,7.479,7.4905,7.4336,7.4789,7.5921,7.5657,7.6419,7.7748,7.775,7.7886,7.8072,7.8072,7.7768,7.7304,0.0,0.0,0.0,0.0,0.0,0.0,0.0,0.0,0.0,0.0,0.0,0.0,0.0,0.0,0.0,0.0,0.0,0.0,0.0,0.0,0.5893,0.5767,0.8907,0.918,0.59,0.5767,0.5767,0.5767,0.5759,0.7488,1.0948,2.0168,2.5633,2.8265,3.604,4.1486,4.523,4.9681,5.3428,5.6444,5.8919,0.0,0.0,0.0,0.0,0.0,0.0,0.0,0.0,0.0,0.0,0.0,0.0,0.0,6.5933,6.5933,6.5933,6.5933,6.5909,6.6659,6.76,6.8433,6.9265,6.9972,7.0394,7.0862,7.1299,7.1427,7.1457,7.1457,7.1457,7.2093,7.2824,7.3446,7.386,7.4305,7.501,7.5054,7.4672,7.3651,7.4026,7.3888,7.2705,7.263,7.2573,7.2496,7.2496,7.2496,7.2496,7.2496,7.2496,7.2496,7.2496,7.2496,7.2553,7.2553,7.3172,7.4379,7.4379,7.467,7.5127,7.4034,7.3841,7.4336,7.3699,7.3939,7.4698,7.4709,7.5678,7.7132,7.6507,7.6704,7.7365,7.7365,7.7365,7.7304,0.0,0.0,0.0,0.0,0.0,0.0,0.0,0.0,0.0,0.0,0.0,0.0,0.0,0.0,0.0,0.0,0.0,0.0,0.0,0.2655,0.107,-0.1204,-0.0,0.0,-0.1338,0.0939,0.2016,0.2016,0.2013,0.3873,0.7436,1.0948,1.7929,2.7917,3.4415,3.9137,4.2629,4.996,5.4509,5.6967,5.8544,6.0663,0.0,0.0,0.0,0.0,0.0,0.0,0.0,0.0,6.5755,6.5923,6.5967,6.5919,6.5897,6.5897,6.5897,6.6013,6.6513,6.7409,6.8414,6.9246,7.0098,7.0813,7.1174,7.139,7.1497,7.1485,7.1485,7.1373,7.0909,7.1339,7.19,7.2327,7.3168,7.3868,7.4285,7.4786,7.479,7.4072,7.4161,7.398,7.3119,7.3066,7.2889,7.2553,7.2496,7.2496,7.2496,7.2496,7.2496,7.2496,7.2496,7.2496,7.2496,7.2496,7.2742,7.3172,7.359,7.4034,7.4588,7.3794,7.3504,7.3699,7.3066,7.3252,7.3876,7.3996,7.4606,7.5612,7.5948,7.6607,7.7304,7.7304,7.7304,7.7304,0.0,0.0,0.0,0.0,0.0,0.0,0.0,0.0,0.0,0.0,0.0,0.0,0.0,0.0,0.0,0.0,0.0,0.0,-0.3433,-0.3464,-0.442,-0.6982,-0.7121,-0.7121,-0.7121,-0.4702,-0.2823,-0.1747,-0.0537,-0.1068,-0.2912,0.1568,0.9697,2.0913,3.0406,3.7535,4.3034,5.0711,5.5469,5.7977,5.8259,6.0239,0.0,0.0,0.0,0.0,0.0,0.0,0.0,0.0,6.4883,6.4769,6.5651,6.5586,6.5303,6.5597,6.5781,6.6026,6.6688,6.773,6.8794,6.9691,7.0563,7.1278,7.1603,7.1667,7.1624,7.1572,7.1471,7.1275,7.0844,7.1004,7.1347,7.1799,7.2706,7.3384,7.361,7.4334,7.4551,7.3794,7.3888,7.3794,7.3172,7.3119,7.2943,7.2553,7.2496,7.2496,7.2496,7.2496,7.2496,7.2496,7.2496,7.2496,7.2496,7.2496,7.2496,7.2496,7.2889,7.3442,7.398,7.3391,7.3224,7.3391,7.2761,7.2705,7.3141,7.3275,7.37,7.4421,7.561,7.646,7.6913,7.6846,7.6793,7.6793,0.0,0.0,0.0,0.0,0.0,0.0,0.0,0.0,0.0,0.0,0.0,0.0,0.0,0.0,0.0,0.0,0.0,0.0,-1.0699,-1.0685,-1.0672,-1.0672,-1.0672,-1.0672,-1.0672,-1.0672,-0.9024,-0.5496,-0.1876,-0.725,-2.0642,-0.671,0.1684,0.5638,2.2885,3.6403,4.6635,5.1696,5.5989,5.9244,5.8075,5.9457,6.1852,0.0,0.0,0.0,0.0,0.0,0.0,0.0,6.361,6.2364,6.5039,6.494,6.4029,6.4856,6.5446,6.5947,6.63,6.7391,6.8629,6.9628,7.0563,7.1278,7.1603,7.1604,7.1536,7.1667,7.1432,7.1262,7.1442,7.1353,7.1424,7.2069,7.2563,7.2914,7.2986,7.3765,7.3841,7.263,7.305,7.3172,7.2553,7.2496,7.2496,7.2496,7.2496,7.2496,7.2496,7.2496,7.2496,7.2496,7.2496,7.2496,7.2496,7.2496,7.2496,7.2496,7.2496,7.2816,7.3391,7.2761,7.2816,7.3341,7.2761,7.2496,7.2496,7.2496,7.2973,7.3854,7.5432,7.6093,7.6045,7.5871,7.5787,7.5649,0.0,0.0,0.0,0.0,0.0,0.0,0.0,0.0,0.0,0.0,0.0,0.0,0.0,0.0,0.0,0.0,0.0,0.0,-1.0505,-1.0638,-1.0765,-1.0744,-1.0744,-1.0744,-1.0744,-1.0744,-1.0219,-0.9163,-0.803,-0.963,-1.3725,-1.4526,-0.7747,0.4999,0.7943,1.4896,2.6027,4.7925,5.6139,5.4647,5.6656,5.6015,5.384,0.0,0.0,0.0,0.0,0.0,0.0,0.0,0.0,0.0,6.2842,6.2842,6.2538,6.2792,6.3333,6.4016,6.4741,6.6516,6.8371,6.9126,7.0467,7.1565,7.1675,7.1604,7.1457,7.1381,7.1381,7.1221,7.0606,7.0884,7.1085,7.0762,7.1688,7.2333,7.2113,7.2817,7.3204,7.2556,7.263,7.2686,7.2496,7.1915,7.1794,7.2438,7.1854,7.1794,7.2438,7.2496,7.2496,7.2496,7.2496,7.2496,7.2496,7.2496,7.2496,7.2496,7.2496,7.2573,7.2761,7.261,7.2573,7.2761,7.261,7.2496,7.2496,7.2496,7.2973,7.3744,7.4221,7.4336,7.4341,7.4771,7.4544,7.4009,0.0,0.0,0.0,0.0,0.0,0.0,0.0,0.0,0.0,0.0,0.0,0.0,0.0,0.0,0.0,0.0,0.0,0.0,0.0,-1.2452,-1.2824,-1.2808,-1.28,-1.3054,-1.3805,-1.4419,-1.4679,-1.4725,-1.2931,-1.2561,-1.3621,-2.0079,-1.6679,-0.4926,-0.1518,0.509,1.457,2.9176,4.0456,4.8451,4.6329,4.574,4.5958,0.0,0.0,0.0,0.0,0.0,0.0,0.0,0.0,0.0,6.0087,6.0701,6.1277,6.2253,6.3012,6.3864,6.5417,6.7102,0.0,6.9759,7.0758,7.1521,7.1614,7.1604,7.1572,7.1536,7.1442,7.1221,7.0734,7.0874,7.0965,7.0486,7.141,7.2165,7.2092,7.2604,7.295,7.2832,7.263,7.2496,7.2496,7.2011,7.1732,7.1915,7.1448,7.135,7.1915,7.1915,7.213,7.2496,7.2496,7.2496,7.2496,7.2496,7.2496,7.2496,7.2496,7.2496,7.2496,7.2496,7.2496,7.2496,7.2496,7.2496,7.2496,7.2496,7.2578,7.2741,7.3406,7.3188,7.2573,7.3293,7.3188,7.2641,0.0,0.0,0.0,0.0,0.0,0.0,0.0,0.0,0.0,0.0,0.0,0.0,0.0,0.0,0.0,0.0,0.0,0.0,0.0,0.0,-1.5913,-1.5913,-1.6043,-1.6776,-1.8383,-1.9952,-2.0788,-2.0788,-1.6797,-1.5894,-1.8159,-2.335,-2.4245,-2.0848,-0.9818,-0.0481,0.6696,0.1965,1.4813,3.7647,3.0436,3.1621,3.7453,3.4447,0.0,0.0,0.0,0.0,0.0,0.0,0.0,0.0,5.7009,5.8554,5.9845,6.2287,6.3488,6.4582,6.7016,6.8148,6.9075,7.0777,7.1219,0.0,7.1442,7.1604,7.1747,7.1908,7.1583,7.1299,7.1427,7.118,7.0925,7.0898,7.1552,7.2178,7.2418,7.2734,7.2973,7.3268,7.2797,7.2496,7.2496,7.2438,7.2011,7.1159,7.1031,7.093,7.093,7.093,7.1386,7.2343,7.2343,7.2438,7.2496,7.2496,7.2496,7.2496,7.2496,7.2438,7.238,7.2438,7.2496,7.2496,7.2438,7.2343,7.2343,7.2343,7.1794,7.1167,7.2814,7.2308,7.0733,7.1473,7.161,7.127,0.0,0.0,0.0,0.0,0.0,0.0,0.0,0.0,0.0,0.0,0.0,0.0,0.0,0.0,0.0,0.0,0.0,0.0,0.0,0.0,-1.5913,-1.5913,-1.715,-1.8012,-1.8383,-1.9952,-2.0788,-2.0788,-1.9916,-1.9738,-2.0397,-2.3301,-2.6417,-2.9564,-3.8103,-3.5194,-2.2856,-0.6793,0.1141,0.4387,2.0876,2.5863,2.3978,2.8814,3.0944,0.0,0.0,0.0,0.0,0.0,0.0,0.0,5.4261,5.5214,5.6051,5.9081,6.099,6.2379,6.3489,6.572,0.0,6.8749,7.0303,7.1594,7.1511,7.1604,7.1675,7.1604,7.1604,7.1521,7.1317,7.1162,7.1085,7.0952,7.1052,7.1257,7.154,7.1785,7.2071,7.2361,7.2465,7.2496,7.2496,7.1854,7.1286,7.1095,7.04,6.9989,6.9989,6.9989,7.0468,7.135,7.1412,7.1732,7.2496,7.2496,7.2496,7.2496,7.2496,7.213,7.1448,7.213,7.2496,7.2438,7.1732,7.1412,7.1412,7.1412,7.0865,7.0127,7.1211,7.0478,6.892,6.9645,6.9463,6.8846,0.0,0.0,0.0,0.0,0.0,0.0,0.0,0.0,0.0,0.0,0.0,0.0,0.0,0.0,0.0,0.0,0.0,0.0,0.0,0.0,-1.8372,-1.8372,-2.0697,-2.2047,-2.2047,-2.4345,-2.5666,-2.5666,-2.4897,-2.4132,-2.332,-2.6305,-2.9907,-3.4149,-4.5302,-4.8359,-4.3917,-2.6339,-1.9357,-1.8511,0.0582,0.8958,1.0692,1.7145,2.0674,2.3201,2.9474,0.0,0.0,0.0,0.0,0.0,0.0,0.0,5.1,5.4276,5.5425,5.6661,6.109,6.3154,0.0,6.7996,0.0,7.0951,7.097,7.1231,7.1459,7.1485,7.1485,7.1403,7.1223,7.1115,7.1029,7.0925,7.0898,7.1084,7.1643,7.1934,7.2233,7.2491,7.2755,7.2816,7.2553,7.2071,7.1573,7.1159,7.0264,6.9708,6.9708,6.9241,6.9458,7.04,7.0468,7.0668,7.1159,7.1159,7.1386,7.1854,7.1854,7.1573,7.1095,7.1159,7.1386,7.1794,7.08,7.0668,7.1095,7.0601,6.9883,6.9095,7.0022,6.9241,6.7535,6.7809,6.7925,6.7824,0.0,0.0,0.0,0.0,0.0,0.0,0.0,0.0,0.0,0.0,0.0,0.0,0.0,0.0,0.0,0.0,0.0,0.0,0.0,0.0,0.0,-2.1964,-2.4763,-2.6574,-2.6798,-2.9728,-3.1325,-3.1325,-2.9846,-2.8637,-2.7511,-3.0272,-3.3445,-3.7188,-4.4442,-5.1502,-5.7154,-4.5515,-3.8355,-3.3658,-1.9778,-0.9704,-0.2184,0.4458,0.9769,1.4647,2.1053,2.4535,2.6616,3.0248,0.0,0.0,0.0,0.0,4.5391,4.8952,4.9518,5.0525,5.7936,6.0262,6.1934,6.757,6.9474,0.0,7.0179,7.0645,7.1084,7.1219,7.1223,7.1221,7.1221,7.1053,7.0898,7.0898,7.0898,7.1074,7.1535,7.1846,7.205,7.2162,7.2434,7.2521,7.2248,7.2285,7.1951,7.1159,7.0264,6.9637,6.9458,6.8531,6.842,6.9386,6.9458,6.953,6.9708,6.9708,7.0127,7.0865,7.0668,7.0566,7.0566,6.9601,6.9813,7.08,6.9813,6.9883,7.0499,6.9743,6.8873,6.8068,6.9021,6.8412,6.6779,6.6221,6.666,6.7054,0.0,0.0,0.0,0.0,0.0,0.0,0.0,0.0,0.0,0.0,0.0,0.0,0.0,0.0,0.0,0.0,0.0,0.0,0.0,0.0,0.0,-2.5253,-2.7073,-2.8728,-2.9947,-3.1876,-3.2851,-3.2851,-3.2602,-3.3224,-3.468,-3.2519,-3.4696,-4.0896,-4.8027,-5.3929,-5.7988,-4.908,-4.3516,-3.9496,-2.5626,-1.7873,-1.3271,-0.2871,0.1638,0.3541,1.4061,1.8898,2.0768,2.4535,2.7333,0.0,0.0,0.0,3.9282,4.4204,4.6319,4.7724,5.1083,0.0,6.1712,0.0,6.857,6.9645,0.0,0.0,7.0475,7.0302,7.0761,7.1221,7.1221,7.1053,7.0898,7.0898,7.0898,7.0516,6.9398,6.9515,6.9422,6.8881,6.9038,6.9813,7.1151,7.1286,7.1223,7.1095,7.0264,6.9314,6.842,6.7501,6.7454,6.8343,6.842,6.8798,6.9708,6.9708,6.9778,6.9919,6.9021,6.8572,6.8572,6.7582,6.818,6.9849,6.8873,6.8496,6.8572,6.842,6.7866,6.7078,6.799,6.7708,6.661,6.5492,6.5204,6.5222,0.0,0.0,0.0,0.0,0.0,0.0,0.0,0.0,0.0,0.0,0.0,0.0,0.0,0.0,0.0,0.0,0.0,0.0,0.0,0.0,0.0,-2.5984,-2.8336,-2.9985,-3.0644,-3.2993,-3.4292,-3.4292,-3.4292,-3.5558,0.0,-3.7825,-4.0021,-4.4189,-5.0657,-5.5005,-5.7273,-5.5188,-5.076,-4.4416,-3.5356,-2.8983,-2.371,-1.4033,-1.0795,-0.9639,0.2879,0.8454,1.0574,1.5593,1.9136,2.2082,2.6198,0.0,0.0,0.0,3.7638,3.8608,4.3778,5.0671,5.6954,0.0,6.2669,6.5205,6.5125,6.7141,6.8903,6.8285,6.8826,6.9742,7.0838,7.0966,7.0898,7.0898,7.0241,6.9505,6.8902,6.8605,6.8419,6.8197,6.8686,6.9358,7.0225,6.9636,6.9212,6.9212,6.8293,6.7591,6.7146,6.6928,6.7029,6.7373,6.7454,6.7662,6.8024,6.8059,6.8301,6.8873,6.766,6.7536,6.8111,6.6441,6.6458,6.7748,6.6724,6.6641,6.7065,6.5847,6.5426,6.5734,6.5392,6.5038,6.4505,6.3227,6.3132,6.3609,0.0,0.0,0.0,0.0,0.0,0.0,0.0,0.0,0.0,0.0,0.0,0.0,0.0,0.0,0.0,0.0,0.0,0.0,0.0,0.0,0.0,-2.7758,-2.9966,-3.1586,-3.2344,-3.467,-3.5836,-3.5836,-3.5972,0.0,-4.0168,-4.2396,-4.5149,0.0,-5.3652,-5.6458,-5.7524,-5.9718,-5.62,-4.8714,-4.4327,-3.9396,-3.3644,-2.6139,-2.3641,-2.2588,-1.0212,-0.4521,-0.1783,0.4905,0.9544,1.3003,1.6269,1.879,0.0,0.0,0.0,2.9535,0.0,0.0,4.9246,5.1882,5.589,5.9599,0.0,0.0,6.6423,6.6482,6.7119,6.8062,6.9543,7.0107,7.0478,7.0832,6.9722,6.8703,6.8334,6.7539,6.7112,6.7278,6.7817,6.8499,6.928,6.8403,6.7773,6.7704,6.686,6.6137,6.5816,6.5861,6.5942,6.632,6.632,6.644,6.6812,6.6812,6.7161,6.7866,6.6524,6.644,6.7283,6.485,6.4061,6.4407,6.4737,6.5127,6.5313,6.3667,6.3322,6.3728,6.3227,6.249,6.1707,6.113,6.113,6.1037,0.0,0.0,0.0,0.0,0.0,0.0,0.0,0.0,0.0,0.0,0.0,0.0,0.0,0.0,-2.4039,-2.5741,0.0,0.0,0.0,0.0,0.0,-3.2602,-3.283,0.0,-3.7133,-3.7346,-3.7346,-3.7346,-3.7844,0.0,-4.2726,-4.4157,-4.8415,-5.5025,-5.7413,-5.9086,-6.0027,0.0,0.0,0.0,0.0,-4.7064,0.0,-3.808,-3.5733,-3.3738,-2.4763,-1.9763,-1.6054,-0.7561,-0.2237,0.1841,0.7326,1.0674,1.2904,0.0,0.0,0.0,0.0,3.3729,0.0,4.5708,4.9834,5.3644,0.0,6.1628,6.2845,6.5334,6.6279,6.6712,6.6905,6.7995,6.9359,7.0671,6.9722,6.8334,6.7008,6.5586,6.4706,6.4789,6.4822,6.5767,6.805,6.8189,6.805,6.7704,6.686,6.5731,6.4586,6.3664,6.3764,6.4992,6.4992,6.5559,6.6812,6.6812,6.6812,6.6896,6.5613,6.5048,6.4959,6.2073,6.024,5.9259,6.3194,6.4197,6.3164,6.31,6.2133,6.0951,6.2392,6.1183,5.8686,6.0393,5.9108,5.6669,0.0,0.0,0.0,0.0,0.0,0.0,0.0,0.0,0.0,0.0,0.0,0.0,0.0,-2.4532,-2.5741,-2.7434,-2.9906,0.0,0.0,0.0,0.0,-3.3077,-3.3957,-3.5508,-3.7477,-3.8477,-3.8921,-3.8921,-4.1027,-4.2858,-4.4436,-4.895,-5.293,-5.6136,-5.846,-5.9773,-6.0373,-6.1381,0.0,0.0,0.0,0.0,0.0,0.0,0.0,0.0,0.0,0.0,0.0,-1.7478,-1.1818,-0.6375,-0.1862,0.1746,0.5188,0.9788,1.4066,0.0,0.0,0.0,0.0,3.302,3.9775,4.5978,4.8243,5.3526,5.7988,5.8365,6.0393,6.226,6.2612,6.5322,6.7635,6.8122,6.6971,6.583,6.537,6.4041,6.3364,6.3848,6.4309,6.5149,6.6472,6.463,6.3307,6.3177,6.2044,6.1258,6.0788,6.2133,6.3196,6.3671,6.3638,6.3952,6.4322,6.4322,6.3822,6.278,6.1514,6.0819,6.0532,5.87,5.7635,5.7225,5.879,5.9108,5.8774,5.8847,5.8573,5.7823,5.7563,5.6814,5.5852,5.6563,5.5994,5.507,0.0,0.0,0.0,0.0,0.0,0.0,0.0,0.0,0.0,0.0,0.0,0.0,0.0,0.0,-2.7434,-2.9039,-3.1572,-3.2644,-3.1652,-3.2964,-3.4069,-3.4515,-3.5876,-3.7382,-3.8797,-4.0287,-4.0945,-4.0945,-4.3767,-4.6038,-4.7733,-5.3083,-5.6723,-5.8841,-6.0869,-6.1371,0.0,0.0,0.0,-5.4632,0.0,0.0,-5.2496,0.0,0.0,0.0,0.0,0.0,0.0,0.0,-2.1657,-1.5904,-1.155,-0.6885,-0.1806,0.0,0.0,0.0,1.3491,0.0,0.0,0.0,2.9885,3.6771,4.0249,4.6204,5.1483,5.3154,5.5811,5.8052,5.832,6.1439,6.4546,6.6408,6.543,6.4503,6.4503,6.3293,6.2346,6.2183,6.2765,6.3087,6.2942,6.0984,5.9674,5.9183,5.8316,5.7643,5.7289,5.9591,6.1333,6.2291,6.2811,6.3004,6.3004,6.249,6.1676,6.0617,5.8774,5.7744,5.7537,5.5709,5.4902,5.4786,5.4235,5.4585,5.5651,5.5822,5.5563,5.4814,5.4568,5.367,5.2822,5.332,5.3133,5.27,0.0,0.0,0.0,0.0,0.0,0.0,0.0,0.0,0.0,-2.345,0.0,0.0,0.0,0.0,0.0,-3.0762,-3.2301,-3.3191,-3.3191,-3.4626,-3.6054,-3.7453,-3.8699,-4.0032,-4.1591,-4.2834,-4.3504,-4.3598,-4.5967,-4.9103,-5.2843,-5.6095,-5.9704,-6.3516,-6.4791,-6.3936,-6.147,0.0,-5.9941,-5.7582,0.0,-5.6624,-5.4806,0.0,0.0,0.0,-4.9135,-4.4962,0.0,-3.626,0.0,0.0,0.0,0.0,0.0,0.0,0.0,0.0,0.0,0.0,0.0,0.0,2.0589,2.6387,3.6351,4.0106,4.3357,4.9839,5.2617,5.3923,5.3952,5.6278,5.9878,6.533,6.5177,6.4372,6.4336,6.322,6.1614,5.9652,5.9841,5.941,5.7467,5.7706,5.7478,5.6275,5.6191,5.5623,5.4386,5.5791,5.7879,6.0681,6.2063,6.2779,6.2779,6.1215,6.0383,6.028,5.7496,5.6078,5.5965,5.3146,5.1838,5.1714,4.9799,5.0909,5.4149,5.4149,5.3281,5.1962,5.3522,5.2236,4.9668,5.0981,5.0558,4.9152,0.0,0.0,0.0,0.0,0.0,0.0,-1.8891,-2.1254,-2.3076,0.0,0.0,0.0,0.0,0.0,-3.084,-3.2301,-3.3866,-3.4736,-3.4736,-3.6908,-3.7992,-3.7559,-3.8699,-4.0032,-4.1591,-4.2671,-4.3631,-4.4584,-4.9676,-5.2726,-5.3923,-5.9264,-6.2595,-6.4166,-6.4598,-6.4131,-6.2921,-6.2214,0.0,-5.9404,-5.7459,-5.7163,0.0,0.0,0.0,0.0,0.0,-4.807,-4.4784,0.0,-3.7885,-2.9708,0.0,0.0,0.0,0.0,0.0,0.0,0.0624,0.0,0.0,0.0,0.0,0.0,2.1193,2.7453,3.335,3.5208,3.9795,4.3921,4.5387,4.9006,5.2276,5.3804,5.9087,6.2285,6.034,6.1455,6.1002,5.7267,5.7652,5.7303,5.4931,5.3726,5.3523,5.453,5.3663,5.3106,5.27,5.4149,5.5415,5.6166,5.6563,5.676,5.676,5.6307,5.5565,5.4373,5.3626,5.1874,4.9444,4.854,4.7544,4.6217,4.5792,4.6037,4.7053,4.8263,4.8441,4.8093,4.7233,4.7281,4.7485,4.6547,4.5926,4.5615,0.0,0.0,0.0,0.0,0.0,-1.859,-1.9522,-2.1321,-2.3076,0.0,0.0,0.0,0.0,0.0,-3.2207,-3.3077,-3.5068,-3.6464,-3.6932,-3.9113,-4.0159,-3.9982,-4.1595,-4.2943,-4.3836,-4.5669,-4.6954,-4.7681,-5.297,-5.575,-5.6458,-6.1372,-6.4174,-6.512,-6.5205,0.0,0.0,0.0,0.0,0.0,-5.7533,0.0,0.0,-5.4987,-5.4062,0.0,0.0,0.0,-4.6179,-4.6696,-4.1247,0.0,0.0,0.0,0.0,0.0,0.0,0.0,0.0,0.0,0.0,0.0,0.0,0.0,1.2196,1.9315,2.6283,2.7909,3.3256,3.8018,3.9248,4.2616,4.4814,4.3615,4.9643,5.4543,5.4552,5.5907,5.5503,5.1831,5.2272,5.1904,4.9361,4.8607,4.8682,4.9773,4.9085,4.9339,5.0736,5.1707,5.2836,5.4386,5.4386,5.4386,5.4386,5.2985,5.1707,5.0736,4.8521,4.6404,4.4324,4.3551,4.2566,4.1495,4.0672,4.0855,4.1622,4.099,4.2587,4.5592,4.4505,4.4163,4.421,4.2301,4.2183,4.244,0.0,0.0,-1.6573,-1.8209,-1.864,-1.9407,-2.1096,-2.1475,-2.2812,0.0,-2.647,-2.7692,0.0,0.0,0.0,0.0,-3.6031,-3.8146,-3.96,-4.1015,-4.235,-4.3637,-4.5725,-4.6976,-4.7202,-4.9993,-5.1569,-5.1888,-5.5819,-5.8352,-5.9649,-6.2816,-6.4971,-6.6133,-6.6044,0.0,0.0,0.0,0.0,-5.7509,-5.7527,-5.6547,0.0,0.0,-5.403,-5.1455,-5.2572,-4.9764,-4.5767,-4.655,-4.2687,0.0,0.0,0.0,0.0,0.0,-1.4974,0.0,0.0,0.0,0.0,0.0,-0.0621,0.0,0.6861,1.3557,1.9904,2.3612,2.8964,3.2947,3.3237,3.5381,3.6321,3.3954,3.8006,4.2979,4.781,4.8708,4.7943,4.5196,4.5718,4.5218,4.257,4.3262,4.3841,4.4116,4.4116,4.5388,4.8466,4.8595,5.0002,5.3106,5.3227,5.3227,5.3227,5.0129,4.8595,4.8595,4.3484,4.087,4.061,3.862,3.7576,3.7307,3.565,3.5889,3.741,3.3949,3.6863,4.3382,4.2944,4.1839,4.0165,3.8242,3.8655,3.9332,0.0,0.0,-1.8058,-1.85,-1.9674,-2.1209,-2.2827,-2.4163,-2.5741,-2.7692,-2.9157,0.0,0.0,0.0,0.0,0.0,-3.7133,-3.8484,-4.1041,-4.242,-4.361,-4.4647,-4.6109,-4.7585,-4.9047,-5.0514,-5.2236,-5.422,-5.819,-6.0481,-6.1312,-6.4309,-6.5952,-6.6327,-6.5799,-6.4737,0.0,0.0,0.0,-5.7364,-5.587,0.0,-5.797,-5.5745,-5.4891,-5.4697,-5.3389,-5.1636,-4.9553,-4.6283,-4.3789,-4.0999,0.0,0.0,0.0,-2.3904,0.0,0.0,0.0,0.0,0.0,0.0,-0.4965,0.0,-0.0932,0.3087,0.7221,0.9644,1.3649,1.7173,1.8791,2.0814,2.2019,2.1438,2.5087,3.1666,4.2185,4.551,4.5961,4.3385,4.3907,4.3391,4.085,4.1358,4.243,4.3978,4.4116,4.4368,4.5004,4.514,4.5388,4.6037,4.617,4.617,4.617,4.5388,4.514,4.5004,4.2332,4.0206,3.8838,3.6694,3.4966,3.3614,3.3196,3.3213,3.3515,3.2792,3.5258,3.9166,3.5981,3.5335,3.6109,3.4346,3.3799,3.3932,0.0,-1.9193,-1.9801,-1.9801,-2.1195,-2.2591,-2.345,-2.5024,-2.6591,0.0,0.0,0.0,0.0,0.0,0.0,0.0,0.0,-4.1386,-4.3409,-4.4514,-4.5725,-4.6834,-4.892,-5.0402,-5.1328,-5.3341,-5.498,-5.6263,-6.0021,-6.1991,-6.2356,-6.4998,-6.6247,-6.6249,-6.5653,-6.4403,-6.2548,0.0,-5.9306,-5.7606,-5.6668,0.0,-5.7499,-5.6591,-5.5824,-5.5134,-5.4659,-5.304,-5.052,-4.7031,-4.4384,0.0,-3.773,-3.4164,-3.0954,0.0,-2.5866,-2.3758,0.0,0.0,0.0,-1.4373,-1.0833,0.0,0.0,-0.2941,0.1853,0.2777,0.627,0.9418,1.0457,1.2258,1.3603,1.3603,1.713,2.1474,2.6375,3.3589,3.7869,3.6841,3.6307,3.6066,3.5943,3.6469,3.8136,4.1184,3.9412,3.9515,4.257,4.063,4.0891,4.3956,4.4116,4.4116,4.4116,4.1032,3.9516,3.9516,3.4386,3.1576,3.0599,2.8505,2.7042,2.6199,2.6199,2.6813,2.7707,2.6656,2.7974,3.0615,3.0788,3.0145,2.8951,2.7974,2.8371,2.9189,0.0,0.0,-2.1601,-2.1601,-2.2952,-2.4178,-2.4425,-2.5635,-2.7194,0.0,0.0,0.0,0.0,0.0,0.0,0.0,0.0,0.0,0.0,-4.6778,-4.7935,-4.96,-5.1872,-5.3375,-5.3914,-5.6377,-5.7839,-5.8375,-6.1422,-6.3053,-6.3386,-6.5402,-6.6214,-6.5945,-6.5427,-6.3984,-6.1862,0.0,0.0,-5.8317,0.0,-5.7222,-5.636,-5.748,-5.6581,-5.4672,-5.5296,-5.3584,-5.0525,-4.7954,-4.5005,-4.2018,-3.9598,-3.6753,0.0,0.0,0.0,0.0,0.0,0.0,0.0,0.0,0.0,-1.3923,0.0,0.0,0.0,-0.2616,0.0458,0.3192,0.3047,0.4733,0.6274,0.6274,0.9682,1.1714,0.9676,1.8811,2.5983,2.6954,2.7364,2.8029,2.9078,2.9593,3.1625,3.5851,3.2276,3.2326,3.8059,3.5064,3.5595,4.0427,4.0589,4.0589,4.0589,3.5741,3.3334,3.3186,2.5777,2.227,2.2111,1.9806,1.855,1.855,1.855,1.9473,2.0836,1.9321,1.9312,2.0825,2.5596,2.5322,2.2339,2.2339,2.3476,2.4794,-2.1348,-2.2341,0.0,-2.3325,-2.4655,-2.6227,-2.7692,-2.8051,-2.922,0.0,0.0,0.0,0.0,0.0,0.0,0.0,0.0,0.0,-4.8009,0.0,-4.955,-5.2501,-5.2944,-5.4313,-5.7049,-5.7418,-5.8777,-6.1164,-6.2319,-6.3566,-6.487,-6.5741,-6.5901,-6.5429,-6.4813,-6.3701,0.0,0.0,-6.0238,0.0,-5.8528,-5.7222,0.0,-5.748,-5.6581,-5.4505,-5.3569,-5.2365,-5.0763,0.0,-4.6491,-4.4965,0.0,-3.8808,-3.738,-3.3845,0.0,0.0,0.0,0.0,0.0,0.0,-2.2054,-1.9479,-1.5876,0.0,-1.3275,-1.1695,0.0,-0.7594,-0.7829,0.0,0.0,-0.4515,-0.109,0.1403,0.1091,0.5292,0.9746,1.3108,2.0575,2.4009,2.0419,2.045,2.2579,2.7045,2.3259,2.2734,2.748,2.7354,2.734,2.8096,2.8096,2.8096,2.8096,2.734,2.7045,2.7045,2.2291,1.9923,1.9763,1.578,1.4016,1.4016,1.4016,1.4016,1.4327,1.4016,1.2886,1.2086,1.8513,2.0684,2.021,2.021,2.0372,2.0544,-2.3915,-2.4532,0.0,0.0,-2.6349,-2.7572,-2.8289,-2.9925,0.0,0.0,0.0,0.0,0.0,0.0,0.0,0.0,0.0,-4.8039,0.0,0.0,0.0,-5.3695,-5.4755,-5.6044,-5.7547,-5.8285,-5.9627,-6.1583,-6.2762,-6.3912,-6.5115,-6.5517,-6.5601,-6.5399,-6.4669,0.0,-6.2352,0.0,-6.0342,0.0,0.0,0.0,0.0,-5.748,-5.6887,-5.5296,-5.3569,-5.2575,-5.1942,-5.0132,-4.7819,-4.5448,0.0,0.0,0.0,-3.6629,0.0,0.0,0.0,0.0,0.0,-2.8233,-2.5458,-2.2645,-2.098,-1.8922,-1.7019,-1.6312,0.0,0.0,0.0,0.0,0.0,0.0,-0.842,-0.6573,-0.9381,-0.5044,0.0782,0.7509,1.0548,1.2534,1.3261,1.4735,1.7335,2.1771,1.804,1.805,2.3778,2.2969,2.2823,2.3959,2.3959,2.3441,2.2107,1.9641,1.8398,1.8398,1.4142,1.1388,1.0203,0.8263,0.678,0.561,0.561,0.561,0.561,0.561,0.4959,0.4473,0.7263,1.076,1.4153,1.4153,1.5803,1.7783,-2.7519,0.0,0.0,0.0,-2.839,-2.9808,-3.0257,-3.2561,0.0,0.0,0.0,0.0,-4.3095,-4.3787,0.0,0.0,-4.9215,-5.0115,0.0,0.0,-5.3925,0.0,0.0,0.0,-5.8073,-5.899,-6.035,-6.2204,-6.3185,-6.4281,-6.5449,-6.5534,-6.5422,-6.511,-6.437,-6.337,-6.2135,0.0,-6.0331,-5.9377,-5.8564,-5.7379,-5.6282,-5.6811,-5.647,-5.5538,-5.3569,-5.2723,-5.2215,-5.1046,-4.8566,-4.598,-4.6125,-4.3232,-3.9743,0.0,0.0,0.0,-3.5335,-3.4671,-3.4102,-3.172,-2.8535,-2.5923,-2.5354,-2.2584,-2.0252,-2.0318,-1.9822,0.0,0.0,0.0,0.0,0.0,0.0,-1.3476,-1.6863,-1.3324,-0.8115,-0.1759,-0.1287,0.0161,0.4693,0.5477,0.8029,1.3684,1.003,1.0706,1.7882,1.6903,1.6759,1.822,1.821,1.7545,1.5905,1.2268,1.0351,1.0356,0.5979,0.3169,0.1499,0.1,-0.0665,-0.2652,-0.2652,-0.2652,-0.2652,-0.2652,-0.2323,-0.1828,-0.1828,0.1497,0.6506,0.7682,1.0511,1.3659,-3.2011,-3.0393,0.0,0.0,0.0,0.0,-3.4847,0.0,0.0,0.0,0.0,0.0,0.0,0.0,0.0,0.0,0.0,-5.1499,-5.4287,0.0,-5.5203,0.0,0.0,-5.7647,0.0,-5.9515,-6.0951,-6.3738,-6.3787,-6.4666,-6.6357,-6.6192,-6.5512,-6.437,-6.3555,-6.2583,-6.1568,-6.076,-6.0397,-6.0273,-5.9443,-5.7895,-5.6126,0.0,-5.4672,-5.4505,-5.3309,-5.2245,-5.1011,-4.9679,-4.8465,-4.7206,-4.6565,-4.5474,-4.4215,-4.3453,-4.3174,-4.2451,-3.9323,-3.8465,-3.7514,-3.3983,-3.1597,-2.9599,-2.778,-2.5918,-2.4568,-2.4847,-2.3154,-2.1754,-2.2247,0.0,0.0,0.0,0.0,0.0,0.0,-1.9574,-1.9371,-1.9037,-1.5278,-1.0935,-0.6499,-0.9779,-0.8662,0.0,-0.3453,-0.2147,0.6683,0.7194,0.7198,0.7194,0.7194,0.7194,0.7027,0.4833,0.3662,0.3662,-0.0832,-0.2998,-0.3165,-0.5349,-0.7512,-0.9633,-0.9633,-0.9633,-0.9633,-0.9633,-0.8331,-0.653,-0.653,-0.5013,-0.2497,0.1832,0.5007,0.7034,0.0,0.0,0.0,0.0,0.0,0.0,0.0,-3.7133,0.0,0.0,0.0,0.0,0.0,-4.5723,-4.7492,0.0,0.0,-5.3078,-5.5168,-5.5872,0.0,0.0,0.0,-5.8641,0.0,0.0,-6.1799,-6.3655,-6.4213,-6.5056,-6.6167,-6.5656,-6.5073,-6.437,-6.3476,-6.2845,0.0,0.0,0.0,0.0,0.0,-5.7453,-5.6204,-5.581,-5.4723,-5.3396,-5.3077,-5.2154,-5.1105,-5.0698,-4.964,-4.8623,-4.8733,-4.7379,-4.5866,-4.5885,-4.4689,-4.3174,-4.2097,-4.1069,-3.9758,-3.736,-3.5258,-3.344,-3.172,-2.9757,-2.8357,-2.848,-2.7939,-2.7475,-2.7554,0.0,0.0,0.0,0.0,0.0,0.0,-2.6955,-2.6266,-2.6266,-1.9865,-1.5262,-1.5136,-1.2644,-0.9722,-0.6554,-0.5119,-0.2494,0.2005,0.2332,0.2332,0.234,0.0834,0.0,0.0,-0.2173,-0.3999,-0.5474,-0.6973,-0.9283,-1.2061,-1.2749,-1.4415,-1.6571,-1.6571,-1.5763,-1.446,-1.5926,-1.4474,-1.1214,-1.2682,-1.1003,-0.7179,-0.2832,0.1166,0.4674,-3.2488,0.0,0.0,0.0,0.0,0.0,0.0,0.0,0.0,0.0,-4.235,0.0,-4.5752,0.0,-4.8491,0.0,-5.2221,-5.3862,-5.5574,-5.6613,0.0,-5.8635,-5.8874,0.0,0.0,0.0,0.0,-6.3671,-6.4502,-6.5304,-6.609,-6.5427,-6.4833,-6.4332,-6.297,-6.256,-6.2668,-6.084,-6.022,0.0,0.0,-5.7222,0.0,-5.6204,-5.4806,-5.2812,-5.2395,-5.1819,-5.1229,-5.1229,-5.0603,-4.999,-5.0632,-4.9893,-4.8807,-4.8873,-4.7512,-4.5849,-4.532,-4.364,-4.1797,-4.0578,-3.8387,-3.6375,-3.522,-3.3541,-3.2122,-3.2122,-3.1599,-3.1265,-3.1384,-3.0885,0.0,0.0,0.0,0.0,0.0,-3.1284,-3.0515,-3.0515,-2.4863,-2.1007,-2.0825,-1.9154,-1.6046,-1.1347,-0.9881,-0.7113,-0.2673,-0.2333,-0.2332,-0.234,-0.384,-0.4843,-0.5683,-0.7849,-1.0154,-1.2257,-1.3097,-1.507,-1.7702,-1.7702,-1.8865,-2.1039,-2.1039,-2.022,-1.9085,-2.0382,-1.8933,-1.5843,-1.7302,-1.5975,-1.2834,-0.7667,-0.3501,0.0,0.0,0.0,0.0,0.0,-3.6703,0.0,0.0,0.0,-4.169,0.0,-4.3882,-4.5781,-4.6864,-4.814,-4.9663,-5.1743,-5.2739,-5.3925,-5.5631,-5.6962,0.0,0.0,-5.9176,-5.9744,-6.0373,0.0,0.0,0.0,-6.4709,-6.5474,-6.609,-6.5427,-6.4833,-6.4332,-6.2132,0.0,-6.2705,-6.1055,-6.0371,-6.0211,-5.8598,-5.7264,-5.6204,-5.6204,-5.4806,-5.2723,-5.1635,-5.1199,-5.1229,-5.1229,-5.1229,-5.1319,-5.1947,-5.2606,-5.3039,-5.2326,-5.1406,-5.0381,-4.8873,-4.6307,-4.4031,-4.3716,-4.1099,-3.8675,-3.8544,-3.7146,-3.5736,-3.5736,-3.4467,-3.3422,-3.3648,-3.2436,-3.1354,0.0,0.0,0.0,0.0,-3.2776,-3.2792,-3.2927,-3.0945,-2.8146,-2.4074,-2.8894,-2.717,-1.5054,-1.7557,-1.6071,-0.7853,-0.7361,-0.7361,-0.7198,-0.7364,-0.8344,-1.0128,-1.2617,-1.4914,-1.6999,-1.9361,-2.0382,-2.0382,-2.0382,-2.1512,-2.346,-2.346,-2.3288,-2.3288,-2.33,-2.2006,-1.9907,-2.0069,-2.0069,-1.9085,-1.2682,-0.8874,-0.67,-3.4181,-3.6834,-3.8582,0.0,-3.8921,-3.9544,0.0,0.0,0.0,0.0,-4.5024,-4.6167,-4.8087,-4.9345,-5.079,-5.2637,-5.4149,0.0,0.0,0.0,0.0,-5.9176,-5.9658,-6.0514,-6.1774,-6.2799,-6.3726,-6.453,-6.558,-6.6013,-6.5936,-6.5388,-6.4833,-6.4332,-6.2761,-6.2361,-6.2705,-6.1055,-6.0023,-5.9377,-5.8943,-5.7751,-5.6204,-5.6204,-5.4806,-5.29,-5.2575,-5.188,-5.1229,-5.1229,-5.1229,-5.1259,-5.1409,-5.1917,-5.2479,-5.2812,-5.2297,-5.1669,-5.1745,-5.0408,-4.8577,-4.7237,-4.544,-4.3644,-4.2381,-4.0807,-3.9736,-3.9736,-3.9346,-3.9128,-3.9103,-3.8882,-3.8653,0.0,0.0,0.0,0.0,-3.747,-3.7245,-3.8616,-3.5705,-3.3208,-3.239,-2.9411,-2.6779,-2.5101,-2.2936,-2.0147,-1.6555,-1.7897,-1.7288,-1.4073,-1.5591,-1.591,-1.4876,-1.8598,-2.1508,-2.3769,-2.5806,-2.6785,-2.6895,-2.6895,-2.7222,-2.7706,-2.7706,-2.6895,-2.5596,-2.7065,-2.4685,-2.0069,-2.1684,-2.1362,-1.9248,-1.4295,-1.2154,-1.0992,-3.3957,0.0,0.0,-4.0338,0.0,0.0,-4.1518,-4.2544,0.0,-4.5812,-4.6578,0.0,-4.9899,-5.0703,-5.175,-5.3608,-5.4954,0.0,-5.6861,0.0,0.0,-5.9389,-6.0417,-6.1416,-6.2406,-6.3624,0.0,-6.4944,-6.5838,-6.6012,-6.5542,-6.5035,-6.4518,-6.3978,-6.2622,-6.2126,-6.2166,-6.0519,-5.9574,-5.9044,-5.8737,-5.7891,0.0,-5.636,-5.5134,-5.3569,-5.3077,-5.2154,-5.1229,-5.1229,-5.1229,-5.1229,-5.1229,-5.1678,-5.2276,-5.2636,-5.2364,-5.2203,-5.3231,-5.2174,-5.0685,-5.0326,-4.9206,-4.7716,-4.6821,-4.5899,-4.5132,-4.4475,-4.386,-4.3114,-4.2431,-4.1693,-4.1338,0.0,0.0,0.0,0.0,-4.052,-4.041,-4.1495,-3.9507,-3.7983,-3.7402,-3.2748,-2.9154,-2.7659,-2.6194,-2.399,-2.1096,-2.2863,-2.2414,-1.9274,-2.1919,-2.3055,-2.2066,-2.5335,-2.7593,-2.9035,-3.0084,-3.0729,-3.0823,-3.0823,-3.0823,-3.0823,-3.0823,-2.9559,-2.782,-2.9868,-2.8132,-2.4197,-2.5332,-2.4552,-2.2327,-1.8865,-1.6416,-1.4138,-3.362,0.0,0.0,0.0,0.0,0.0,0.0,-4.42,0.0,-4.7036,0.0,-4.9742,-5.1671,-5.196,-5.2771,-5.4572,0.0,-5.6169,-5.7015,-5.8524,-5.9389,-5.9389,-6.1114,-6.2305,-6.2752,-6.4084,-6.4955,0.0,-6.581,-6.5751,-6.5099,-6.4626,-6.4099,-6.355,-6.2318,0.0,0.0,-5.9925,-5.9178,-5.9044,-5.8317,-5.8027,-5.7808,-5.6778,-5.573,-5.4672,-5.3483,-5.2305,-5.1229,-5.1229,-5.1229,-5.1229,-5.1229,-5.1618,-5.2097,-5.2187,-5.2141,-5.2471,-5.3863,-5.2787,-5.159,-5.2963,-5.1943,-5.0713,-5.0933,-5.0713,-5.0045,-4.8965,-4.747,-4.588,-4.4768,-4.3387,-4.2523,0.0,-4.2715,-4.3028,-4.3571,-4.3076,0.0,0.0,-4.2812,0.0,-4.0758,-3.7569,-3.3273,-2.7856,-2.92,-2.8461,-2.42,-2.5545,-2.5684,-2.4033,-2.69,-2.8987,-3.0097,-3.156,-3.2576,-3.3162,-3.3515,-3.3532,-3.323,-3.3515,-3.3515,-3.323,-3.323,-3.2168,-3.0361,-3.2184,-3.1727,-2.9743,-2.9449,-2.8374,-2.6531,-2.3939,-2.0705,-1.6802,0.0,0.0,0.0,0.0,0.0,-4.5058,-4.5873,-4.6313,-4.7066,-4.8254,-4.9425,-5.055,-5.1776,-5.2497,-5.3574,-5.5344,-5.6259,0.0,0.0,0.0,0.0,-5.9389,-6.1114,-6.2551,-6.3575,-6.4388,-6.5246,-6.6144,-6.6126,-6.5751,-6.5099,-6.4626,-6.4099,-6.3587,-6.288,0.0,-6.1548,-6.058,-5.9768,-5.9111,-5.8943,-5.8494,-5.7881,-5.7701,-5.6887,-5.581,-5.464,-5.2989,-5.1229,-5.1229,-5.1229,-5.1229,-5.1229,-5.1289,-5.1498,-5.2037,-5.2532,-5.3179,-5.3943,-5.4339,-5.4509,-5.4743,-5.2722,-5.1044,-5.2295,-5.0629,-4.9194,-5.0157,-4.914,-4.8363,-4.9314,-4.9287,-4.863,-4.7534,-4.7709,-4.847,-4.9844,-4.6886,0.0,0.0,-4.4777,-4.2583,-4.4063,-4.2327,-3.9371,-3.5619,-3.6945,-3.6303,-3.2424,-3.2424,-3.2373,-3.1801,-3.1007,-3.203,-3.5086,-3.4649,-3.5194,-3.6626,-3.8779,-3.8938,-3.7264,-3.8779,-3.8635,-3.7283,-3.7283,-3.6146,-3.4451,-3.4751,-3.385,-3.1743,-3.0053,-2.9138,-2.8359,-2.4564,-2.2648,-2.1673,0.0,0.0,0.0,0.0,0.0,0.0,0.0,-4.8817,-4.9694,-5.0365,-5.0855,-5.1557,-5.2627,-5.3381,-5.4344,-5.5574,-5.6421,-5.7328,-5.8289,-5.899,-5.9681,-6.0437,-6.1989,-6.3383,-6.446,-6.5129,-6.5784,-6.6423,-6.6128,-6.5552,-6.4731,-6.4481,-6.3975,-6.3168,-6.2442,-6.1715,0.0,-6.0086,-5.9245,-5.8494,-5.8494,-5.8246,-5.7808,-5.7222,-5.6701,-5.6047,-5.5002,-5.3913,-5.2812,-5.1635,-5.1229,-5.1229,-5.1229,-5.1229,-5.1289,-5.1588,-5.2157,-5.2815,-5.3503,-5.4162,-5.476,-5.5089,-5.4068,-5.3279,-5.3964,-5.2963,-5.1972,-5.1943,-5.1291,-5.0851,-5.0713,-5.0713,-5.0491,-4.9734,-4.9837,-5.0254,-5.1043,-4.9409,-4.8629,-5.0228,0.0,-4.6547,-4.6702,-4.6044,-4.4055,-4.0193,-3.9647,-3.8623,-3.6818,-3.7548,-3.7646,-3.6543,-3.7545,-3.8623,-3.9511,-3.9983,-4.015,-4.0013,-4.1667,-4.1882,-4.0843,-4.1074,-4.1179,-4.12,-3.9266,-3.7817,-3.6901,-3.5924,-3.49,-3.4001,-3.2927,-3.1879,-3.0654,-2.7535,-2.6293,-2.5806,0.0,-4.1319,0.0,0.0,-4.5754,-4.7745,-4.8942,-5.0671,-5.1921,-5.1921,-5.2065,-5.2594,-5.3651,-5.4391,-5.5144,-5.5893,-5.6668,-5.7569,-5.8595,-5.9139,-5.9971,-6.1323,-6.2785,-6.407,-6.5093,-6.5769,-6.6221,-6.6423,-6.5961,-6.5184,-6.4106,-6.418,-6.3723,-6.2755,-6.1969,-6.1113,-6.0335,-5.9443,-5.8633,-5.7881,-5.7881,-5.7881,-5.7808,-5.6887,-5.6547,-5.6437,-5.5329,-5.492,-5.464,-5.2544,-5.1727,-5.1542,-5.1542,-5.1386,-5.1229,-5.1229,-5.1678,-5.2306,-5.2845,-5.3563,-5.4341,-5.485,-5.4857,-5.4845,-5.5078,-5.4976,-5.4509,-5.3623,-5.3518,-5.2963,-5.1044,-5.1263,-5.159,-5.1263,-5.1153,-5.1263,-5.159,-5.1153,-5.0823,-5.1153,-5.0933,-5.0186,-4.8899,-4.8859,-4.7596,-4.4451,-4.1611,-4.017,-4.0323,-4.1217,-4.1261,-4.0541,-4.2683,-4.3648,-4.3219,-4.4007,-4.3924,-4.2854,-4.3374,-4.3757,-4.3645,-4.3166,-4.3525,-4.4369,-4.1566,-3.986,-3.8754,-3.7378,-3.6534,-3.6109,-3.5646,-3.4601,-3.2792,-3.0361,-2.9449,-2.8657,0.0,0.0,0.0,0.0,0.0,-4.8973,-5.0087,-5.1155,-5.1921,-5.1921,-5.2731,-5.3617,-5.4419,-5.5144,-5.5893,-5.6721,-5.7449,-5.8105,-5.8673,-5.9139,-5.9971,-6.1323,-6.2785,-6.4075,-6.5077,-6.575,-6.6221,-6.6423,-6.5571,-6.4519,-6.32,-6.3559,-6.3363,-6.2755,-6.1969,-6.1113,-6.0335,-5.9443,-5.8633,-5.7881,-5.7881,-5.7881,-5.7881,-5.7808,-5.7701,-5.7554,-5.647,-5.6047,-5.5889,-5.4672,-5.3569,-5.2723,-5.2723,-5.2063,-5.1229,-5.1229,-5.1678,-5.2217,-5.2276,-5.3234,-5.4221,-5.4281,-5.3759,-5.3518,-5.4845,-5.42,-5.3518,-5.4743,-5.4976,-5.4068,-5.1263,-5.2934,-5.4304,-5.2963,-5.2751,-5.3279,-5.4611,-5.2373,-5.1263,-5.2615,-5.1618,-5.0685,-5.0436,-5.0463,-5.0296,-4.9901,-4.5739,-4.3712,-4.4957,-4.2544,-4.2431,-4.5132,-4.2809,-4.2949,-4.5942,-4.3438,-4.2875,-4.4206,-4.4724,-4.496,-4.5113,-4.7109,-4.7223,-4.5762,-4.5919,-4.4186,-4.1022,-4.09,-3.9778,-3.8117,-3.6275,-3.5348,-3.4751,-3.0807,-2.9449,-2.8983,0.0,0.0,-4.4691,-4.605,-4.8223,-5.0087,-5.1155,-5.217,-5.3043,-5.3481,-5.3909,-5.4264,-5.4606,-5.5667,-5.6563,-5.6861,-5.785,-5.8632,-5.9065,-6.0051,-6.1217,-6.2682,-6.3872,-6.4945,-6.5858,-6.6153,-6.6283,-6.623,-6.5465,-6.4681,-6.3879,-6.3663,-6.3317,-6.2805,-6.2464,-6.186,-6.1055,-6.0273,-5.9377,-5.8564,-5.8065,-5.7881,-5.7881,-5.7881,-5.7881,-5.7808,-5.7372,-5.7222,-5.7114,-5.6734,-5.541,-5.3913,-5.3913,-5.3569,-5.3077,-5.2395,-5.2429,-5.2551,-5.2257,-5.2606,-5.3204,-5.4012,-5.3971,-5.3934,-5.4988,-5.4743,-5.4509,-5.5078,-5.5179,-5.4845,-5.3623,-5.4406,-5.4976,-5.4406,-5.4304,-5.4509,-5.5078,-5.4171,-5.3623,-5.4304,-5.3727,-5.3384,-5.3384,-5.2615,-5.2509,-5.3279,-4.9963,-4.809,-4.8646,-4.7548,-4.7484,-4.8779,-4.6739,-4.6245,-4.7652,-4.6446,-4.6184,-4.6838,-4.7369,-4.7622,-4.7648,-4.6904,-4.5776,-4.4318,-4.4658,-4.4097,-4.2849,-4.1749,-4.1467,-4.1749,-3.9717,-3.8997,-3.8543,-3.4566,-3.3079,-3.2776,-4.2629,-4.4144,-4.5694,-4.763,-4.9568,-5.1155,-5.2142,-5.3146,-5.4106,-5.4818,-5.5119,-5.5297,-5.5297,-5.6259,-5.7029,-5.7389,-5.8215,-5.8989,-5.9605,-6.0798,-6.2108,-6.3614,-6.4638,-6.5606,-6.6432,-6.6416,-6.6322,-6.6167,-6.5465,-6.4785,-6.4249,-6.3559,-6.3094,-6.2805,-6.2805,-6.2324,-6.1548,-6.0997,-6.0273,-5.9377,-5.8564,-5.8246,-5.828,-5.8027,-5.7881,-5.7881,-5.7881,-5.7881,-5.7881,-5.7881,-5.6887,-5.549,-5.5166,-5.4838,-5.4421,-5.3656,-5.3396,-5.3258,-5.255,-5.2574,-5.2873,-5.3481,-5.3773,-5.4072,-5.476,-5.491,-5.497,-5.5149,-5.5179,-5.5179,-5.5179,-5.5179,-5.5179,-5.5179,-5.5179,-5.5179,-5.5179,-5.5179,-5.5179,-5.5179,-5.5179,-5.5179,-5.5179,-5.4304,-5.4068,-5.5078,-5.3279,-5.2051,-5.2051,-5.1153,-5.0933,-5.1372,-4.996,-4.9194,-4.9194,-4.9194,-4.9194,-4.9194,-4.9595,-4.964,-4.9667,-4.7378,-4.6045,-4.5361,-4.5046,-4.4792,-4.4596,-4.3338,-4.3404,-4.3978,-4.2031,-4.1326,-4.09,-3.6957,-3.5497,-3.5199,-4.6401,-4.789,-4.9054,-5.0165,-5.1229,-5.2142,-5.2977,-5.3901,-5.4878,-5.561,-5.6367,-5.6861,-5.6861,-5.6912,-5.7389,-5.8553,-5.8676,-5.9178,-6.0203,-6.1095,-6.228,-6.3743,-6.484,-6.5765,-6.6563,-6.6463,-6.6384,-6.6423,-6.5541,-6.4679,-6.3879,-6.2859,-6.2538,-6.2805,-6.2805,-6.2324,-6.1604,-6.1604,-6.1113,-6.0273,-5.9443,-5.9111,-5.8976,-5.8174,-5.7881,-5.7881,-5.7881,-5.7881,-5.7881,-5.7881,-5.7881,-5.7628,-5.6547,-5.5458,-5.4589,-5.4589,-5.4589,-5.4337,-5.3165,-5.3427,-5.356,-5.2472,-5.2725,-5.3384,-5.4072,-5.4221,-5.4401,-5.5059,-5.5179,-5.5179,-5.5179,-5.5179,-5.5179,-5.5179,-5.5179,-5.5179,-5.5179,-5.5179,-5.5179,-5.5179,-5.5179,-5.5179,-5.5179,-5.5179,-5.5179,-5.5179,-5.5179,-5.5179,-5.5179,-5.2266,-5.1372,-5.2963,-5.1481,-5.0713,-5.0713,-5.0713,-5.0713,-5.0713,-5.0713,-5.0713,-5.0629,-4.964,-4.9574,-5.006,-4.9113,-4.7691,-4.5978,-4.6476,-4.5727,-4.3978,-4.2031,-4.1326,-4.09,-3.6957,-3.5497,-3.5199,-4.6313,-4.7207,-4.8327,-5.0973,-5.2146,-5.3011,-5.3999,-5.4809,-5.5766,-5.6862,-5.7243,-5.7666,-5.8524,-5.8349,-5.8301,-5.8673,-5.9364,-6.0194,-6.1133,-6.2375,-6.3632,-6.484,-6.5741,-6.6361,-6.6572,-6.6455,-6.6322,-6.6205,-6.5465,-6.4818,-6.4211,-6.3522,-6.3282,-6.3317,-6.2965,-6.2654,-6.2376,-6.1824,-6.1456,-6.1113,-6.0335,-5.9639,-5.9111,-5.9478,-5.8909,-5.7954,-5.8494,-5.8388,-5.7881,-5.7881,-5.7881,-5.7808,-5.7446,-5.7147,-5.6734,-5.5889,-5.5698,-5.5458,-5.4337,-5.4242,-5.4442,-5.448,-5.4674,-5.4781,-5.4698,-5.503,-5.5237,-5.466,-5.5516,-5.6183,-5.5381,-5.5179,-5.5179,-5.5179,-5.5918,-5.6183,-5.528,-5.5918,-5.6085,-5.528,-5.5179,-5.5179,-5.5179,-5.5179,-5.5551,-5.6347,-5.6445,-5.6085,-5.528,-5.4274,-5.3964,-5.4509,-5.3069,-5.2295,-5.2295,-5.2295,-5.2295,-5.2295,-5.2295,-5.1181,-4.9194,-4.9897,-4.9435,-4.809,-4.7503,-4.7533,-4.7844,-4.6645,-4.6933,-4.7665,-4.5727,-4.4345,-4.2849,-4.0432,-3.8602,-3.7492,-4.7516,-4.8214,-4.9236,-5.2357,-5.3313,-5.4058,-5.5262,-5.5988,-5.6812,-5.7892,-5.8196,-5.853,-5.9319,-5.9361,-5.929,-5.929,-5.9933,-6.0776,-6.1993,-6.3204,-6.4365,-6.5436,-6.626,-6.6702,-6.6727,-6.6527,-6.6351,-6.623,-6.5465,-6.4833,-6.437,-6.385,-6.3498,-6.3271,-6.2917,-6.2805,-6.2755,-6.2271,-6.2076,-6.1969,-6.1171,-6.0484,-6.0051,-6.0335,-5.9543,-5.8458,-5.8943,-5.8564,-5.7881,-5.7881,-5.7881,-5.7881,-5.7881,-5.7881,-5.7808,-5.7039,-5.6887,-5.6624,-5.549,-5.5215,-5.5181,-5.5217,-5.5229,-5.5165,-5.5197,-5.5709,-5.6027,-5.5222,-5.6217,-5.7059,-5.6269,-5.6388,-5.6541,-5.6541,-5.7181,-5.7434,-5.6638,-5.7181,-5.7339,-5.6638,-5.6541,-5.6541,-5.6541,-5.6541,-5.68,-5.7621,-5.7714,-5.7371,-5.6541,-5.6085,-5.5651,-5.5179,-5.4304,-5.386,-5.386,-5.386,-5.386,-5.386,-5.386,-5.2857,-5.1071,-5.14,-5.0487,-4.838,-4.7889,-4.7821,-4.8033,-4.7145,-4.7691,-4.9135,-4.722,-4.5564,-4.3818,-4.2031,-4.0085,-3.8574,-4.9821,-5.055,-5.1459,-5.4097,-5.4695,-5.5238,-5.6668,-5.7328,-5.7936,-5.8676,-5.9139,-5.9458,-5.9492,-6.002,-6.0357,-6.0349,-6.0433,-6.1172,-6.2791,-6.3714,-6.4668,-6.5663,-6.6482,-6.6907,-6.6867,-6.6569,-6.6389,-6.6384,-6.5503,-6.4866,-6.4407,-6.3892,-6.3317,-6.2855,-6.2805,-6.2805,-6.2805,-6.2805,-6.2805,-6.2755,-6.1969,-6.1659,-6.1548,-6.082,-6.0023,-5.9178,-5.9178,-5.8703,-5.7954,-5.7881,-5.7881,-5.7881,-5.7881,-5.7881,-5.7881,-5.7881,-5.7881,-5.7628,-5.6624,-5.6282,-5.6047,-5.5084,-5.4755,-5.4832,-5.5505,-5.6093,-5.6518,-5.6399,-5.7149,-5.7748,-5.766,-5.8268,-5.8748,-5.8748,-5.887,-5.8902,-5.8812,-5.8902,-5.8902,-5.8812,-5.8812,-5.8812,-5.8812,-5.8812,-5.8812,-5.8902,-5.8902,-5.8902,-5.8812,-5.7807,-5.6638,-5.5381,-5.528,-5.5179,-5.5179,-5.5179,-5.5179,-5.5179,-5.5179,-5.5179,-5.4976,-5.3756,-5.2295,-5.0629,-4.9844,-4.864,-4.7277,-4.7755,-4.8309,-4.8584,-4.6867,-4.5419,-4.4049,-4.229,-4.0514,-3.8865,-5.0865,-5.2075,-5.291,-5.4385,-5.5588,-5.651,-5.6861,-5.7776,-5.8639,-5.9176,-5.9625,-6.0074,-6.0456,-6.0687,-6.0904,-6.1031,-6.1786,-6.2656,-6.37,-6.4687,-6.5641,-6.6562,-6.6789,-6.6825,-6.6676,-6.6477,-6.6273,-6.6013,-6.5388,-6.5067,-6.49,-6.4019,-6.3543,-6.3363,-6.2965,-6.2805,-6.2805,-6.2805,-6.2805,-6.2755,-6.2567,-6.2129,-6.1659,-6.2076,-6.1343,-6.0086,-6.0086,-5.9509,-5.8737,-5.8137,-5.7881,-5.7881,-5.7881,-5.7881,-5.7881,-5.7881,-5.7881,-5.7808,-5.7554,-5.748,-5.748,-5.7222,-5.647,-5.5843,-5.6006,-5.6628,-5.6939,-5.5954,-5.7042,-5.7865,-5.6925,-5.7413,-5.8012,-5.8012,-5.9166,-5.987,-5.8902,-5.961,-5.9784,-5.8902,-5.8812,-5.8812,-5.8812,-5.8812,-5.917,-6.0075,-6.0161,-5.9784,-5.8812,-5.9434,-5.878,-5.6638,-5.5651,-5.5179,-5.5179,-5.5179,-5.5179,-5.5179,-5.5179,-5.4641,-5.3518,-5.4304,-5.3174,-5.0713,-5.1649,-5.0874,-4.8811,-4.8942,-4.8634,-4.8159,-4.8181,-4.7094,-4.5482,-4.5564,-4.3382,-4.0636,-5.1795,-5.2774,-5.3604,-5.5344,-5.6313,-5.708,-5.7627,-5.8475,-5.9176,-5.9658,-6.017,-6.0623,-6.0834,-6.1112,-6.1439,-6.1944,-6.2467,-6.3186,-6.4131,-6.5082,-6.5996,-6.6875,-6.6804,-6.6692,-6.6615,-6.6397,-6.6165,-6.5897,-6.5168,-6.4765,-6.4765,-6.3723,-6.3262,-6.3215,-6.2917,-6.2805,-6.2805,-6.2805,-6.2805,-6.2805,-6.2805,-6.2515,-6.2219,-6.2618,-6.2023,-6.0879,-6.0519,-5.9832,-5.9011,-5.8209,-5.7881,-5.7881,-5.7881,-5.7881,-5.7881,-5.7881,-5.7881,-5.7881,-5.7881,-5.7881,-5.7881,-5.7881,-5.7446,-5.6963,-5.6963,-5.7296,-5.7409,-5.683,-5.774,-5.8395,-5.7723,-5.8232,-5.8807,-5.8807,-5.996,-6.0654,-6.0041,-6.0837,-6.1201,-6.0501,-6.0417,-6.0417,-6.0417,-6.0417,-6.0703,-6.1399,-6.1399,-6.1119,-6.0501,-6.0501,-5.9522,-5.7086,-5.6896,-5.6831,-5.6831,-5.628,-5.5986,-5.5986,-5.5451,-5.4743,-5.4068,-5.4845,-5.3964,-5.1835,-5.2615,-5.1486,-4.898,-4.898,-4.8402,-4.7581,-4.7908,-4.7121,-4.5978,-4.637,-4.4844,-4.2591,-5.2808,-5.3409,-5.424,-5.6527,-5.7029,-5.7533,-5.8553,-5.9139,-5.9663,-6.0082,-6.0661,-6.102,-6.1032,-6.1312,-6.1843,-6.2737,-6.2931,-6.3454,-6.4413,-6.5312,-6.612,-6.6882,-6.6692,-6.6577,-6.6577,-6.6269,-6.6013,-6.5897,-6.4871,-6.437,-6.437,-6.3271,-6.2805,-6.2805,-6.2805,-6.2805,-6.2805,-6.2805,-6.2805,-6.2805,-6.2805,-6.2805,-6.2805,-6.2805,-6.2376,-6.1659,-6.0879,-6.0149,-5.9377,-5.8388,-5.8065,-5.8065,-5.7954,-5.7881,-5.7881,-5.7881,-5.7881,-5.7881,-5.7881,-5.7881,-5.7881,-5.7881,-5.7881,-5.7881,-5.7881,-5.7881,-5.7881,-5.7881,-5.8389,-5.8829,-5.8829,-5.9438,-5.9945,-5.9945,-6.0588,-6.1163,-6.1298,-6.1839,-6.2279,-6.2381,-6.2381,-6.2381,-6.2381,-6.2381,-6.2381,-6.2381,-6.2381,-6.2302,-6.211,-6.1317,-5.987,-5.7621,-5.836,-5.8722,-5.8542,-5.7527,-5.6896,-5.6704,-5.572,-5.5179,-5.5179,-5.5179,-5.4509,-5.3308,-5.3308,-5.1755,-4.9194,-4.8965,-4.8264,-4.7248,-4.7227,-4.6784,-4.6131,-4.6429,-4.5529,-4.4414,-5.3969,-5.4869,-5.5631,-5.6721,-5.7767,-5.8471,-5.8635,-5.9424,-6.0091,-6.022,-6.0686,-6.1057,-6.1211,-6.1389,-6.1843,-6.2737,-6.3581,-6.4443,-6.5351,-6.6211,-6.6744,-6.6882,-6.6692,-6.6538,-6.6423,-6.609,-6.5897,-6.5897,-6.4871,-6.437,-6.437,-6.3271,-6.2805,-6.2805,-6.2805,-6.2805,-6.2805,-6.2805,-6.2805,-6.2805,-6.2805,-6.2805,-6.2805,-6.2805,-6.2705,-6.2515,-6.1715,-6.1343,-6.0997,-5.9478,-5.8977,-5.8806,-5.8137,-5.7881,-5.7881,-5.7881,-5.7881,-5.7881,-5.7881,-5.7881,-5.7881,-5.7881,-5.7881,-5.7881,-5.7881,-5.7881,-5.7881,-5.7881,-5.7983,-5.8051,-5.8051,-5.866,-5.9167,-5.9167,-5.981,-6.052,-6.1197,-6.14,-6.1704,-6.2313,-6.2381,-6.2381,-6.2381,-6.2381,-6.2381,-6.2381,-6.2381,-6.1951,-6.0953,-6.1676,-6.148,-6.0075,-5.9258,-5.836,-5.7245,-5.7086,-5.6445,-5.5451,-5.528,-5.5179,-5.5179,-5.5179,-5.5078,-5.4845,-5.4845,-5.386,-5.2187,-5.0933,-4.9562,-4.816,-4.7389,-4.6984,-4.7109,-4.8031,-4.7199,-4.5568,-5.4809,-5.578,-5.6616,-5.7351,-5.8164,-5.8796,-5.9065,-5.9744,-6.0332,-6.0644,-6.1031,-6.128,-6.1407,-6.1537,-6.2136,-6.3469,-6.4042,-6.4883,-6.6211,-6.668,-6.6907,-6.6919,-6.665,-6.6358,-6.6153,-6.5974,-6.5897,-6.5897,-6.4871,-6.437,-6.437,-6.3271,-6.2805,-6.2805,-6.2805,-6.2805,-6.2805,-6.2805,-6.2805,-6.2805,-6.2805,-6.2805,-6.2805,-6.2805,-6.2805,-6.2705,-6.1915,-6.1604,-6.1343,-5.9704,-5.9478,-5.9574,-5.8317,-5.8209,-5.8424,-5.7993,-5.7881,-5.7881,-5.7881,-5.7881,-5.7881,-5.7881,-5.7881,-5.7881,-5.7881,-5.7881,-5.7881,-5.7881,-5.7881,-5.7881,-5.7881,-5.8186,-5.8423,-5.8423,-5.9032,-5.9641,-6.0013,-6.0419,-6.0926,-6.1704,-6.1806,-6.1941,-6.2347,-6.2381,-6.2381,-6.2381,-6.2381,-6.211,-6.1595,-6.211,-6.211,-6.1595,-6.1036,-6.0128,-5.8959,-5.8237,-5.7339,-5.6183,-5.5551,-5.5179,-5.5179,-5.5179,-5.5179,-5.5179,-5.5179,-5.4406,-5.2963,-5.2266,-5.0629,-4.8442,-4.8054,-4.7554,-4.7205,-4.7707,-4.7731,-4.7458,-5.5402,-5.6438,-5.7328,-5.8015,-5.8632,-5.9139,-5.9492,-6.0076,-6.0606,-6.1015,-6.1318,-6.1533,-6.1542,-6.1792,-6.2624,-6.417,-6.4489,-6.5273,-6.6797,-6.6891,-6.6867,-6.6819,-6.6493,-6.6205,-6.5923,-6.5897,-6.5833,-6.5717,-6.4837,-6.4332,-6.4178,-6.3224,-6.2805,-6.2805,-6.2805,-6.2805,-6.2805,-6.2805,-6.2805,-6.2805,-6.2805,-6.2805,-6.2805,-6.2805,-6.2805,-6.2705,-6.2076,-6.1915,-6.1659,-6.0176,-6.0113,-6.0397,-5.8977,-5.8772,-5.8976,-5.8388,-5.8209,-5.8137,-5.7954,-5.7881,-5.7881,-5.7881,-5.7881,-5.7881,-5.7881,-5.7881,-5.7881,-5.7881,-5.7881,-5.7881,-5.7881,-5.7881,-5.7881,-5.7881,-5.8355,-5.8829,-5.8998,-5.9505,-6.0148,-6.0926,-6.1197,-6.1535,-6.2076,-6.2279,-6.2381,-6.2381,-6.2381,-6.2381,-6.2381,-6.2381,-6.2381,-6.2381,-6.211,-6.1595,-6.0586,-5.9434,-5.8177,-5.6991,-5.6085,-5.5451,-5.5179,-5.5179,-5.5179,-5.5179,-5.5179,-5.4539,-5.3518,-5.3174,-5.1646,-4.9535,-4.8762,-4.8028,-4.7415,-4.7201,-4.7657,-4.841,-5.5552,-5.6711,-5.7802,-5.8512,-5.9389,-6.0006,-6.0036,-6.0571,-6.1036,-6.1239,-6.1427,-6.1539,-6.1662,-6.2416,-6.3276,-6.4213,-6.5038,-6.5898,-6.6836,-6.6888,-6.6815,-6.6613,-6.628,-6.6024,-6.5897,-6.5897,-6.5663,-6.5161,-6.4626,-6.4138,-6.3637,-6.3062,-6.2805,-6.2805,-6.2805,-6.2805,-6.2805,-6.2805,-6.2805,-6.2805,-6.2805,-6.2805,-6.2805,-6.2805,-6.2805,-6.2805,-6.2755,-6.2705,-6.2567,-6.1715,-6.1456,-6.1343,-6.0458,-5.9704,-5.9111,-5.9044,-5.8976,-5.8875,-5.8065,-5.7881,-5.7881,-5.7881,-5.7881,-5.7881,-5.7881,-5.7881,-5.7881,-5.7881,-5.7881,-5.7881,-5.7881,-5.7881,-5.7881,-5.7881,-5.7949,-5.822,-5.893,-5.9066,-5.937,-6.0114,-6.0858,-6.1332,-6.1366,-6.2009,-6.2381,-6.2381,-6.2381,-6.2381,-6.2381,-6.2381,-6.2381,-6.2381,-6.1317,-6.0703,-6.0586,-5.9434,-5.8177,-5.6991,-5.6896,-5.628,-5.5179,-5.5179,-5.5179,-5.5179,-5.5179,-5.5179,-5.4976,-5.3518,-5.2857,-5.2402,-4.9648,-4.8442,-4.8341,-4.7389,-4.7179,-4.7059,-5.6762,-5.7666,-5.8479,-5.9028,-5.9658,-6.0112,-6.0205,-6.0763,-6.1219,-6.1389,-6.1551,-6.1648,-6.1679,-6.2461,-6.3359,-6.4219,-6.5117,-6.5976,-6.6836,-6.6788,-6.6654,-6.65,-6.623,-6.6051,-6.5897,-6.5897,-6.5663,-6.5099,-6.4626,-6.4099,-6.3587,-6.3062,-6.2805,-6.2805,-6.2805,-6.2805,-6.2805,-6.2805,-6.2805,-6.2805,-6.2805,-6.2805,-6.2805,-6.2805,-6.2805,-6.2805,-6.2805,-6.2805,-6.2705,-6.1879,-6.1969,-6.2129,-6.082,-6.0519,-6.0544,-6.0086,-5.9896,-5.9832,-5.9543,-5.9078,-5.8494,-5.7993,-5.7881,-5.7881,-5.7881,-5.7881,-5.7881,-5.7881,-5.7881,-5.7881,-5.7881,-5.7881,-5.7881,-5.7881,-5.7881,-5.7983,-5.8287,-5.8321,-5.8592,-5.9336,-6.008,-6.0757,-6.1264,-6.1975,-6.2381,-6.2381,-6.2381,-6.2381,-6.2381,-6.2381,-6.2381,-6.2381,-6.1235,-6.0586,-6.0586,-6.0161,-5.8959,-5.6991,-5.6991,-5.6347,-5.5179,-5.5179,-5.5179,-5.5179,-5.5179,-5.5179,-5.5179,-5.4641,-5.386,-5.2751,-5.074,-4.9308,-4.8353,-4.7103,-4.6828,-4.7032,-5.7491,-5.8317,-5.9065,-5.9526,-6.0006,-6.0387,-6.0495,-6.0973,-6.1348,-6.1482,-6.1637,-6.1719,-6.1719,-6.2734,-6.3633,-6.4258,-6.5351,-6.6242,-6.6783,-6.6593,-6.6423,-6.6307,-6.6128,-6.5974,-6.5897,-6.5897,-6.5663,-6.5099,-6.4765,-6.437,-6.385,-6.3498,-6.3271,-6.3271,-6.3121,-6.3062,-6.3062,-6.2904,-6.2805,-6.2805,-6.2805,-6.2805,-6.2805,-6.2805,-6.2805,-6.2805,-6.2805,-6.2805,-6.2705,-6.2129,-6.2324,-6.2618,-6.1492,-6.1379,-6.1456,-6.0938,-6.076,-6.076,-6.076,-6.03,-5.9604,-5.8564,-5.8065,-5.7954,-5.8209,-5.8065,-5.7954,-5.8174,-5.8065,-5.7881,-5.7881,-5.7881,-5.7881,-5.7881,-5.7881,-5.7881,-5.7881,-5.7881,-5.8084,-5.8592,-5.9302,-6.008,-6.0858,-6.1603,-6.2144,-6.2381,-6.2381,-6.2381,-6.2381,-6.2381,-6.2381,-6.2381,-6.1595,-6.1152,-6.1152,-6.0417,-5.9434,-5.8145,-5.7339,-5.6541,-5.572,-5.5381,-5.5179,-5.5179,-5.5179,-5.5179,-5.5179,-5.5179,-5.4641,-5.3518,-5.2051,-5.0851,-4.9648,-4.7769,-4.7223,-4.7434,-5.7491,-5.8607,-5.9526,-6.0006,-6.0482,-6.0858,-6.0973,-6.1164,-6.1352,-6.1472,-6.1637,-6.1719,-6.1719,-6.3242,-6.4297,-6.4297,-6.5898,-6.683,-6.6613,-6.6307,-6.609,-6.609,-6.5974,-6.5897,-6.5897,-6.5897,-6.5663,-6.5099,-6.5099,-6.4833,-6.437,-6.437,-6.437,-6.437,-6.385,-6.3631,-6.3587,-6.3062,-6.2805,-6.2805,-6.2805,-6.2805,-6.2805,-6.2805,-6.2805,-6.2805,-6.2805,-6.2805,-6.2805,-6.2805,-6.2805,-6.2805,-6.2805,-6.2271,-6.1604,-6.1604,-6.1604,-6.1604,-6.1604,-6.1604,-6.1229,-5.9539,-5.8494,-5.8137,-5.8943,-5.8494,-5.8137,-5.8943,-5.8528,-5.7881,-5.7881,-5.7881,-5.7881,-5.7881,-5.7881,-5.7881,-5.7881,-5.7881,-5.7881,-5.7881,-5.8558,-5.9302,-6.0013,-6.0825,-6.1603,-6.2347,-6.2381,-6.2381,-6.2381,-6.2381,-6.2381,-6.2381,-6.2381,-6.2381,-6.2381,-6.0043,-5.9434,-6.0586,-5.8145,-5.6991,-5.6991,-5.572,-5.5179,-5.5179,-5.5179,-5.5179,-5.5179,-5.5179,-5.5179,-5.5078,-5.3623,-5.2963,-5.2644,-4.9648,-4.8532,-4.8326,-5.8723,-5.9174,-5.9625,-6.0456,-6.071,-6.0896,-6.1189,-6.1281,-6.1373,-6.1627,-6.1665,-6.1719,-6.1719,-6.3242,-6.4297,-6.4297,-6.5901,-6.6767,-6.6486,-6.623,-6.6051,-6.5936,-6.5897,-6.5897,-6.5897,-6.5897,-6.5663,-6.5099,-6.5099,-6.4833,-6.437,-6.437,-6.437,-6.437,-6.4217,-6.4138,-6.4138,-6.3978,-6.3896,-6.3892,-6.3543,-6.3363,-6.3317,-6.2917,-6.2805,-6.2805,-6.2805,-6.2805,-6.2805,-6.2805,-6.2805,-6.2805,-6.2805,-6.2654,-6.2464,-6.2464,-6.2464,-6.2464,-6.2464,-6.2023,-6.1343,-6.0273,-5.9832,-5.9739,-5.996,-5.9832,-5.9704,-5.996,-5.9832,-5.9639,-5.9639,-5.9639,-5.9639,-5.9639,-5.9639,-5.9639,-5.9639,-5.9639,-5.9639,-5.9639,-5.9838,-6.0217,-6.0902,-6.117,-6.1603,-6.2347,-6.2381,-6.2381,-6.2381,-6.2381,-6.2381,-6.2381,-6.2381,-6.2381,-6.2381,-6.1676,-6.1036,-6.0586,-5.8992,-5.7807,-5.6991,-5.572,-5.5179,-5.5179,-5.5179,-5.5179,-5.5179,-5.5179,-5.5179,-5.5078,-5.3623,-5.2295,-5.1153,-4.9194,-4.786,-4.6874,-5.9248,-5.9526,-5.9916,-6.0647,-6.0819,-6.0973,-6.1266,-6.1351,-6.146,-6.1676,-6.1719,-6.1719,-6.1719,-6.3242,-6.4297,-6.4297,-6.5835,-6.6707,-6.6486,-6.6269,-6.6051,-6.5974,-6.5936,-6.5897,-6.5897,-6.5897,-6.5717,-6.5417,-6.5417,-6.5261,-6.4971,-6.4971,-6.4971,-6.4971,-6.4765,-6.4661,-6.4661,-6.4481,-6.437,-6.437,-6.4056,-6.3808,-6.355,-6.3262,-6.2965,-6.2805,-6.2805,-6.2805,-6.2805,-6.2805,-6.2805,-6.2805,-6.2805,-6.2805,-6.2805,-6.2805,-6.2805,-6.2805,-6.2805,-6.2427,-6.1969,-6.1492,-6.0879,-6.0458,-6.082,-6.064,-6.0458,-6.082,-6.064,-6.0397,-6.0397,-6.0397,-6.0397,-6.0397,-6.0397,-6.0397,-6.0397,-6.0397,-6.0397,-6.0397,-6.0058,-6.0254,-6.1293,-6.1013,-6.1264,-6.2313,-6.2381,-6.2381,-6.2381,-6.2381,-6.2381,-6.2381,-6.2381,-6.2381,-6.2381,-6.2381,-6.1756,-6.0586,-5.8902,-5.7714,-5.6991,-5.572,-5.5179,-5.5179,-5.5179,-5.5179,-5.5179,-5.5179,-5.5179,-5.5078,-5.42,-5.3279,-5.2266,-5.0184,-4.8851,-4.786,-5.9284,-5.9792,-6.0255,-6.0734,-6.0896,-6.1074,-6.1257,-6.1405,-6.1539,-6.1672,-6.1719,-6.1719,-6.1719,-6.3242,-6.4297,-6.4297,-6.5703,-6.6603,-6.6592,-6.6294,-6.609,-6.609,-6.5974,-6.5897,-6.5897,-6.5897,-6.5897,-6.5897,-6.5897,-6.5897,-6.5897,-6.5897,-6.5897,-6.5897,-6.5388,-6.5161,-6.513,-6.4734,-6.4518,-6.4518,-6.4481,-6.4178,-6.3723,-6.3637,-6.3308,-6.2855,-6.2805,-6.2805,-6.2805,-6.2805,-6.2805,-6.2805,-6.2805,-6.2805,-6.2805,-6.2805,-6.2805,-6.2805,-6.2805,-6.2805,-6.2805,-6.2805,-6.1659,-6.082,-6.1548,-6.1113,-6.082,-6.1548,-6.1113,-6.058,-6.058,-6.058,-6.058,-6.058,-6.058,-6.058,-6.058,-6.058,-6.058,-6.0519,-5.9768,-5.9802,-6.1224,-6.0779,-6.0892,-6.2279,-6.2381,-6.2381,-6.2381,-6.2381,-6.2381,-6.2381,-6.2381,-6.2381,-6.2381,-6.2302,-6.1676,-6.0586,-5.8237,-5.7086,-5.6991,-5.572,-5.5179,-5.5179,-5.5179,-5.5179,-5.5179,-5.5179,-5.5179,-5.5179,-5.5179,-5.5078,-5.4641,-5.1943,-5.0823,-5.0268,-5.9284,-5.9792,-6.0255,-6.0734,-6.0896,-6.1053,-6.1283,-6.1428,-6.1539,-6.1672,-6.1719,-6.1719,-6.1719,-6.3242,-6.4297,-6.4297,-6.5703,-6.657,-6.6461,-6.6218,-6.6051,-6.5936,-6.5897,-6.5897,-6.5897,-6.5897,-6.5897,-6.5897,-6.5897,-6.5897,-6.5897,-6.5897,-6.5897,-6.5897,-6.5781,-6.5717,-6.5717,-6.5635,-6.5569,-6.5542,-6.5099,-6.4866,-6.4696,-6.3896,-6.3543,-6.3363,-6.2917,-6.2805,-6.2805,-6.2805,-6.2805,-6.2805,-6.2805,-6.2805,-6.2805,-6.2805,-6.2805,-6.2805,-6.2805,-6.2805,-6.2805,-6.2805,-6.2515,-6.2324,-6.2515,-6.2376,-6.2324,-6.2515,-6.2412,-6.2271,-6.2271,-6.2271,-6.2271,-6.2271,-6.2271,-6.2271,-6.2271,-6.2271,-6.2023,-6.14,-6.064,-6.0463,-6.1294,-6.1661,-6.2042,-6.2347,-6.2381,-6.2381,-6.2381,-6.2381,-6.2381,-6.2381,-6.2381,-6.2381,-6.2381,-6.148,-6.087,-6.0586,-5.9081,-5.79,-5.6991,-5.572,-5.5179,-5.5179,-5.5179,-5.5179,-5.5179,-5.5179,-5.5179,-5.5179,-5.5179,-5.4509,-5.3413,-5.2722,-5.1727,-5.0491,-5.9696,-6.0103,-6.0508,-6.0757,-6.0973,-6.1173,-6.1279,-6.1472,-6.1607,-6.1677,-6.1719,-6.1719,-6.1719,-6.3242,-6.4648,-6.5469,-6.6205,-6.6516,-6.6426,-6.6204,-6.6051,-6.5897,-6.5897,-6.5897,-6.5897,-6.5897,-6.5897,-6.5897,-6.5897,-6.5897,-6.5897,-6.5897,-6.5897,-6.5897,-6.5897,-6.5897,-6.5897,-6.5897,-6.5897,-6.5897,-6.5597,-6.5321,-6.5067,-6.4518,-6.4019,-6.3587,-6.3308,-6.3014,-6.2805,-6.2805,-6.2805,-6.2805,-6.2805,-6.2805,-6.2805,-6.2805,-6.2805,-6.2805,-6.2805,-6.2805,-6.2805,-6.2805,-6.2805,-6.2805,-6.2805,-6.2805,-6.2805,-6.2805,-6.2805,-6.2805,-6.2805,-6.2805,-6.2805,-6.2805,-6.2805,-6.2805,-6.2805,-6.2805,-6.2515,-6.1715,-6.0879,-6.0528,-6.0762,-6.1775,-6.2381,-6.2381,-6.2381,-6.2381,-6.2381,-6.2381,-6.2381,-6.2381,-6.2381,-6.2381,-6.2381,-6.1235,-6.0332,-5.9697,-5.8542,-5.7276,-5.6085,-5.5451,-5.5179,-5.5179,-5.5179,-5.5179,-5.5179,-5.5179,-5.5179,-5.5179,-5.5179,-5.4743,-5.3964,-5.3308,-5.1618,-4.9395,-6.0103,-6.0482,-6.0781,-6.0781,-6.1074,-6.1309,-6.1318,-6.152,-6.1719,-6.1719,-6.1719,-6.1719,-6.1719,-6.3242,-6.5,-6.6758,-6.6737,-6.6574,-6.6392,-6.6239,-6.609,-6.5897,-6.5897,-6.5897,-6.5897,-6.5897,-6.5897,-6.5897,-6.5897,-6.5897,-6.5897,-6.5897,-6.5897,-6.5897,-6.5897,-6.5897,-6.5897,-6.5897,-6.5897,-6.5897,-6.5897,-6.5624,-6.523,-6.513,-6.4554,-6.3723,-6.3637,-6.3262,-6.2805,-6.2805,-6.2805,-6.2805,-6.2805,-6.2805,-6.2805,-6.2805,-6.2805,-6.2805,-6.2805,-6.2805,-6.2805,-6.2805,-6.2805,-6.2805,-6.2805,-6.2805,-6.2805,-6.2805,-6.2805,-6.2805,-6.2805,-6.2805,-6.2805,-6.2805,-6.2805,-6.2805,-6.2805,-6.2705,-6.2271,-6.1492,-6.0732,-6.0282,-6.0129,-6.1501,-6.2381,-6.2381,-6.2381,-6.2381,-6.2381,-6.2381,-6.2381,-6.2381,-6.2381,-6.2381,-6.2381,-6.1235,-6.0075,-5.9081,-5.79,-5.6541,-5.5179,-5.535,-5.5381,-5.5179,-5.5179,-5.5179,-5.5179,-5.5179,-5.5179,-5.5179,-5.5179,-5.5179,-5.4976,-5.3518,-5.1291,-4.8647,-6.0103,-6.0482,-6.0781,-6.0781,-6.1074,-6.1309,-6.1318,-6.152,-6.1719,-6.1719,-6.1719,-6.1719,-6.1719,-6.3242,-6.5,-6.6758,-6.6867,-6.6741,-6.6422,-6.6396,-6.623,-6.5897,-6.5897,-6.5897,-6.5897,-6.5897,-6.5897,-6.5897,-6.5897,-6.5897,-6.5897,-6.5897,-6.5897,-6.5897,-6.5897,-6.5897,-6.5897,-6.5897,-6.5897,-6.5897,-6.5897,-6.5872,-6.5717,-6.5291,-6.4765,-6.4217,-6.3766,-6.3262,-6.2805,-6.2805,-6.2805,-6.2805,-6.2805,-6.2805,-6.2805,-6.2805,-6.2805,-6.2805,-6.2805,-6.2805,-6.2805,-6.2805,-6.2805,-6.2805,-6.2805,-6.2805,-6.2805,-6.2805,-6.2805,-6.2805,-6.2805,-6.2805,-6.2805,-6.2805,-6.2805,-6.2805,-6.2805,-6.2219,-6.1492,-6.064,-6.0289,-6.0143,-6.008,-6.1501,-6.2381,-6.2381,-6.2381,-6.2381,-6.2381,-6.2381,-6.2381,-6.2381,-6.2381,-6.2381,-6.2381,-6.1235,-6.0501,-6.0332,-5.917,-5.7371,-5.5179,-5.628,-5.6183,-5.5179,-5.5179,-5.5179,-5.5179,-5.5179,-5.5179,-5.5179,-5.5179,-5.5179,-5.4976,-5.3518,-5.1943,-5.0157,-6.0482,-6.0647,-6.0819,-6.0896,-6.1151,-6.1318,-6.1389,-6.1573,-6.1719,-6.1719,-6.1719,-6.1719,-6.1719,-6.3242,-6.5,-6.6758,-6.6797,-6.6664,-6.6535,-6.636,-6.6167,-6.6013,-6.5936,-6.5897,-6.5897,-6.5897,-6.5897,-6.5897,-6.5897,-6.5897,-6.5897,-6.5897,-6.5897,-6.5897,-6.5897,-6.5897,-6.5897,-6.5897,-6.5897,-6.5897,-6.5897,-6.5897,-6.5872,-6.5663,-6.5035,-6.4294,-6.3453,-6.3014,-6.2805,-6.2805,-6.2805,-6.2805,-6.2805,-6.2805,-6.2805,-6.2805,-6.2805,-6.2805,-6.2805,-6.2805,-6.2805,-6.2805,-6.2805,-6.2805,-6.2805,-6.2805,-6.2805,-6.2805,-6.2805,-6.2805,-6.2805,-6.2805,-6.2805,-6.2805,-6.2805,-6.2805,-6.2805,-6.2076,-6.1292,-6.0428,-6.0175,-6.0283,-6.0723,-6.1738,-6.2381,-6.2381,-6.2381,-6.2381,-6.2381,-6.2381,-6.2381,-6.2381,-6.2381,-6.2381,-6.2381,-6.1235,-6.0586,-6.0586,-6.0075,-5.8542,-5.6183,-5.6704,-5.6347,-5.5179,-5.5179,-5.5179,-5.5179,-5.5179,-5.5179,-5.5179,-5.5179,-5.5179,-5.4976,-5.3518,-5.2051,-5.0491]}]]